[[{"header":{"parameterUnit":"m.s-1","parameterCategory":1,"la1":31.0,"la2":29.5877,"lo1":-88.7671,"lo2":-86.6584,"dy":0.0162,"dx":0.0185,"nx":115,"ny":88,"refTime":"2026-05-05T00:00:00:Z","depth":0,"parameterNumber":2,"parameterNumberName":"U-component_of_WINDS"},"data":[0.0,0.0,0.0,0.0,0.0,0.0,0.0,0.0,0.0,0.0,0.0,0.0,0.0,0.0,0.0,0.0,0.0,0.0,0.0,0.0,0.0,0.0,0.0,0.0,0.0,0.0,0.0,0.0,0.0,0.0,0.0,0.0,0.0,0.0,0.0,0.0,0.0,0.0,0.0,0.0,0.0,0.0,0.0,0.0,0.0,0.0,0.0,0.0,0.0,0.0,0.0,0.0,0.0,0.0,0.0,0.0,0.0,0.0,0.0,0.0,0.0,0.0,0.0,0.0,0.0,0.0,0.0,0.0,0.0,0.0,0.0,0.0,0.0,0.0,0.0,0.0,0.0,0.0,0.0,0.0,0.0,0.0,0.0,0.0,0.0,0.0,0.0,0.0,0.0,0.0,0.0,0.0,0.0,0.0,0.0,0.0,0.0,0.0,0.0,0.0,0.0,0.0,0.0,0.0,0.0,0.0,0.0,0.0,0.0,0.0,0.0,0.0,0.0,0.0,0.0,0.0,0.0,0.0,0.0,0.0,0.0,0.0,0.0,0.0,0.0,0.0,0.0,0.0,0.0,0.0,0.0,0.0,0.0,0.0,0.0,0.0,0.0,0.0,0.0,0.0,0.0,0.0,0.0,0.0,0.0,0.0,0.0,0.0,0.0,0.0,0.0,0.0,0.0,0.0,0.0,0.0,0.0,0.0,0.0,0.0,0.0,0.0,0.0,0.0,0.0,0.0,0.0,0.0,0.0,0.0,0.0,0.0,0.0,0.0,0.0,0.0,0.0,0.0,0.0,0.0,0.0,0.0,0.0,0.0,0.0,0.0,0.0,0.0,0.0,0.0,0.0,0.0,0.0,0.0,0.0,0.0,0.0,0.0,0.0,0.0,0.0,0.0,0.0,0.0,0.0,0.0,0.0,0.0,0.0,0.0,0.0,0.0,0.0,0.0,0.0,0.0,0.0,0.0,0.0,0.0,0.0,0.0,0.0,0.0,0.0,0.0,0.0,0.0,0.0,0.0,0.0,0.0,0.0,0.0,0.0,0.0,0.0,0.0,0.0,0.0,0.0,0.0,0.0,0.0,0.0,0.0,0.0,0.0,0.0,0.0,0.0,0.0,0.0,0.0,0.0,0.0,0.0,0.0,0.0,0.0,0.0,0.0,0.0,0.0,0.0,0.0,0.0,0.0,0.0,0.0,0.0,0.0,0.0,0.0,0.0,0.0,0.0,0.0,0.0,0.0,0.0,0.0,0.0,0.0,0.0,0.0,0.0,0.0,0.0,0.0,0.0,0.0,0.0,0.0,0.0,0.0,0.0,0.0,0.0,0.0,0.0,0.0,0.0,0.0,0.0,0.0,0.0,0.0,0.0,0.0,0.0,0.0,0.0,0.0,0.0,0.0,0.0,0.0,0.0,0.0,0.0,0.0,0.0,0.0,0.0,0.0,0.0,0.0,0.0,0.0,0.0,0.0,0.0,0.0,0.0,0.0,0.0,0.0,0.0,0.0,0.0,0.0,0.0,0.0,0.0,0.0,0.0,0.0,0.0,0.0,0.0,0.0,0.0,0.0,0.0,0.0,0.0,0.0,0.0,0.0,0.0,0.0,0.0,0.0,0.0,0.0,0.0,0.0,0.0,0.0,0.0,0.0,0.0,0.0,0.0,0.0,0.0,0.0,0.0,0.0,0.0,0.0,0.0,0.0,0.0,0.0,0.0,0.0,0.0,0.0,0.0,0.0,0.0,0.0,0.0,0.0,0.0,0.0,0.0,0.0,0.0,0.0,0.0,0.0,0.0,0.0,0.0,0.0,0.0,0.0,0.0,0.0,0.0,0.0,0.0,0.0,0.0,0.0,0.0,0.0,0.0,0.0,0.0,0.0,0.0,0.0,0.0,0.0,0.0,0.0,0.0,0.0,0.0,0.0,0.0,0.0,0.0,0.0,0.0,0.0,0.0,0.0,0.0,0.0,0.0,0.0,0.0,0.0,0.0,0.0,0.0,0.0,0.0,0.0,0.0,0.0,0.0,0.0,0.0,0.0,0.0,0.0,0.0,0.0,0.0,0.0,0.0,0.0,0.0,0.0,0.0,0.0,0.0,0.0,0.0,0.0,0.0,0.0,0.0,0.0,0.0,0.0,0.0,0.0,0.0,0.0,0.0,0.0,0.0,0.0,0.0,0.0,0.0,0.0,0.0,0.0,0.0,0.0,0.0,0.0,0.0,0.0,0.0,0.0,0.0,0.0,0.0,0.0,0.0,0.0,0.0,0.0,0.0,0.0,0.0,0.0,0.0,0.0,0.0,0.0,0.0,0.0,0.0,0.0,0.0,0.0,0.0,0.0,0.0,0.0,0.0,0.0,0.0,0.0,0.0,0.0,0.0,0.0,0.0,0.0,0.0,0.0,0.0,0.0,0.0,0.0,0.0,0.0,0.0,0.0,0.0,0.0,0.0,0.0,0.0,0.0,0.0,0.0,0.0,0.0,0.0,0.0,0.0,0.0,0.0,0.0,0.0,0.0,0.0,0.0,0.0,0.0,0.0,0.0,0.0,0.0,0.0,0.0,0.0,0.0,0.0,0.0,0.0,0.0,0.0,0.0,0.0,0.0,0.0,0.0,0.0,0.0,0.0,0.0,0.0,0.0,0.0,0.0,0.0,0.0,0.0,0.0,0.0,0.0,0.0,0.0,0.0,0.0,0.0,0.0,0.0,0.0,0.0,0.0,0.0,0.0,0.0,0.0,0.0,0.0,0.0,0.0,0.0,0.0,0.0,0.0,0.0,0.0,0.0,0.0,0.0,0.0,0.0,0.0,0.0,0.0,0.0,0.0,0.0,0.0,0.0,0.0,0.0,0.0,0.0,0.0,0.0,0.0,0.0,0.0,0.0,0.0,0.0,0.0,0.0,0.0,0.0,0.0,0.0,0.0,0.0,0.0,0.0,0.0,0.0,0.0,0.0,0.0,0.0,0.0,0.0,0.0,0.0,0.0,0.0,0.0,0.0,0.0,0.0,0.0,0.0,0.0,0.0,0.0,0.0,0.0,0.0,0.0,0.0,0.0,0.0,0.0,0.0,0.0,0.0,0.0,0.0,0.0,0.0,0.0,0.0,0.0,0.0,0.0,0.0,0.0,0.0,0.0,0.0,0.0,0.0,0.0,0.0,0.0,0.0,0.0,0.0,0.0,0.0,0.0,0.0,0.0,0.0,0.0,0.0,0.0,0.0,0.0,0.0,0.0,0.0,0.0,0.0,0.0,0.0,0.0,0.0,0.0,0.0,0.0,0.0,0.0,0.0,0.0,0.0,0.0,0.0,0.0,0.0,0.0,0.0,0.0,0.0,0.0,0.0,0.0,0.0,0.0,0.0,0.0,0.0,0.0,0.0,0.0,0.0,0.0,0.0,0.0,0.0,0.0,0.0,0.0,0.0,0.0,0.0,0.0,0.0,0.0,0.0,0.0,0.0,0.0,0.0,0.0,0.0,0.0,0.0,0.0,0.0,0.0,0.0,0.0,0.0,0.0,0.0,0.0,0.0,0.0,0.0,0.0,0.0,0.0,0.0,0.0,0.0,0.0,0.0,0.0,0.0,0.0,0.0,0.0,0.0,0.0,0.0,0.0,0.0,0.0,0.0,0.0,0.0,0.0,0.0,0.0,0.0,0.0,0.0,0.0,0.0,0.0,0.0,0.0,0.0,0.0,0.0,0.0,0.0,0.0,0.0,0.0,0.0,0.0,0.0,0.0,0.0,0.0,0.0,0.0,0.0,0.0,0.0,0.0,0.0,0.0,0.0,0.0,0.0,0.0,0.0,0.0,0.0,0.0,0.0,0.0,0.0,0.0,0.0,0.0,0.0,0.0,0.0,0.0,0.0,0.0,0.0,0.0,0.0,0.0,0.0,0.0,0.0,0.0,0.0,0.0,0.0,0.0,0.0,0.0,0.0,0.0,0.0,0.0,0.0,0.0,0.0,0.0,0.0,0.0,0.0,0.0,0.0,0.0,0.0,0.0,0.0,0.0,0.0,0.0,0.0,0.0,0.0,0.0,0.0,0.0,0.0,0.0,0.0,0.0,0.0,0.0,0.0,0.0,0.0,0.0,0.0,0.0,0.0,0.0,0.0,0.0,0.0,0.0,0.0,0.0,0.0,0.0,0.0,0.0,0.0,0.0,0.0,0.0,0.0,0.0,0.0,0.0,0.0,0.0,0.0,0.0,0.0,0.0,0.0,0.0,0.0,0.0,0.0,0.0,0.0,0.0,0.0,0.0,0.0,0.0,0.0,0.0,-3.8014,0.0,0.0,0.0,0.0,0.0,0.0,0.0,0.0,0.0,0.0,0.0,0.0,0.0,0.0,0.0,0.0,0.0,0.0,0.0,0.0,0.0,0.0,0.0,0.0,0.0,0.0,0.0,0.0,0.0,0.0,0.0,0.0,0.0,0.0,0.0,0.0,0.0,0.0,0.0,0.0,0.0,0.0,0.0,0.0,0.0,0.0,0.0,0.0,0.0,0.0,0.0,0.0,0.0,0.0,0.0,0.0,0.0,0.0,0.0,0.0,0.0,0.0,0.0,0.0,0.0,0.0,0.0,0.0,0.0,0.0,0.0,0.0,0.0,0.0,0.0,0.0,0.0,0.0,0.0,0.0,0.0,0.0,0.0,0.0,0.0,0.0,0.0,0.0,0.0,0.0,0.0,0.0,0.0,0.0,0.0,0.0,0.0,0.0,0.0,0.0,0.0,0.0,0.0,0.0,0.0,0.0,0.0,0.0,0.0,0.0,-4.1171,-4.1086,-3.9307,-3.8291,-3.8197,0.0,0.0,0.0,0.0,0.0,0.0,0.0,0.0,0.0,0.0,0.0,0.0,0.0,0.0,0.0,0.0,0.0,0.0,0.0,0.0,0.0,0.0,0.0,0.0,0.0,0.0,0.0,0.0,0.0,0.0,0.0,0.0,0.0,0.0,0.0,0.0,0.0,0.0,0.0,0.0,0.0,0.0,0.0,0.0,0.0,0.0,0.0,0.0,0.0,0.0,0.0,0.0,0.0,0.0,0.0,0.0,0.0,0.0,0.0,0.0,0.0,0.0,0.0,0.0,0.0,0.0,0.0,0.0,0.0,0.0,0.0,0.0,0.0,0.0,0.0,0.0,0.0,0.0,0.0,0.0,0.0,0.0,0.0,0.0,0.0,0.0,0.0,0.0,0.0,0.0,0.0,0.0,0.0,0.0,0.0,0.0,0.0,0.0,0.0,0.0,0.0,0.0,0.0,0.0,0.0,0.0,0.0,0.0,0.0,0.0,0.0,0.0,-4.0179,-3.8867,-3.8236,0.0,0.0,0.0,0.0,0.0,0.0,0.0,0.0,0.0,0.0,0.0,0.0,0.0,0.0,0.0,0.0,0.0,0.0,0.0,0.0,0.0,0.0,0.0,0.0,0.0,0.0,0.0,0.0,0.0,0.0,0.0,0.0,0.0,0.0,0.0,0.0,0.0,0.0,0.0,0.0,0.0,0.0,0.0,0.0,0.0,0.0,0.0,0.0,0.0,0.0,0.0,0.0,0.0,0.0,0.0,0.0,0.0,0.0,0.0,0.0,0.0,0.0,0.0,0.0,0.0,0.0,0.0,0.0,0.0,0.0,0.0,0.0,0.0,0.0,0.0,0.0,0.0,0.0,0.0,0.0,0.0,0.0,0.0,0.0,0.0,0.0,0.0,0.0,0.0,0.0,0.0,0.0,0.0,0.0,0.0,0.0,0.0,0.0,0.0,0.0,0.0,0.0,0.0,0.0,0.0,0.0,0.0,0.0,0.0,0.0,-4.2305,-4.457,-4.2744,0.0,-3.8246,0.0,0.0,0.0,0.0,0.0,0.0,0.0,0.0,0.0,0.0,0.0,0.0,0.0,0.0,0.0,0.0,0.0,0.0,0.0,0.0,0.0,0.0,0.0,0.0,0.0,0.0,0.0,0.0,0.0,0.0,0.0,0.0,0.0,0.0,0.0,0.0,0.0,0.0,0.0,0.0,0.0,0.0,0.0,0.0,0.0,0.0,0.0,0.0,0.0,0.0,0.0,0.0,0.0,0.0,0.0,0.0,0.0,0.0,0.0,0.0,0.0,0.0,0.0,0.0,0.0,0.0,0.0,0.0,0.0,0.0,0.0,0.0,0.0,0.0,0.0,0.0,0.0,0.0,0.0,0.0,0.0,0.0,0.0,0.0,0.0,0.0,0.0,0.0,0.0,0.0,0.0,0.0,0.0,0.0,0.0,0.0,0.0,0.0,0.0,0.0,0.0,0.0,0.0,0.0,0.0,0.0,0.0,0.0,0.0,0.0,-4.3164,-4.4219,-4.19,-3.9801,0.0,0.0,0.0,0.0,0.0,0.0,0.0,0.0,0.0,0.0,0.0,0.0,0.0,0.0,0.0,0.0,0.0,0.0,0.0,0.0,0.0,0.0,0.0,0.0,0.0,0.0,0.0,0.0,0.0,0.0,0.0,0.0,0.0,0.0,0.0,0.0,0.0,0.0,0.0,0.0,0.0,0.0,0.0,0.0,0.0,0.0,0.0,0.0,0.0,0.0,0.0,0.0,0.0,0.0,0.0,0.0,0.0,0.0,0.0,0.0,0.0,0.0,0.0,0.0,0.0,0.0,0.0,0.0,0.0,0.0,0.0,0.0,0.0,0.0,0.0,0.0,0.0,0.0,0.0,0.0,0.0,0.0,0.0,0.0,0.0,0.0,0.0,0.0,0.0,0.0,0.0,0.0,0.0,0.0,0.0,0.0,0.0,0.0,0.0,0.0,0.0,0.0,0.0,0.0,0.0,0.0,0.0,0.0,0.0,0.0,-4.2773,-4.3553,-4.3854,-4.2034,-3.9917,-3.7714,0.0,0.0,0.0,0.0,0.0,0.0,0.0,0.0,0.0,0.0,0.0,0.0,0.0,0.0,0.0,0.0,0.0,0.0,0.0,0.0,0.0,0.0,0.0,0.0,0.0,0.0,0.0,0.0,0.0,0.0,0.0,0.0,0.0,0.0,0.0,0.0,0.0,0.0,0.0,0.0,0.0,0.0,0.0,0.0,0.0,0.0,0.0,0.0,0.0,0.0,0.0,0.0,0.0,0.0,0.0,0.0,0.0,0.0,0.0,0.0,0.0,0.0,0.0,0.0,0.0,0.0,0.0,0.0,0.0,0.0,0.0,0.0,0.0,0.0,0.0,0.0,0.0,0.0,0.0,0.0,0.0,0.0,0.0,0.0,0.0,0.0,0.0,0.0,0.0,0.0,0.0,0.0,0.0,0.0,0.0,0.0,0.0,0.0,0.0,0.0,0.0,0.0,0.0,0.0,0.0,0.0,0.0,0.0,0.0,-4.3633,-4.3148,-4.4631,-4.4457,-4.1962,0.0,0.0,0.0,0.0,0.0,0.0,0.0,0.0,0.0,0.0,0.0,0.0,0.0,0.0,0.0,0.0,0.0,0.0,0.0,0.0,0.0,0.0,0.0,0.0,0.0,0.0,0.0,0.0,0.0,0.0,0.0,0.0,0.0,0.0,0.0,0.0,0.0,0.0,0.0,0.0,0.0,0.0,0.0,0.0,0.0,0.0,0.0,0.0,0.0,0.0,0.0,0.0,0.0,0.0,0.0,0.0,0.0,0.0,0.0,0.0,0.0,0.0,0.0,0.0,0.0,0.0,0.0,0.0,0.0,0.0,0.0,0.0,0.0,0.0,0.0,0.0,0.0,0.0,0.0,0.0,0.0,0.0,0.0,0.0,0.0,0.0,0.0,0.0,0.0,0.0,0.0,0.0,0.0,0.0,0.0,0.0,0.0,0.0,0.0,0.0,0.0,0.0,0.0,0.0,0.0,0.0,0.0,0.0,0.0,-4.043,-4.125,-4.3416,-4.6774,-4.242,-3.9321,0.0,0.0,0.0,0.0,0.0,0.0,0.0,0.0,0.0,0.0,0.0,0.0,0.0,0.0,0.0,0.0,0.0,0.0,0.0,0.0,0.0,0.0,0.0,0.0,0.0,0.0,0.0,0.0,0.0,0.0,0.0,0.0,0.0,0.0,0.0,0.0,0.0,0.0,0.0,0.0,0.0,0.0,0.0,0.0,0.0,0.0,0.0,0.0,0.0,0.0,0.0,0.0,0.0,0.0,0.0,0.0,0.0,0.0,0.0,0.0,0.0,0.0,0.0,0.0,0.0,0.0,0.0,0.0,0.0,0.0,0.0,0.0,0.0,0.0,0.0,0.0,0.0,0.0,0.0,0.0,0.0,0.0,0.0,0.0,0.0,0.0,0.0,0.0,0.0,0.0,0.0,0.0,0.0,0.0,0.0,0.0,0.0,0.0,0.0,0.0,0.0,0.0,0.0,0.0,0.0,0.0,0.0,0.0,0.0,-3.9375,0.0,-4.4478,0.0,-4.1594,-3.8158,0.0,0.0,0.0,0.0,0.0,0.0,0.0,0.0,0.0,0.0,0.0,0.0,0.0,0.0,0.0,0.0,0.0,0.0,0.0,0.0,0.0,0.0,0.0,0.0,0.0,0.0,0.0,0.0,0.0,0.0,0.0,0.0,0.0,0.0,0.0,0.0,0.0,0.0,0.0,0.0,0.0,0.0,0.0,0.0,0.0,0.0,0.0,0.0,0.0,0.0,0.0,0.0,0.0,0.0,0.0,0.0,0.0,0.0,0.0,0.0,0.0,0.0,0.0,0.0,0.0,0.0,0.0,0.0,0.0,0.0,0.0,0.0,0.0,0.0,0.0,0.0,0.0,0.0,0.0,0.0,0.0,0.0,0.0,0.0,0.0,0.0,0.0,0.0,0.0,0.0,0.0,0.0,0.0,0.0,0.0,0.0,0.0,0.0,0.0,0.0,0.0,0.0,0.0,0.0,0.0,0.0,0.0,0.0,-3.8594,-4.3437,-4.5976,-4.6129,-4.3798,-4.252,-3.8805,0.0,0.0,0.0,0.0,0.0,0.0,0.0,0.0,0.0,0.0,0.0,0.0,0.0,0.0,0.0,0.0,0.0,0.0,0.0,0.0,0.0,0.0,0.0,0.0,0.0,0.0,0.0,0.0,0.0,0.0,0.0,0.0,0.0,0.0,0.0,0.0,0.0,0.0,0.0,0.0,0.0,0.0,0.0,0.0,0.0,0.0,0.0,0.0,0.0,0.0,0.0,0.0,0.0,0.0,0.0,0.0,0.0,0.0,0.0,0.0,0.0,0.0,0.0,0.0,0.0,0.0,0.0,0.0,0.0,0.0,0.0,0.0,0.0,0.0,0.0,0.0,0.0,0.0,0.0,0.0,0.0,0.0,0.0,0.0,0.0,0.0,0.0,0.0,0.0,0.0,0.0,0.0,0.0,0.0,0.0,0.0,0.0,0.0,0.0,0.0,0.0,0.0,0.0,0.0,0.0,0.0,0.0,0.0,0.0,-4.2773,-4.3594,-4.5308,-4.7654,-4.1863,-3.8389,0.0,0.0,0.0,0.0,0.0,0.0,0.0,0.0,0.0,0.0,0.0,0.0,0.0,0.0,0.0,0.0,0.0,0.0,0.0,0.0,0.0,0.0,0.0,0.0,0.0,0.0,0.0,0.0,0.0,0.0,0.0,0.0,0.0,0.0,0.0,0.0,0.0,0.0,0.0,0.0,0.0,0.0,0.0,0.0,0.0,0.0,0.0,0.0,0.0,0.0,0.0,0.0,0.0,0.0,0.0,0.0,0.0,0.0,0.0,0.0,0.0,0.0,0.0,0.0,0.0,0.0,0.0,0.0,0.0,0.0,0.0,0.0,0.0,0.0,0.0,0.0,0.0,0.0,0.0,0.0,0.0,0.0,0.0,0.0,0.0,0.0,0.0,0.0,0.0,0.0,0.0,0.0,0.0,0.0,0.0,0.0,0.0,0.0,0.0,0.0,0.0,0.0,0.0,0.0,0.0,0.0,0.0,0.0,0.0,-4.5312,-4.625,-4.7612,-4.9447,-4.3278,-3.9381,-3.8244,0.0,0.0,0.0,0.0,0.0,0.0,0.0,0.0,0.0,0.0,0.0,0.0,0.0,0.0,0.0,0.0,0.0,0.0,0.0,0.0,0.0,0.0,0.0,0.0,0.0,0.0,0.0,0.0,0.0,0.0,0.0,0.0,0.0,0.0,0.0,0.0,0.0,0.0,0.0,0.0,0.0,0.0,0.0,0.0,0.0,0.0,0.0,0.0,0.0,0.0,0.0,0.0,0.0,0.0,0.0,0.0,0.0,0.0,0.0,0.0,0.0,0.0,0.0,0.0,0.0,0.0,0.0,0.0,0.0,0.0,0.0,0.0,0.0,0.0,0.0,0.0,0.0,0.0,0.0,0.0,0.0,0.0,0.0,0.0,0.0,0.0,0.0,0.0,0.0,0.0,0.0,0.0,0.0,0.0,0.0,0.0,0.0,0.0,0.0,0.0,0.0,0.0,0.0,0.0,0.0,0.0,0.0,0.0,-5.0391,-5.293,-5.2613,-4.9296,-4.6371,-4.1696,0.0,0.0,0.0,0.0,0.0,0.0,0.0,0.0,0.0,0.0,0.0,0.0,0.0,0.0,0.0,0.0,0.0,0.0,0.0,0.0,0.0,0.0,0.0,0.0,0.0,0.0,0.0,0.0,0.0,0.0,0.0,0.0,0.0,0.0,0.0,0.0,0.0,0.0,0.0,0.0,0.0,0.0,0.0,0.0,0.0,0.0,0.0,0.0,0.0,0.0,0.0,0.0,0.0,0.0,0.0,0.0,0.0,0.0,0.0,0.0,0.0,0.0,0.0,0.0,0.0,0.0,0.0,0.0,0.0,0.0,0.0,0.0,0.0,0.0,0.0,0.0,0.0,0.0,0.0,0.0,0.0,0.0,0.0,0.0,0.0,0.0,0.0,0.0,0.0,0.0,0.0,0.0,0.0,0.0,0.0,0.0,0.0,0.0,0.0,0.0,0.0,0.0,0.0,0.0,0.0,0.0,0.0,0.0,0.0,-5.2891,-5.6172,-5.6714,-5.4365,-4.874,-4.4214,0.0,0.0,0.0,0.0,0.0,0.0,0.0,0.0,0.0,0.0,0.0,0.0,0.0,0.0,0.0,0.0,0.0,0.0,0.0,0.0,0.0,0.0,0.0,0.0,0.0,0.0,0.0,0.0,0.0,0.0,0.0,0.0,0.0,0.0,0.0,0.0,0.0,0.0,0.0,0.0,0.0,0.0,0.0,0.0,0.0,0.0,0.0,0.0,0.0,0.0,0.0,0.0,0.0,0.0,0.0,0.0,0.0,0.0,0.0,0.0,0.0,0.0,0.0,0.0,0.0,0.0,0.0,0.0,0.0,0.0,0.0,0.0,0.0,0.0,0.0,0.0,0.0,0.0,0.0,0.0,0.0,0.0,0.0,0.0,0.0,0.0,0.0,0.0,0.0,0.0,0.0,0.0,0.0,0.0,0.0,0.0,0.0,0.0,0.0,0.0,0.0,0.0,0.0,0.0,0.0,0.0,0.0,0.0,-5.0078,-5.4453,-5.8281,-5.9365,-5.7435,-5.2103,-4.7135,0.0,0.0,0.0,0.0,0.0,0.0,0.0,0.0,0.0,0.0,0.0,0.0,0.0,0.0,0.0,0.0,0.0,0.0,0.0,0.0,0.0,0.0,0.0,0.0,0.0,0.0,0.0,0.0,0.0,0.0,0.0,0.0,0.0,0.0,0.0,0.0,0.0,0.0,0.0,0.0,0.0,0.0,0.0,0.0,0.0,0.0,0.0,0.0,0.0,0.0,0.0,0.0,0.0,0.0,0.0,0.0,0.0,0.0,0.0,0.0,0.0,0.0,0.0,0.0,0.0,0.0,0.0,0.0,0.0,0.0,0.0,0.0,0.0,0.0,0.0,0.0,0.0,0.0,0.0,0.0,0.0,0.0,0.0,0.0,0.0,0.0,0.0,0.0,0.0,0.0,0.0,0.0,0.0,0.0,0.0,0.0,0.0,0.0,0.0,0.0,0.0,0.0,0.0,0.0,0.0,0.0,0.0,0.0,-5.2031,-5.5547,-5.9609,-6.0721,-5.8719,-5.538,-4.9976,0.0,0.0,0.0,0.0,0.0,0.0,0.0,0.0,0.0,0.0,0.0,0.0,0.0,0.0,0.0,0.0,0.0,0.0,0.0,0.0,0.0,0.0,0.0,0.0,0.0,0.0,0.0,0.0,0.0,0.0,0.0,0.0,0.0,0.0,0.0,0.0,0.0,0.0,0.0,0.0,0.0,0.0,0.0,0.0,0.0,0.0,0.0,0.0,0.0,0.0,0.0,0.0,0.0,0.0,0.0,0.0,0.0,0.0,0.0,0.0,0.0,0.0,0.0,0.0,0.0,0.0,0.0,0.0,0.0,0.0,0.0,0.0,0.0,0.0,0.0,0.0,0.0,0.0,0.0,0.0,0.0,0.0,0.0,0.0,0.0,0.0,0.0,0.0,0.0,0.0,0.0,0.0,0.0,0.0,0.0,0.0,0.0,0.0,0.0,0.0,0.0,0.0,0.0,0.0,0.0,0.0,0.0,0.0,-5.3164,-5.7265,-6.0195,-6.076,-5.8748,-5.4762,-4.9859,0.0,0.0,0.0,0.0,0.0,0.0,0.0,0.0,0.0,0.0,0.0,0.0,0.0,0.0,0.0,0.0,0.0,0.0,0.0,0.0,0.0,0.0,0.0,0.0,0.0,0.0,0.0,0.0,0.0,0.0,0.0,0.0,0.0,0.0,0.0,0.0,0.0,0.0,0.0,0.0,0.0,0.0,0.0,0.0,0.0,0.0,0.0,0.0,-3.0312,0.0,0.0,0.0,0.0,0.0,0.0,0.0,0.0,0.0,0.0,0.0,0.0,0.0,0.0,0.0,0.0,0.0,0.0,0.0,0.0,0.0,0.0,0.0,0.0,0.0,0.0,0.0,0.0,0.0,0.0,0.0,0.0,0.0,0.0,0.0,0.0,0.0,0.0,0.0,0.0,0.0,0.0,0.0,0.0,0.0,0.0,0.0,0.0,0.0,0.0,0.0,0.0,0.0,0.0,0.0,0.0,0.0,0.0,0.0,-5.3516,-5.7773,-5.9526,-5.9641,-5.8047,-5.4686,-5.0384,0.0,0.0,0.0,0.0,0.0,0.0,0.0,0.0,0.0,0.0,0.0,0.0,0.0,0.0,0.0,0.0,0.0,0.0,0.0,0.0,0.0,0.0,0.0,0.0,0.0,0.0,0.0,0.0,0.0,0.0,0.0,0.0,0.0,0.0,0.0,0.0,0.0,0.0,0.0,0.0,0.0,0.0,0.0,0.0,0.0,0.0,0.0,0.0,0.0,0.0,0.0,0.0,0.0,0.0,0.0,0.0,0.0,0.0,0.0,0.0,0.0,0.0,0.0,0.0,0.0,0.0,0.0,0.0,0.0,0.0,0.0,0.0,0.0,0.0,0.0,0.0,0.0,0.0,0.0,0.0,0.0,0.0,0.0,0.0,0.0,0.0,0.0,0.0,0.0,0.0,0.0,0.0,0.0,0.0,0.0,0.0,0.0,0.0,0.0,0.0,0.0,0.0,0.0,0.0,0.0,0.0,0.0,-4.9141,-5.3516,-5.8047,-5.8687,-5.8425,-5.7414,-5.4822,-5.0952,-4.5804,0.0,0.0,0.0,0.0,0.0,0.0,0.0,0.0,0.0,0.0,0.0,0.0,0.0,0.0,0.0,0.0,0.0,0.0,0.0,0.0,0.0,0.0,0.0,0.0,0.0,0.0,0.0,0.0,0.0,0.0,0.0,0.0,0.0,0.0,0.0,0.0,0.0,0.0,-2.8891,-3.2107,0.0,0.0,0.0,0.0,0.0,0.0,0.0,0.0,-3.0781,0.0,0.0,0.0,0.0,0.0,0.0,0.0,0.0,0.0,0.0,0.0,0.0,0.0,0.0,0.0,0.0,0.0,0.0,0.0,0.0,0.0,0.0,0.0,0.0,0.0,0.0,0.0,0.0,0.0,0.0,0.0,0.0,0.0,0.0,0.0,0.0,0.0,0.0,0.0,0.0,0.0,0.0,0.0,0.0,0.0,0.0,0.0,0.0,0.0,0.0,0.0,0.0,0.0,0.0,0.0,0.0,-5.1016,-5.0664,-5.3516,-5.9765,-5.9275,-5.8425,-5.7375,-5.4783,-5.0952,-4.5766,0.0,0.0,0.0,0.0,0.0,0.0,0.0,0.0,0.0,0.0,0.0,0.0,0.0,0.0,0.0,0.0,0.0,0.0,0.0,0.0,0.0,0.0,0.0,0.0,0.0,0.0,0.0,0.0,0.0,0.0,0.0,0.0,0.0,0.0,0.0,0.0,0.0,0.0,0.0,-3.6015,-3.7539,0.0,0.0,0.0,0.0,0.0,0.0,0.0,0.0,-3.1914,0.0,0.0,0.0,0.0,0.0,0.0,0.0,0.0,0.0,0.0,0.0,0.0,0.0,0.0,0.0,0.0,0.0,0.0,0.0,0.0,0.0,0.0,0.0,0.0,0.0,0.0,0.0,0.0,0.0,0.0,0.0,0.0,0.0,0.0,0.0,0.0,0.0,0.0,0.0,0.0,0.0,0.0,0.0,0.0,0.0,0.0,0.0,0.0,0.0,0.0,0.0,0.0,0.0,0.0,0.0,-4.9531,-5.1016,-5.418,-5.9492,-5.8267,-5.7273,-5.6703,-5.2824,-4.8844,0.0,0.0,0.0,0.0,0.0,0.0,0.0,0.0,0.0,0.0,0.0,0.0,0.0,0.0,0.0,0.0,0.0,0.0,0.0,0.0,0.0,0.0,0.0,0.0,0.0,0.0,0.0,0.0,0.0,0.0,0.0,0.0,0.0,0.0,0.0,0.0,0.0,0.0,0.0,0.0,-3.6953,-3.8594,-3.8633,0.0,0.0,0.0,0.0,0.0,0.0,-3.3555,-3.2617,0.0,0.0,0.0,0.0,0.0,0.0,0.0,0.0,0.0,0.0,0.0,0.0,0.0,0.0,0.0,0.0,0.0,0.0,0.0,0.0,0.0,0.0,0.0,0.0,0.0,0.0,0.0,0.0,0.0,0.0,0.0,0.0,0.0,0.0,0.0,0.0,0.0,0.0,0.0,0.0,0.0,0.0,0.0,0.0,0.0,0.0,0.0,0.0,0.0,0.0,0.0,0.0,0.0,0.0,0.0,-4.7422,-5.0625,-5.4492,-5.8867,-5.7255,-5.623,-5.6108,-5.1285,-4.7278,0.0,0.0,0.0,0.0,0.0,0.0,0.0,0.0,0.0,0.0,0.0,0.0,0.0,0.0,0.0,0.0,0.0,0.0,0.0,0.0,0.0,0.0,0.0,0.0,0.0,0.0,0.0,0.0,0.0,0.0,0.0,0.0,0.0,0.0,0.0,0.0,0.0,0.0,0.0,0.0,0.0,-3.9922,-3.9883,-3.8867,0.0,0.0,0.0,0.0,-3.5859,-3.5547,0.0,0.0,0.0,0.0,0.0,0.0,0.0,0.0,0.0,0.0,0.0,0.0,0.0,0.0,0.0,0.0,0.0,0.0,0.0,0.0,0.0,0.0,0.0,0.0,0.0,0.0,0.0,0.0,0.0,0.0,0.0,0.0,0.0,0.0,0.0,0.0,0.0,0.0,0.0,0.0,0.0,0.0,0.0,0.0,0.0,0.0,0.0,0.0,0.0,0.0,0.0,0.0,0.0,0.0,0.0,0.0,-4.7305,-4.9492,-5.332,-5.875,-5.7251,-5.623,-5.6147,-5.2437,-4.848,0.0,0.0,0.0,0.0,0.0,0.0,0.0,0.0,0.0,0.0,0.0,0.0,0.0,0.0,0.0,0.0,0.0,0.0,0.0,0.0,0.0,0.0,0.0,0.0,0.0,0.0,0.0,0.0,0.0,0.0,0.0,0.0,0.0,0.0,0.0,0.0,0.0,0.0,0.0,0.0,0.0,-4.3203,-4.0312,-4.0391,-4.0078,0.0,0.0,-3.8594,-4.0195,-4.0937,0.0,0.0,0.0,0.0,0.0,0.0,0.0,0.0,0.0,0.0,0.0,0.0,0.0,0.0,0.0,0.0,0.0,0.0,0.0,0.0,0.0,0.0,0.0,0.0,0.0,0.0,0.0,0.0,0.0,0.0,0.0,0.0,0.0,0.0,0.0,0.0,0.0,0.0,0.0,0.0,0.0,0.0,0.0,0.0,0.0,0.0,0.0,0.0,0.0,0.0,0.0,0.0,0.0,0.0,0.0,-4.0195,-4.6719,-5.0469,-5.4336,-5.8242,-5.6978,-5.5963,-5.5457,-5.048,-4.6018,0.0,0.0,0.0,0.0,0.0,0.0,0.0,0.0,0.0,0.0,0.0,0.0,0.0,0.0,0.0,0.0,0.0,0.0,0.0,0.0,0.0,0.0,0.0,0.0,0.0,0.0,0.0,0.0,0.0,0.0,0.0,0.0,0.0,0.0,0.0,0.0,0.0,0.0,0.0,0.0,0.0,0.0,-4.1445,-4.207,0.0,0.0,0.0,-4.1016,-4.1758,0.0,0.0,0.0,0.0,0.0,0.0,0.0,0.0,0.0,0.0,0.0,0.0,0.0,0.0,0.0,0.0,0.0,0.0,0.0,0.0,0.0,0.0,0.0,0.0,0.0,0.0,0.0,0.0,0.0,0.0,0.0,0.0,0.0,0.0,0.0,0.0,0.0,0.0,0.0,0.0,0.0,0.0,0.0,0.0,0.0,0.0,0.0,0.0,0.0,0.0,0.0,0.0,0.0,0.0,0.0,0.0,0.0,-4.5937,-5.125,-5.5234,-5.773,-5.6773,-5.5753,-5.478,-4.9444,0.0,0.0,0.0,0.0,0.0,0.0,0.0,0.0,0.0,0.0,0.0,0.0,0.0,0.0,0.0,0.0,0.0,0.0,0.0,0.0,0.0,0.0,0.0,0.0,0.0,0.0,0.0,-2.1199,0.0,0.0,0.0,0.0,0.0,0.0,0.0,0.0,0.0,0.0,0.0,0.0,0.0,0.0,-4.1953,-4.2344,-4.3516,-4.418,0.0,0.0,-4.3125,-4.332,-4.375,-4.2266,0.0,0.0,0.0,0.0,0.0,0.0,0.0,0.0,0.0,0.0,0.0,0.0,0.0,0.0,0.0,0.0,0.0,0.0,0.0,0.0,0.0,0.0,0.0,0.0,0.0,0.0,0.0,0.0,0.0,0.0,0.0,0.0,0.0,0.0,0.0,0.0,0.0,0.0,0.0,0.0,0.0,0.0,0.0,0.0,0.0,0.0,0.0,0.0,0.0,0.0,0.0,0.0,0.0,0.0,0.0,-4.5117,-5.0976,-5.519,-5.757,-5.6732,-5.574,-5.4684,-5.1091,-4.6394,0.0,0.0,0.0,0.0,0.0,0.0,0.0,0.0,0.0,0.0,0.0,0.0,0.0,0.0,0.0,0.0,0.0,0.0,0.0,0.0,0.0,0.0,0.0,0.0,0.0,0.0,0.0,0.0,0.0,0.0,0.0,0.0,0.0,0.0,0.0,0.0,0.0,0.0,0.0,0.0,0.0,-4.3242,-4.25,-4.4531,-4.6406,0.0,0.0,-4.5117,-4.5898,-4.7383,-4.5898,-3.8437,0.0,0.0,0.0,0.0,0.0,0.0,0.0,0.0,0.0,0.0,0.0,0.0,0.0,0.0,0.0,0.0,0.0,0.0,0.0,0.0,0.0,0.0,0.0,0.0,0.0,0.0,0.0,0.0,0.0,0.0,0.0,0.0,0.0,0.0,0.0,0.0,0.0,0.0,0.0,0.0,0.0,0.0,0.0,0.0,0.0,0.0,0.0,0.0,0.0,0.0,0.0,0.0,0.0,-4.0469,-4.4219,-5.0664,-5.4954,-5.6782,-5.5914,-5.4923,-5.3933,-5.0465,-4.5817,0.0,0.0,0.0,0.0,0.0,0.0,0.0,0.0,0.0,0.0,0.0,0.0,0.0,0.0,0.0,0.0,0.0,0.0,0.0,0.0,0.0,0.0,0.0,0.0,0.0,0.0,0.0,0.0,-2.4892,-2.5141,-2.5144,0.0,0.0,0.0,0.0,0.0,0.0,0.0,0.0,0.0,0.0,-4.3359,-4.4609,-4.6133,0.0,0.0,-4.7031,-4.6523,-4.6328,-4.6406,-4.457,-3.8984,-3.6758,0.0,0.0,0.0,0.0,0.0,0.0,0.0,0.0,0.0,0.0,0.0,0.0,0.0,0.0,0.0,0.0,0.0,0.0,0.0,0.0,0.0,0.0,0.0,0.0,0.0,0.0,0.0,0.0,0.0,0.0,0.0,0.0,0.0,0.0,0.0,0.0,0.0,0.0,0.0,0.0,0.0,0.0,0.0,0.0,0.0,0.0,0.0,0.0,0.0,0.0,0.0,0.0,-3.9883,-4.332,-4.9844,-5.3974,-5.55,-5.4883,-5.4005,-5.2909,-4.9803,-4.5547,0.0,0.0,0.0,0.0,0.0,0.0,0.0,0.0,0.0,0.0,0.0,0.0,0.0,0.0,0.0,0.0,0.0,0.0,0.0,0.0,0.0,0.0,0.0,0.0,0.0,0.0,0.0,0.0,-2.5614,-2.566,-2.5703,0.0,0.0,0.0,0.0,0.0,0.0,0.0,0.0,0.0,0.0,-4.3359,-4.5937,-4.7031,-4.7695,-4.7969,-4.7305,-4.668,-4.6328,-4.5586,-4.3633,-3.9648,0.0,0.0,0.0,0.0,0.0,0.0,0.0,0.0,0.0,0.0,0.0,0.0,0.0,0.0,0.0,0.0,0.0,0.0,0.0,0.0,0.0,0.0,0.0,0.0,0.0,0.0,0.0,0.0,0.0,0.0,-3.0574,0.0,0.0,0.0,0.0,0.0,0.0,0.0,0.0,0.0,0.0,0.0,0.0,0.0,0.0,0.0,0.0,0.0,0.0,0.0,0.0,0.0,0.0,-3.9062,-4.2461,-4.8437,-5.2205,-5.3638,-5.3662,-5.3087,-5.1924,-4.9433,-4.6086,-4.1777,0.0,0.0,0.0,0.0,0.0,0.0,0.0,0.0,0.0,0.0,0.0,0.0,0.0,0.0,0.0,0.0,0.0,0.0,0.0,0.0,0.0,0.0,0.0,0.0,0.0,0.0,-2.5716,-2.566,-2.5742,0.0,0.0,0.0,0.0,0.0,0.0,0.0,0.0,0.0,0.0,-4.0234,-4.3359,-4.5976,-4.7031,-4.7891,-4.8711,-4.6719,-4.5391,-4.6172,-4.5547,-4.3828,0.0,0.0,0.0,0.0,0.0,0.0,0.0,0.0,0.0,0.0,0.0,0.0,0.0,0.0,0.0,0.0,0.0,0.0,0.0,0.0,0.0,0.0,0.0,0.0,0.0,0.0,0.0,-4.0585,-3.8942,0.0,0.0,0.0,0.0,0.0,0.0,0.0,0.0,0.0,0.0,0.0,-4.4023,-4.5207,0.0,0.0,0.0,0.0,0.0,0.0,0.0,0.0,0.0,0.0,0.0,0.0,-3.9258,-4.3281,-4.8633,-5.2126,-5.3517,-5.3044,-5.2195,-5.1106,-4.9163,-4.5316,-3.9469,0.0,0.0,0.0,0.0,0.0,0.0,0.0,0.0,0.0,0.0,0.0,0.0,0.0,0.0,0.0,0.0,0.0,0.0,0.0,0.0,0.0,0.0,0.0,0.0,0.0,-2.6771,0.0,0.0,0.0,0.0,0.0,0.0,0.0,0.0,0.0,0.0,0.0,-3.5469,-3.8633,-4.1992,-4.4844,-4.6875,-4.7422,-4.7695,0.0,0.0,0.0,0.0,0.0,0.0,0.0,0.0,0.0,0.0,0.0,0.0,0.0,0.0,-3.8789,-3.4219,-3.293,-3.2578,-3.2578,0.0,0.0,0.0,0.0,0.0,0.0,0.0,0.0,0.0,0.0,0.0,0.0,0.0,0.0,-4.4883,0.0,-4.2261,0.0,0.0,0.0,0.0,0.0,0.0,0.0,0.0,-4.6636,-4.8269,-4.8452,-4.9528,-4.8718,0.0,-4.4815,-4.1259,0.0,0.0,0.0,0.0,0.0,0.0,0.0,0.0,-3.9726,-4.3711,-4.8474,-5.1523,-5.2621,-5.183,-5.1009,-5.0221,-4.8279,-4.4624,-3.9046,-3.5122,-3.1846,0.0,0.0,0.0,0.0,0.0,0.0,0.0,0.0,0.0,0.0,0.0,0.0,0.0,0.0,0.0,0.0,0.0,0.0,0.0,0.0,0.0,0.0,0.0,-2.7066,0.0,0.0,0.0,0.0,0.0,0.0,0.0,0.0,0.0,-3.1406,-3.4609,-3.7969,-4.082,-4.3398,-4.5508,-4.6953,0.0,0.0,0.0,0.0,0.0,0.0,0.0,-4.4297,-4.3437,-4.2422,-4.1328,-4.0117,-4.1367,-4.2226,-4.1367,0.0,0.0,-3.7812,-3.6523,-3.6094,-3.6133,-3.6758,-3.7187,-3.6601,-3.7656,-3.8476,0.0,0.0,0.0,0.0,0.0,0.0,0.0,0.0,-5.0,-4.918,0.0,-4.6406,0.0,0.0,0.0,0.0,0.0,0.0,0.0,0.0,-5.2298,-5.389,-5.2519,-5.2349,-5.1908,-5.1277,-5.0428,-4.8237,-4.4636,-3.8305,0.0,0.0,0.0,0.0,0.0,0.0,-4.0351,-4.3828,-4.7949,-5.0348,-5.1016,-5.0105,-4.9529,-4.925,-4.6855,-4.394,-4.0669,-3.8777,-3.6007,-3.1929,-2.9352,0.0,0.0,0.0,0.0,0.0,0.0,0.0,0.0,0.0,0.0,0.0,0.0,0.0,0.0,0.0,0.0,0.0,0.0,0.0,0.0,-2.6482,0.0,0.0,0.0,0.0,0.0,0.0,0.0,0.0,0.0,0.0,-3.5039,-3.7187,-4.0,-4.3281,0.0,0.0,0.0,0.0,-4.6367,-4.6367,-4.5664,-4.5195,-4.5195,-4.582,-4.6055,-4.5273,0.0,0.0,-4.3125,-4.3945,-4.4297,-4.1875,-4.2812,-4.3789,-4.3672,-4.2148,-4.1133,-4.1094,-4.0508,-4.0078,-4.0117,-4.0781,-4.1406,-6.1601,0.0,0.0,0.0,0.0,-5.3984,-5.5469,-5.8594,-5.6328,-5.4648,-5.3359,-5.1367,0.0,0.0,0.0,0.0,0.0,0.0,-4.9296,-5.1196,-5.3057,-5.4388,-5.523,-5.5202,-5.4749,-5.3969,-5.3121,-5.1247,-4.8467,-4.593,-4.1014,-3.3949,0.0,0.0,0.0,0.0,-4.2148,-4.5508,-4.8592,-5.0163,-5.0174,-4.9863,-4.9052,-4.7634,-4.5163,-4.3047,-4.147,-3.9238,-3.6622,-3.3622,-3.166,0.0,0.0,0.0,0.0,0.0,0.0,0.0,0.0,0.0,0.0,0.0,0.0,0.0,0.0,0.0,0.0,0.0,0.0,0.0,-2.6443,-2.7422,-2.8008,0.0,0.0,0.0,0.0,0.0,0.0,0.0,0.0,0.0,-3.9219,-4.1016,-4.2812,0.0,0.0,-4.6016,-4.625,-4.6836,-4.7226,-4.7226,0.0,0.0,0.0,-4.7461,-4.7344,-4.7734,-4.8203,-4.7969,-4.6367,-4.6523,-4.6406,-4.5039,-4.5234,-4.5547,-4.5469,-4.418,-4.3047,-4.3008,-4.3242,-4.3516,-4.3594,-4.4219,-4.4805,-6.75,-6.2695,-5.9258,-5.8437,-5.9297,-5.8281,-5.9726,-6.2578,-6.039,-5.8984,-5.8203,-5.582,-5.2656,-4.9023,-4.8203,0.0,0.0,0.0,-5.1823,-5.366,-5.4301,-5.5229,-5.6297,-5.6301,-5.6085,-5.5569,-5.4781,-5.3416,-5.1477,-5.0243,-4.6098,-3.9275,0.0,0.0,-3.7804,-4.1015,-4.4062,-4.6758,-4.8932,-4.9976,-4.9789,-4.9054,-4.7756,-4.5911,-4.4355,-4.3008,-4.1816,-4.0315,-3.8161,-3.5315,-3.393,-3.15,0.0,0.0,0.0,0.0,0.0,0.0,0.0,0.0,0.0,0.0,0.0,-2.277,-2.1426,0.0,0.0,0.0,-2.5726,-2.7419,-2.8437,-2.9609,0.0,0.0,0.0,0.0,0.0,0.0,0.0,-3.5586,-3.8594,-4.1016,-4.207,-4.3984,-4.543,-4.5937,-4.6758,-4.7344,-4.7344,0.0,-4.8125,-4.8125,-4.8555,-4.8906,-4.8906,-4.875,-4.8906,-4.9766,-4.9883,-4.9609,-4.8789,-4.8359,-4.7812,-4.7031,-4.6523,-4.6289,-4.6289,-4.543,-4.4726,-4.4726,-4.5156,-4.5508,-4.5508,-4.5937,-4.6289,-7.1562,-7.0195,-6.4648,-6.2305,-6.2187,-6.207,-6.2969,-6.4336,-6.2656,-6.2305,-6.2734,-5.9531,-5.7148,-5.5312,-5.2148,0.0,0.0,-5.3476,-5.4524,-5.5215,-5.5823,-5.6108,-5.6175,-5.6108,-5.6217,-5.6344,-5.5696,-5.4838,-5.3743,-5.2122,-4.9613,-4.6309,-4.4017,-4.2769,-4.2504,-4.4254,-4.6015,-4.7578,-4.8989,-4.9672,-4.9532,-4.7704,-4.5932,-4.4355,-4.4085,-4.3278,-4.1777,-4.1546,-4.0,-3.6885,-3.5885,-3.3545,-2.955,0.0,0.0,0.0,0.0,0.0,0.0,0.0,0.0,0.0,0.0,0.0,0.0,0.0,0.0,0.0,-2.9451,0.0,-3.1016,-3.2461,0.0,0.0,0.0,-3.3398,-3.2851,-3.5664,-3.7656,-3.7695,0.0,0.0,-4.3828,0.0,-4.7695,-4.7695,-4.8398,-4.8906,-4.8906,-4.8945,-4.8984,-4.9023,-4.9062,-4.9101,-4.9297,-4.9766,-5.043,-5.1094,-5.1406,-5.1016,-5.0234,-4.9531,-4.8711,-4.7695,-4.6953,-4.6367,-4.6328,-4.6211,-4.6289,-4.6211,-4.625,-4.6289,-4.625,-4.6289,-4.6289,-7.207,-7.0547,-6.8476,-6.7265,-6.6523,-6.5234,-6.5273,-6.6094,-6.4453,-6.3437,-6.2851,-6.0742,-5.8867,-5.7187,-5.5742,-5.5195,-5.539,-5.5781,-5.6008,-5.6035,-5.5476,-5.5474,-5.5923,-5.5441,-5.559,-5.6212,-5.6273,-5.5424,-5.3826,-5.3458,-5.1488,-4.8074,-4.7523,-4.6015,-4.3552,-4.5781,-4.7146,-4.7437,-4.8428,-4.8585,-4.7726,-4.5897,-4.4701,-4.4278,-4.2439,-4.1208,-4.0777,-3.9546,-3.8238,-3.6769,-3.5315,-3.3468,-3.1198,-2.8236,0.0,0.0,0.0,0.0,0.0,0.0,0.0,0.0,0.0,-2.6011,-2.328,0.0,-2.6969,0.0,-3.0351,-3.1875,-3.1875,-3.2812,0.0,0.0,-3.4883,-3.6094,-3.7851,-3.9375,-4.0508,-4.1133,-4.3242,-4.4687,-4.4687,-4.6953,-4.8594,-4.8594,-4.8789,-4.8906,-4.8906,-4.9492,-4.9883,-4.9922,-5.0351,-5.082,-5.0781,-5.0937,-5.1172,-5.1367,-5.1406,-5.1133,-5.0351,-5.0039,-4.9414,-4.7969,-4.7461,-4.7031,-4.6406,-4.6289,-4.6289,-4.6289,-4.6289,-4.6289,-4.6289,-4.6289,-4.6289,-7.25,-7.1172,-7.0,-6.918,-6.8594,-6.6914,-6.6445,-6.6758,-6.5039,-6.4023,-6.3437,-6.1328,-5.9492,-5.789,-5.7422,-5.6953,-5.6601,-5.6518,-5.6448,-5.625,-5.5275,-5.4989,-5.5343,-5.5034,-5.5176,-5.5697,-5.5924,-5.5272,-5.3932,-5.3544,-5.2129,-4.983,-4.9902,-4.8824,-4.6719,-4.7266,-4.7534,-4.7418,-4.7785,-4.7494,-4.6421,-4.5046,-4.3932,-4.3162,-4.1816,-4.0554,-3.9431,-3.8469,-3.743,-3.6231,-3.4891,-3.3436,-3.1775,-2.9538,-2.7731,0.0,0.0,0.0,0.0,0.0,0.0,0.0,0.0,0.0,0.0,0.0,-2.9214,0.0,-3.2578,-3.4062,-3.4414,-3.5586,-3.6484,-3.6953,-3.8125,-3.9453,-4.0859,-4.2109,-4.3086,-4.3516,-4.4726,-4.5586,-4.5625,-4.75,-4.8906,-4.8906,-4.957,-5.0,-5.0039,-5.043,-5.0742,-5.0781,-5.1094,-5.1406,-5.1406,-5.1406,-5.1406,-5.1406,-5.1406,-5.125,-5.0781,-5.043,-4.9726,-4.8476,-4.7891,-4.7344,-4.6523,-4.6289,-4.6289,-4.6289,-4.6289,-4.6289,-4.6289,-4.6289,-4.6289,-7.2617,-7.168,-7.0156,-6.9375,-6.914,-6.7578,-6.6914,-6.6758,-6.5039,-6.418,-6.3828,-6.1445,-5.9531,-5.8086,-5.7969,-5.7422,-5.66,-5.6454,-5.6262,-5.5969,-5.5007,-5.4529,-5.4552,-5.4562,-5.4706,-5.4945,-5.5072,-5.4687,-5.3828,-5.2952,-5.2094,-5.1289,-5.1156,-5.0687,-4.9844,-4.8359,-4.7455,-4.7211,-4.7012,-4.6491,-4.5603,-4.4662,-4.3431,-4.2047,-4.1538,-4.0231,-3.7969,-3.7738,-3.6969,-3.5423,-3.4584,-3.3474,-3.1929,-3.0923,-2.9654,0.0,-2.7274,0.0,0.0,0.0,0.0,0.0,0.0,0.0,0.0,-3.0975,-3.2266,-3.3594,-3.5312,-3.6641,-3.7422,-3.9023,-4.0078,-4.0117,-4.168,-4.2734,-4.2812,-4.418,-4.5156,-4.5195,-4.582,-4.6289,-4.6328,-4.7734,-4.875,-4.8945,-5.0117,-5.1055,-5.1328,-5.1328,-5.1328,-5.1406,-5.1406,-5.1406,-5.1406,-5.1406,-5.1406,-5.1406,-5.1406,-5.1406,-5.1367,-5.082,-5.0039,-4.9062,-4.8281,-4.75,-4.6484,-4.6289,-4.6289,-4.6289,-4.6289,-4.6289,-4.6289,-4.6289,-4.6289,-7.1719,-7.0859,-6.9844,-6.9062,-6.8359,-6.7344,-6.6914,-6.6758,-6.5039,-6.3515,-6.2109,-6.0937,-5.9883,-5.8906,-5.8203,-5.7378,-5.6448,-5.6397,-5.587,-5.4946,-5.4056,-5.3646,-5.36,-5.3052,-5.3221,-5.4045,-5.4173,-5.3789,-5.2969,-5.2733,-5.1874,-5.0469,-5.039,-4.9648,-4.8164,0.0,0.0,0.0,-4.5982,-4.5791,-4.5556,-4.4085,-4.3162,-4.2777,-4.0162,0.0,-3.7,-3.6308,-3.55,-3.4507,-3.4282,0.0,0.0,0.0,0.0,0.0,0.0,0.0,0.0,0.0,0.0,0.0,-3.2138,-3.1977,-3.1796,-3.4375,-3.5937,-3.5586,-3.7109,-3.8164,-3.8359,-3.9922,-4.0937,-4.1055,-4.3086,-4.4492,-4.4531,-4.543,-4.6055,-4.6055,-4.6211,-4.6289,-4.6367,-4.7226,-4.8125,-4.8828,-4.9805,-5.0664,-5.1328,-5.1406,-5.1406,-5.1406,-5.1406,-5.1406,-5.1406,-5.1406,-5.1406,-5.1406,-5.1406,-5.1406,-5.1328,-5.1289,-5.0586,-4.918,-4.875,-4.8086,-4.6601,-4.6289,-4.6289,-4.6289,-4.6289,-4.6289,-4.6289,-4.6289,-4.6289,-7.1484,0.0,-6.9765,-6.8945,0.0,-6.7265,-6.668,-6.6172,-6.4883,-6.332,-6.168,-6.125,-6.0351,-5.918,-5.875,-5.7767,-5.6389,-5.6347,-5.5719,-5.4661,-5.3801,-5.3226,-5.2842,-5.2533,-5.2707,-5.3227,-5.3319,-5.3125,-5.2695,-5.2266,-5.1601,-5.0781,-5.082,-5.0156,-4.8906,-4.7873,-4.6916,-4.5918,-4.5694,-4.5594,-4.5518,-4.397,-4.2893,-4.2431,0.0,0.0,0.0,0.0,0.0,0.0,0.0,0.0,0.0,0.0,0.0,-3.0549,-3.0829,-3.1096,-3.1207,-3.2,-3.3232,-3.5056,-3.6038,-3.6052,-3.4805,-3.6719,-3.793,-3.793,-3.875,-3.957,-4.0391,-4.1289,-4.2148,-4.3008,-4.4219,-4.5156,-4.5586,-4.6016,-4.6289,-4.6289,-4.6289,-4.6289,-4.6328,-4.7461,-4.832,-4.8906,-5.0,-5.0898,-5.1289,-5.1406,-5.1406,-5.1406,-5.1406,-5.1406,-5.1406,-5.1406,-5.1406,-5.1406,-5.1406,-5.125,-5.0859,-5.0781,-5.0234,-4.8672,-4.8281,-4.7812,-4.668,-4.6289,-4.6289,-4.6289,-4.6289,-4.6289,-4.6289,-4.6289,-4.6289,-7.125,-7.039,-6.957,-6.8711,-6.793,-6.7187,-6.6328,-6.5312,0.0,0.0,0.0,-6.1523,-6.0625,-5.9219,-5.9022,-5.7992,-5.6404,-5.6217,-5.5521,-5.4412,-5.3731,-5.2919,-5.2101,-5.222,-5.2324,-5.2461,-5.2461,-5.25,-5.2461,-5.1758,-5.1406,-5.1406,-5.1406,-5.0898,-4.988,-4.7966,-4.6614,-4.5915,-4.5672,-4.5594,-4.5556,-4.397,-4.2739,-4.2047,-4.0893,-3.9238,-3.7038,-3.6923,-3.6199,-3.4744,-3.4083,-3.3737,-3.3583,-3.3577,-3.3583,-3.3548,-3.3701,-3.4144,-3.4889,-3.5101,-3.5916,-3.7561,-3.9177,-3.9453,-3.7851,-3.8555,-3.9336,-4.0078,-4.0273,-4.0898,-4.2266,-4.2695,-4.3437,-4.4883,-4.5117,-4.5508,-4.6172,-4.6289,-4.6289,-4.6289,-4.6289,-4.6289,-4.6328,-4.7461,-4.8594,-4.8984,-4.9961,-5.1133,-5.1328,-5.1406,-5.1406,-5.1406,-5.1406,-5.1406,-5.1406,-5.1406,-5.1406,-5.1406,-5.1406,-5.1094,-5.043,-5.0195,-4.9492,-4.8008,-4.7617,-4.7266,-4.6523,-4.6289,-4.6289,-4.6289,-4.6289,-4.6289,-4.6289,-4.6289,-4.6289,-7.039,-6.9531,-6.8711,-6.7851,-6.707,-6.6953,-6.5976,-6.4453,-6.3555,-6.2617,-6.164,-6.0898,-6.0078,-5.914,-5.83,-5.7301,-5.6256,-5.6012,-5.5036,0.0,-5.3395,-5.2647,-5.1327,-5.1362,-5.1464,-5.1562,-5.1562,-5.1562,-5.1562,-5.1445,-5.1406,-5.1406,-5.1406,-5.0543,-4.8874,-4.7037,-4.5983,-4.5815,-4.568,-4.5594,-4.5556,-4.397,-4.3047,-4.2816,-4.0662,-3.8969,-3.7892,-3.7815,-3.7353,-3.643,-3.6969,-3.693,-3.6238,-3.6232,-3.6017,-3.5389,-3.5994,-3.6515,-3.6648,-3.7398,-3.8337,-3.9413,-4.0429,-4.0586,-3.9687,-4.0351,-4.0898,-4.1055,-4.1601,-4.2148,-4.2461,-4.3711,-4.4648,-4.5039,-4.5703,-4.6172,-4.6289,-4.6289,-4.6289,-4.6289,-4.6289,-4.6289,-4.6328,-4.6641,-4.75,-4.8555,-4.9453,-4.9883,-5.1055,-5.1406,-5.1406,-5.1406,-5.1406,-5.1406,-5.1406,-5.1406,-5.1406,-5.1406,-5.1406,-5.1094,-5.0234,-5.0078,-4.9453,-4.7891,-4.7539,-4.7187,-4.6445,-4.6289,-4.6289,-4.6289,-4.6289,-4.6289,-4.6289,-4.6289,-4.6289,-6.9922,-6.8789,-6.8359,-6.7695,-6.6836,-6.5898,-6.4765,-6.3555,-6.2656,-6.207,-6.164,-6.0781,-5.9961,-5.914,-5.8236,-5.7211,-5.6186,-5.6116,-5.5087,-5.3383,-5.339,-5.2615,-5.1257,-5.1188,-5.1268,-5.1406,-5.1406,-5.1406,-5.1406,-5.1406,-5.1406,-5.1328,-5.0424,-4.9462,-4.8535,-4.6785,-4.577,-4.5704,-4.5646,-4.5594,-4.5556,-4.397,-4.3085,-4.3047,-4.1046,-3.9554,-3.8738,-3.87,-3.8315,-3.743,-3.7777,-3.7815,-3.7437,-3.7537,-3.7463,-3.7104,-3.7511,-3.7997,-3.8531,-3.9403,-4.0114,-4.0586,-4.0976,-4.1055,-4.0625,-4.0976,-4.1406,-4.1797,-4.2187,-4.2812,-4.3711,-4.4531,-4.5195,-4.5664,-4.6094,-4.6289,-4.6289,-4.6289,-4.6289,-4.6289,-4.6289,-4.6289,-4.6289,-4.7109,-4.7891,-4.8828,-4.957,-5.0547,-5.1289,-5.1406,-5.1406,-5.1406,-5.1406,-5.1406,-5.1406,-5.1406,-5.1406,-5.1406,-5.1406,-5.0859,-4.9844,-4.9492,-4.875,-4.7305,-4.6914,-4.6758,-4.6328,-4.6289,-4.6289,-4.6289,-4.6289,-4.6289,-4.6289,-4.6289,-4.6289,-6.9375,-6.8203,-6.7969,-6.7422,-6.6484,-6.4961,-6.3789,-6.293,-6.207,-6.1719,-6.1562,-6.0586,-5.9765,-5.914,-5.8045,-5.7074,-5.629,-5.6207,-5.5196,-5.3557,-5.3469,-5.2684,-5.1313,-5.1215,-5.1277,-5.1367,-5.1406,-5.1406,-5.1406,-5.1406,-5.1406,-5.1211,-4.9591,-4.8638,-4.847,-4.669,-4.5747,-4.564,-4.562,-4.5594,-4.5556,-4.397,-4.3085,-4.297,-4.1401,-4.0208,-3.9631,-3.9554,-3.9246,-3.8623,-3.8546,-3.8568,-3.8618,-3.8706,-3.8805,-3.8906,-3.8978,-3.9365,-4.0156,-4.082,-4.1211,-4.1211,-4.1211,-4.1211,-4.1211,-4.1367,-4.1719,-4.2305,-4.2578,-4.3359,-4.4648,-4.5195,-4.5586,-4.6211,-4.6289,-4.6289,-4.6289,-4.6289,-4.6289,-4.6289,-4.6289,-4.6289,-4.6562,-4.7656,-4.8672,-4.9297,-5.0469,-5.1328,-5.1406,-5.1406,-5.1406,-5.1406,-5.1406,-5.1406,-5.1406,-5.1406,-5.1406,-5.1406,-5.1406,-5.0664,-4.9531,-4.8945,-4.8203,-4.6836,-4.6328,-4.6328,-4.6328,-4.6289,-4.6289,-4.6289,-4.6289,-4.6289,-4.6289,-4.6289,-4.6289,-6.8359,-6.8086,-6.7383,-6.6523,-6.5625,-6.4687,-6.375,-6.289,-6.207,-6.1719,-6.1484,-6.0,-5.9297,-5.8945,-5.7363,-5.6511,-5.6371,-5.6246,-5.5252,-5.3735,-5.3713,-5.2863,-5.1325,-5.132,-5.1406,-5.1406,-5.1406,-5.1406,-5.1406,-5.1406,-5.1406,-5.1211,-4.9591,-4.8635,-4.831,-4.6684,-4.577,-4.5789,-4.5657,-4.5594,-4.5479,-4.397,-4.3085,-4.3085,-4.1401,-4.0477,-4.0323,-4.04,-4.0362,-4.0285,-4.0208,-4.0282,-4.0397,-4.0505,-4.0578,-4.0691,-4.0851,-4.1015,-4.1055,-4.1172,-4.1211,-4.1211,-4.1211,-4.125,-4.1289,-4.1914,-4.2305,-4.2578,-4.3164,-4.4023,-4.4883,-4.5664,-4.6133,-4.625,-4.6289,-4.6289,-4.6289,-4.6289,-4.6289,-4.6289,-4.6289,-4.6289,-4.6406,-4.7266,-4.8437,-4.9922,-5.0781,-5.1406,-5.1406,-5.1406,-5.1406,-5.1406,-5.1406,-5.1406,-5.1406,-5.1406,-5.1406,-5.1406,-5.1367,-5.0586,-4.9414,-4.875,-4.832,-4.6758,-4.6289,-4.6289,-4.6289,-4.6289,-4.6289,-4.6289,-4.6289,-4.6289,-4.6289,-4.6289,-4.6289,-6.789,-6.7383,-6.707,-6.6094,-6.4805,-6.3906,-6.3047,-6.2187,-6.1875,-6.1406,-6.082,-5.9687,-5.9219,-5.9101,-5.73,-5.6502,-5.6389,-5.6315,-5.54,-5.3795,-5.3705,-5.2857,-5.1435,-5.1274,-5.132,-5.1406,-5.1406,-5.1406,-5.1406,-5.1406,-5.1365,-5.1076,-4.9463,-4.8513,-4.8266,-4.6674,-4.5815,-4.5822,-4.577,-4.5789,-4.557,-4.4029,-4.3111,-4.2978,-4.1431,-4.0516,-4.0516,-4.0516,-4.0516,-4.0516,-4.0516,-4.0559,-4.0692,-4.0757,-4.0864,-4.1012,-4.1127,-4.1211,-4.1211,-4.1211,-4.1211,-4.1211,-4.1641,-4.1914,-4.1953,-4.2695,-4.3359,-4.3867,-4.4258,-4.4844,-4.5664,-4.6094,-4.6289,-4.6289,-4.6289,-4.6289,-4.6289,-4.6289,-4.6289,-4.6289,-4.6289,-4.6289,-4.6484,-4.75,-4.9023,-5.0508,-5.125,-5.1367,-5.1406,-5.1406,-5.1406,-5.1406,-5.1406,-5.1406,-5.1406,-5.1406,-5.1406,-5.1328,-5.0976,-5.0156,-4.9219,-4.8398,-4.7695,-4.6484,-4.6328,-4.6289,-4.6289,-4.6289,-4.6289,-4.6289,-4.6289,-4.6289,-4.6289,-4.6289,-4.6289,-6.75,-6.6914,-6.664,-6.5664,-6.4258,-6.3359,-6.25,-6.1758,-6.1719,-6.1211,-6.0351,-5.9531,-5.9062,-5.8633,-5.7265,-5.6558,-5.6458,-5.6456,-5.5517,-5.3988,-5.3748,-5.2884,-5.1523,-5.1317,-5.1317,-5.1406,-5.1406,-5.1406,-5.1406,-5.1365,-5.1315,-5.0925,-4.9344,-4.8394,-4.8121,-4.6595,-4.5757,-4.5846,-4.5846,-4.5918,-4.5811,-4.4411,-4.344,-4.3152,-4.1744,-4.0791,-4.0552,-4.0546,-4.0516,-4.0516,-4.0523,-4.0597,-4.0715,-4.0805,-4.0897,-4.103,-4.113,-4.1211,-4.1211,-4.1406,-4.1523,-4.1601,-4.2305,-4.2734,-4.2891,-4.3555,-4.4297,-4.4844,-4.5195,-4.5664,-4.6133,-4.6289,-4.6289,-4.6289,-4.6289,-4.6289,-4.6289,-4.6289,-4.6289,-4.6289,-4.6289,-4.6523,-4.7109,-4.8359,-4.9805,-5.1055,-5.1367,-5.1406,-5.1406,-5.1406,-5.1406,-5.1406,-5.1406,-5.1406,-5.1406,-5.1406,-5.1367,-5.1016,-5.0547,-4.9883,-4.8867,-4.7969,-4.7344,-4.6562,-4.6406,-4.6289,-4.6289,-4.6289,-4.6289,-4.6289,-4.6289,-4.6289,-4.6289,-4.6289,-4.6289,-6.6914,-6.6758,-6.6015,-6.5117,-6.4219,-6.332,-6.25,-6.1719,-6.1719,-6.1211,-6.0312,-5.957,-5.875,-5.789,-5.6992,-5.6601,-5.6601,-5.6562,-5.5624,-5.4062,-5.3943,-5.3046,-5.1445,-5.1406,-5.1406,-5.1406,-5.1406,-5.1406,-5.1367,-5.127,-5.1206,-5.1076,-4.9254,-4.8315,-4.8034,-4.6545,-4.574,-4.5867,-4.5859,-4.5957,-4.6121,-4.5192,-4.4241,-4.338,-4.241,-4.1478,-4.0784,-4.0574,-4.0523,-4.0516,-4.0597,-4.0715,-4.0805,-4.0897,-4.1072,-4.1171,-4.1211,-4.1211,-4.1328,-4.1953,-4.2344,-4.2461,-4.3164,-4.3633,-4.3711,-4.4453,-4.4961,-4.5039,-4.5742,-4.6211,-4.6289,-4.6289,-4.6289,-4.6289,-4.6289,-4.6289,-4.6289,-4.6289,-4.6289,-4.6289,-4.6289,-4.6992,-4.8476,-4.957,-5.0312,-5.1094,-5.1406,-5.1406,-5.1406,-5.1406,-5.1406,-5.1406,-5.1406,-5.1406,-5.1406,-5.1406,-5.1055,-5.0586,-5.0156,-4.9609,-4.8516,-4.75,-4.6992,-4.6641,-4.6406,-4.6289,-4.6289,-4.6289,-4.6289,-4.6289,-4.6289,-4.6289,-4.6289,-4.6289,-4.6289,-6.6562,-6.6015,-6.5117,-6.4258,-6.3398,-6.2539,-6.1992,-6.1719,-6.1719,-6.0898,-5.9726,-5.9297,-5.8398,-5.7031,-5.6669,-5.6515,-5.6562,-5.6512,-5.5576,-5.4101,-5.3935,-5.2997,-5.1523,-5.1406,-5.1406,-5.1406,-5.1406,-5.1365,-5.127,-5.1213,-5.1108,-5.0742,-4.9181,-4.8244,-4.7904,-4.6546,-4.577,-4.5905,-4.5944,-4.6116,-4.6249,-4.5929,-4.5057,-4.3647,-4.261,-4.1621,-4.0742,-4.0642,-4.0649,-4.061,-4.0667,-4.0767,-4.0933,-4.1073,-4.113,-4.125,-4.168,-4.1953,-4.207,-4.2773,-4.3242,-4.332,-4.4023,-4.4531,-4.4687,-4.5312,-4.5859,-4.5898,-4.6055,-4.6289,-4.6289,-4.6289,-4.6289,-4.6289,-4.6289,-4.6289,-4.6289,-4.6289,-4.6289,-4.6289,-4.6328,-4.7187,-4.8984,-4.9531,-4.9922,-5.1094,-5.1406,-5.1406,-5.1406,-5.1406,-5.1406,-5.1406,-5.1406,-5.1406,-5.1406,-5.1406,-5.1133,-5.0351,-4.9726,-4.8945,-4.793,-4.7109,-4.6523,-4.6484,-4.6328,-4.6289,-4.6289,-4.6289,-4.6289,-4.6289,-4.6289,-4.6289,-4.6289,-4.6289,-4.6289,-6.6406,-6.5547,-6.4648,-6.3789,-6.293,-6.207,-6.1719,-6.1719,-6.168,-6.0781,-5.9414,-5.918,-5.8242,-5.6797,-5.6456,-5.645,-5.6515,-5.6411,-5.5515,-5.4016,-5.3888,-5.2996,-5.1601,-5.1406,-5.1406,-5.1406,-5.1406,-5.1328,-5.1206,-5.1177,-5.1074,-5.0794,-4.9134,-4.8213,-4.7871,-4.6568,-4.584,-4.5872,-4.5974,-4.6128,-4.6204,-4.6245,-4.5584,-4.4257,-4.3408,-4.2276,-4.0878,-4.0715,-4.0726,-4.0726,-4.0731,-4.0848,-4.1069,-4.1404,-4.1562,-4.168,-4.2383,-4.2812,-4.293,-4.3633,-4.4141,-4.418,-4.4922,-4.543,-4.5469,-4.5976,-4.625,-4.6289,-4.6289,-4.6289,-4.6289,-4.6289,-4.6289,-4.6289,-4.6289,-4.6445,-4.668,-4.6719,-4.6875,-4.7226,-4.7578,-4.8476,-4.9726,-4.9844,-5.0312,-5.1328,-5.1406,-5.1406,-5.1406,-5.1406,-5.1406,-5.1406,-5.1406,-5.1406,-5.1406,-5.1406,-5.0703,-4.9922,-4.918,-4.832,-4.7539,-4.6719,-4.6328,-4.6328,-4.6289,-4.6289,-4.6289,-4.6289,-4.6289,-4.6289,-4.6289,-4.6289,-4.6289,-4.6289,-4.6289,-6.6367,-6.5469,-6.4648,-6.375,-6.2851,-6.2031,-6.1719,-6.1719,-6.164,-6.0664,-5.9297,-5.914,-5.8125,-5.6836,-5.6458,-5.6391,-5.6397,-5.6391,-5.5455,-5.394,-5.3897,-5.3046,-5.1445,-5.1406,-5.1406,-5.1406,-5.1406,-5.1328,-5.1194,-5.1117,-5.1031,-5.0572,-4.902,-4.8114,-4.8086,-4.6623,-4.5809,-4.5828,-4.5867,-4.5971,-4.6082,-4.6093,-4.5724,-4.4999,-4.4804,-4.3625,-4.1246,-4.093,-4.0819,-4.0805,-4.0809,-4.0939,-4.1328,-4.1992,-4.2422,-4.2539,-4.3203,-4.3672,-4.3789,-4.4492,-4.5,-4.5078,-4.5781,-4.6172,-4.6133,-4.625,-4.6289,-4.6289,-4.6289,-4.6289,-4.6289,-4.6289,-4.6289,-4.6328,-4.6367,-4.6758,-4.7305,-4.7578,-4.793,-4.8672,-4.9258,-5.0039,-5.0351,-5.0586,-5.1016,-5.125,-5.1406,-5.1406,-5.1406,-5.1406,-5.1406,-5.1406,-5.1406,-5.1406,-5.1406,-5.1289,-5.0312,-4.9414,-4.8633,-4.7812,-4.707,-4.6328,-4.6328,-4.6289,-4.6289,-4.6289,-4.6289,-4.6289,-4.6289,-4.6289,-4.6289,-4.6328,-4.6289,-4.6289,-4.6289,-6.6055,-6.4726,-6.4414,-6.3437,-6.2148,-6.1797,-6.1719,-6.164,-6.1094,-6.0195,-5.9219,-5.8555,-5.7656,-5.6797,-5.6458,-5.6389,-5.6389,-5.635,-5.5452,-5.405,-5.3832,-5.2999,-5.1641,-5.1406,-5.1406,-5.1406,-5.1406,-5.131,-5.1133,-5.1108,-5.1011,-5.0452,-4.8979,-4.8163,-4.8009,-4.651,-4.5681,-4.5777,-4.5834,-4.589,-4.5967,-4.6067,-4.5707,-4.498,-4.4958,-4.4257,-4.2925,-4.2091,-4.1451,-4.1022,-4.0854,-4.1173,-4.1992,-4.2851,-4.3281,-4.3398,-4.4101,-4.4609,-4.4726,-4.5351,-4.5859,-4.5937,-4.6172,-4.6289,-4.6289,-4.6289,-4.6289,-4.6289,-4.6289,-4.6289,-4.6289,-4.6289,-4.6367,-4.6328,-4.6836,-4.7266,-4.7734,-4.8203,-4.8867,-4.9531,-4.9531,-4.9805,-5.0625,-5.1016,-5.0898,-5.1328,-5.1406,-5.1406,-5.1406,-5.1406,-5.1406,-5.1406,-5.1406,-5.1406,-5.1367,-5.1211,-5.0469,-4.9687,-4.8828,-4.8047,-4.7148,-4.668,-4.6601,-4.6562,-4.6523,-4.6523,-4.6484,-4.6523,-4.6641,-4.6484,-4.6562,-4.6484,-4.6328,-4.6445,-4.6719,-6.5586,-6.4297,-6.3945,-6.3008,-6.1758,-6.1719,-6.1719,-6.164,-6.1133,-6.0273,-5.9258,-5.8633,-5.7695,-5.6758,-5.6458,-5.6391,-5.6389,-5.6389,-5.5452,-5.4011,-5.3877,-5.2961,-5.1562,-5.1406,-5.1366,-5.1322,-5.1328,-5.1233,-5.1025,-5.1002,-5.0911,-5.0461,-4.9279,-4.8394,-4.8018,-4.6827,-4.6067,-4.5803,-4.5789,-4.5819,-4.5909,-4.5985,-4.5804,-4.5449,-4.5427,-4.5039,-4.4219,-4.3472,-4.2785,-4.2162,-4.1911,-4.2241,-4.2891,-4.3672,-4.418,-4.4336,-4.4961,-4.5469,-4.5547,-4.5937,-4.6289,-4.6289,-4.6289,-4.6289,-4.6289,-4.6289,-4.6289,-4.6289,-4.6289,-4.6445,-4.6719,-4.6797,-4.6914,-4.7266,-4.7422,-4.7891,-4.8437,-4.9336,-4.9961,-5.043,-5.0234,-5.0469,-5.0898,-5.1094,-5.082,-5.1289,-5.1406,-5.1406,-5.1406,-5.1406,-5.1406,-5.1406,-5.1406,-5.1367,-5.1367,-5.1055,-5.0625,-5.0,-4.9336,-4.8594,-4.7851,-4.7734,-4.7656,-4.7695,-4.7695,-4.7734,-4.7695,-4.7617,-4.7617,-4.7305,-4.7109,-4.7422,-4.7617,-4.7539,-4.7695,-6.5117,-6.4219,-6.3398,-6.2539,-6.1758,-6.1719,-6.1719,-6.168,-6.1406,-6.0508,-5.9375,-5.8828,-5.8008,-5.6797,-5.6465,-5.6445,-5.6397,-5.6389,-5.546,-5.4223,-5.3813,-5.3004,-5.1562,-5.1406,-5.1328,-5.1217,-5.121,-5.1117,-5.0939,-5.0918,-5.0827,-5.0616,-4.9778,-4.8942,-4.8093,-4.7326,-4.6483,-4.5748,-4.5718,-4.5789,-4.5891,-4.5884,-4.6008,-4.6169,-4.6172,-4.582,-4.5156,-4.4909,-4.4474,-4.3788,-4.3516,-4.3633,-4.3906,-4.4609,-4.5078,-4.5078,-4.5859,-4.6133,-4.625,-4.625,-4.6289,-4.6289,-4.6289,-4.6289,-4.6289,-4.6289,-4.6289,-4.6328,-4.6406,-4.6758,-4.7344,-4.7656,-4.8008,-4.8672,-4.8398,-4.8711,-5.0039,-5.0859,-5.1094,-5.125,-5.1367,-5.1406,-5.1406,-5.1328,-5.1328,-5.1367,-5.1406,-5.1406,-5.1406,-5.1406,-5.1406,-5.1406,-5.1406,-5.1406,-5.1367,-5.1328,-5.0937,-5.0664,-5.0,-4.9375,-4.8633,-4.8476,-4.8398,-4.8516,-4.8672,-4.8789,-4.8711,-4.8437,-4.8398,-4.8281,-4.8398,-4.8828,-4.875,-4.8476,-4.8398,-6.5117,-6.4219,-6.3359,-6.25,-6.1758,-6.1719,-6.1719,-6.1523,-6.039,-5.9726,-5.9023,-5.7812,-5.7148,-5.664,-5.6562,-5.6558,-5.6515,-5.6413,-5.5521,-5.4129,-5.3754,-5.2856,-5.1641,-5.1406,-5.1321,-5.1208,-5.1188,-5.1074,-5.0911,-5.0913,-5.0811,-5.0693,-4.9972,-4.9092,-4.8111,-4.7465,-4.6576,-4.5744,-4.5637,-4.5718,-4.5813,-4.5881,-4.5981,-4.6142,-4.6247,-4.6172,-4.5976,-4.5936,-4.5148,-4.381,-4.4336,-4.4648,-4.4726,-4.543,-4.5859,-4.5937,-4.6094,-4.6289,-4.6289,-4.6289,-4.6289,-4.6289,-4.6289,-4.6289,-4.6289,-4.6289,-4.6289,-4.6406,-4.6836,-4.7344,-4.7695,-4.8242,-4.8945,-4.9648,-4.957,-4.9844,-5.0781,-5.125,-5.1406,-5.1406,-5.1406,-5.1406,-5.1406,-5.1406,-5.1406,-5.1406,-5.1406,-5.1406,-5.1406,-5.1406,-5.1406,-5.1406,-5.1406,-5.1406,-5.1406,-5.1406,-5.1328,-5.1211,-5.0781,-5.0273,-4.9492,-4.8906,-4.8828,-4.8828,-4.918,-4.9336,-4.9062,-4.8789,-4.8906,-4.9258,-4.918,-4.9297,-4.9062,-4.8789,-4.8906,-6.4531,-6.3672,-6.2812,-6.2187,-6.1719,-6.1719,-6.1719,-6.1445,-6.0312,-5.9492,-5.8945,-5.7773,-5.6953,-5.6601,-5.6601,-5.6601,-5.6562,-5.6124,-5.5189,-5.406,-5.3057,-5.2156,-5.1445,-5.1328,-5.126,-5.1154,-5.1109,-5.0957,-5.0844,-5.0795,-5.0756,-5.0673,-5.0272,-4.9569,-4.8682,-4.7902,-4.7086,-4.6266,-4.5834,-4.5658,-4.583,-4.5881,-4.6001,-4.6147,-4.6289,-4.6289,-4.6289,-4.6289,-4.5742,-4.5019,-4.5195,-4.5547,-4.5586,-4.5976,-4.6289,-4.6289,-4.6289,-4.6289,-4.6289,-4.6289,-4.6289,-4.6289,-4.6289,-4.6289,-4.6406,-4.6562,-4.6836,-4.6953,-4.7656,-4.8242,-4.875,-4.9453,-5.0117,-5.0586,-5.0703,-5.0898,-5.1367,-5.1367,-5.1406,-5.1406,-5.1406,-5.1406,-5.1406,-5.1406,-5.1406,-5.1406,-5.1406,-5.1406,-5.1406,-5.1406,-5.1406,-5.1406,-5.1406,-5.1406,-5.1406,-5.1406,-5.1406,-5.1328,-5.125,-5.082,-5.0391,-4.9687,-4.9844,-4.9883,-4.9922,-4.9883,-4.9766,-4.9766,-5.0117,-5.0273,-4.9961,-4.9883,-4.9805,-4.957,-4.9648,-6.3711,-6.293,-6.207,-6.1719,-6.1719,-6.1719,-6.1719,-6.1523,-6.0547,-5.9805,-5.9062,-5.8164,-5.7187,-5.6601,-5.6601,-5.6601,-5.6523,-5.5739,-5.4721,-5.351,-5.2332,-5.1352,-5.1269,-5.121,-5.1161,-5.1084,-5.0959,-5.0875,-5.0773,-5.074,-5.0712,-5.0701,-5.0672,-5.0202,-4.9278,-4.8487,-4.769,-4.6787,-4.597,-4.5725,-4.5852,-4.5923,-4.6011,-4.625,-4.6289,-4.6289,-4.6289,-4.6289,-4.6168,-4.6062,-4.6207,-4.6211,-4.625,-4.6289,-4.6289,-4.6289,-4.6289,-4.6289,-4.6289,-4.6289,-4.6289,-4.6289,-4.6289,-4.6406,-4.6601,-4.7109,-4.75,-4.7734,-4.8516,-4.9336,-5.0117,-5.0937,-5.1172,-5.125,-5.1328,-5.1367,-5.1406,-5.1406,-5.1406,-5.1406,-5.1406,-5.1406,-5.1406,-5.1406,-5.1406,-5.1406,-5.1406,-5.1406,-5.1406,-5.1406,-5.1406,-5.1406,-5.1406,-5.1406,-5.1406,-5.1406,-5.1406,-5.1367,-5.1367,-5.1172,-5.1172,-5.0859,-5.1094,-5.1133,-5.0742,-5.0742,-5.0898,-5.1055,-5.1172,-5.1094,-5.0742,-5.0976,-5.1211,-5.082,-5.0664,-6.3164,-6.293,-6.207,-6.1719,-6.1719,-6.1719,-6.1719,-6.1562,-6.0117,-5.9375,-5.8867,-5.7578,-5.6836,-5.6601,-5.6601,-5.6601,-5.6484,-5.5535,-5.4315,-5.2657,-5.175,-5.1219,-5.1133,-5.1158,-5.1109,-5.0978,-5.0918,-5.0898,-5.0835,-5.0764,-5.0738,-5.0851,-5.0789,-5.0392,-4.9489,-4.8745,-4.7796,-4.6929,-4.6095,-4.5778,-4.5872,-4.5896,-4.602,-4.625,-4.6289,-4.6289,-4.6289,-4.6289,-4.6289,-4.625,-4.6289,-4.6289,-4.6289,-4.6289,-4.6289,-4.6289,-4.6289,-4.6289,-4.6289,-4.6289,-4.6328,-4.6367,-4.6445,-4.6601,-4.7305,-4.7539,-4.8008,-4.8555,-4.9414,-5.0234,-5.0937,-5.125,-5.1367,-5.1406,-5.1406,-5.1406,-5.1406,-5.1406,-5.1406,-5.1406,-5.1406,-5.1406,-5.1406,-5.1406,-5.1406,-5.1406,-5.1406,-5.1406,-5.1406,-5.1406,-5.1406,-5.1406,-5.1406,-5.1406,-5.1406,-5.1406,-5.1406,-5.1406,-5.1406,-5.1406,-5.1406,-5.1406,-5.1406,-5.1406,-5.1328,-5.1406,-5.1406,-5.1367,-5.1289,-5.1367,-5.1406,-5.1406,-5.1406,-5.1406,-5.1406,-6.2734,-6.2344,-6.1875,-6.1719,-6.1719,-6.1719,-6.1484,-6.0898,-5.9765,-5.8945,-5.8398,-5.7148,-5.664,-5.6601,-5.6601,-5.6601,-5.6289,-5.5149,-5.3535,-5.2017,-5.1314,-5.1105,-5.0946,-5.0986,-5.1014,-5.0896,-5.0889,-5.0889,-5.0905,-5.0928,-5.0939,-5.0992,-5.0939,-5.0689,-5.0057,-4.9233,-4.8394,-4.7533,-4.6659,-4.6157,-4.593,-4.5974,-4.608,-4.625,-4.6289,-4.6289,-4.6289,-4.6289,-4.6289,-4.6289,-4.6289,-4.6289,-4.6289,-4.6289,-4.6289,-4.6289,-4.6289,-4.6289,-4.6289,-4.6328,-4.6484,-4.6875,-4.6914,-4.7422,-4.8086,-4.8555,-4.8984,-4.957,-5.0234,-5.0976,-5.1328,-5.1406,-5.1406,-5.1406,-5.1406,-5.1406,-5.1406,-5.1406,-5.1406,-5.1406,-5.1406,-5.1406,-5.1406,-5.1406,-5.1406,-5.1406,-5.1406,-5.1406,-5.1406,-5.1406,-5.1406,-5.1406,-5.1406,-5.1406,-5.1406,-5.1406,-5.1406,-5.1406,-5.1406,-5.1406,-5.1406,-5.1406,-5.1406,-5.1406,-5.1406,-5.1406,-5.1406,-5.1406,-5.1406,-5.1406,-5.1406,-5.1406,-5.1406,-5.1406,-5.1406,-6.2383,-6.1719,-6.1719,-6.1719,-6.1719,-6.168,-6.1211,-6.039,-5.9531,-5.875,-5.7851,-5.6992,-5.6601,-5.6601,-5.6601,-5.6523,-5.5781,-5.4805,-5.31,-5.1448,-5.1225,-5.105,-5.0896,-5.0859,-5.0925,-5.0918,-5.0903,-5.0896,-5.0979,-5.1025,-5.1069,-5.1084,-5.094,-5.0804,-5.0643,-4.9877,-4.8874,-4.7989,-4.7233,-4.6532,-4.6031,-4.6008,-4.6149,-4.6289,-4.6289,-4.6289,-4.6289,-4.6289,-4.6289,-4.6289,-4.6289,-4.6289,-4.6289,-4.6289,-4.6289,-4.6289,-4.6289,-4.625,-4.6367,-4.6484,-4.6836,-4.7578,-4.7773,-4.8203,-4.9023,-4.9609,-5.0039,-5.0469,-5.0937,-5.1289,-5.1406,-5.1406,-5.1406,-5.1406,-5.1406,-5.1406,-5.1406,-5.1406,-5.1406,-5.1406,-5.1406,-5.1406,-5.1406,-5.1406,-5.1406,-5.1406,-5.1406,-5.1406,-5.1406,-5.1406,-5.1406,-5.1406,-5.1406,-5.1406,-5.1406,-5.1406,-5.1406,-5.1406,-5.1406,-5.1406,-5.1406,-5.1406,-5.1406,-5.1406,-5.1406,-5.1406,-5.1406,-5.1406,-5.1406,-5.1406,-5.1406,-5.1406,-5.1406,-5.1406,-5.1406,-6.1836,-6.1719,-6.1719,-6.1719,-6.1719,-6.168,-6.1133,-6.0351,-5.9492,-5.8711,-5.7812,-5.6992,-5.6601,-5.6601,-5.6601,-5.5859,-5.4805,-5.4023,-5.2999,-5.1408,-5.1147,-5.1063,-5.099,-5.0875,-5.0905,-5.0966,-5.0966,-5.0966,-5.1042,-5.1084,-5.1168,-5.114,-5.0981,-5.0911,-5.0666,-4.9916,-4.9105,-4.8321,-4.7557,-4.6806,-4.6247,-4.6106,-4.6194,-4.6289,-4.6289,-4.6289,-4.6289,-4.6289,-4.6289,-4.6289,-4.6289,-4.6289,-4.6289,-4.6289,-4.6289,-4.6289,-4.6243,-4.6243,-4.6445,-4.6905,-4.7257,-4.7695,-4.8281,-4.9062,-4.9766,-5.0156,-5.0586,-5.0976,-5.1211,-5.1406,-5.1406,-5.1406,-5.1406,-5.1406,-5.1406,-5.1406,-5.1406,-5.1406,-5.1406,-5.1406,-5.1406,-5.1406,-5.1406,-5.1406,-5.1406,-5.1406,-5.1406,-5.1406,-5.1406,-5.1406,-5.1406,-5.1406,-5.1406,-5.1406,-5.1406,-5.1406,-5.1406,-5.1406,-5.1406,-5.1406,-5.1406,-5.1406,-5.1406,-5.1406,-5.1406,-5.1406,-5.1406,-5.1367,-5.1367,-5.1328,-5.1367,-5.1367,-5.1328,-5.1328,-5.1367,-6.1719,-6.1719,-6.1719,-6.1719,-6.164,-6.1211,-6.0547,-5.9726,-5.8906,-5.8047,-5.7305,-5.6797,-5.6601,-5.6601,-5.6601,-5.5625,-5.4375,-5.3984,-5.293,-5.1516,-5.1164,-5.1144,-5.1103,-5.0959,-5.1011,-5.1069,-5.1055,-5.1078,-5.1144,-5.1233,-5.125,-5.1249,-5.1087,-5.099,-5.0881,-5.043,-4.9628,-4.8886,-4.8128,-4.7393,-4.6661,-4.6445,-4.625,-4.6289,-4.6289,-4.6289,-4.6203,-4.6289,-4.625,-4.6211,-4.625,-4.6289,-4.6289,-4.6367,-4.6328,-4.6289,-4.6244,-4.6476,-4.6875,-4.7378,-4.7888,-4.8867,-4.9375,-4.9961,-5.0547,-5.0898,-5.0976,-5.125,-5.1406,-5.1406,-5.1406,-5.1406,-5.1406,-5.1406,-5.1406,-5.1406,-5.1406,-5.1406,-5.1406,-5.1406,-5.1406,-5.1406,-5.1406,-5.1406,-5.1406,-5.1406,-5.1406,-5.1406,-5.1406,-5.1406,-5.1406,-5.1406,-5.1406,-5.1406,-5.1406,-5.1406,-5.1406,-5.1406,-5.1406,-5.1406,-5.1406,-5.1406,-5.1406,-5.1406,-5.1406,-5.1367,-5.1367,-5.1328,-5.1328,-5.1273,-5.125,-5.125,-5.125,-5.125,-5.126,-6.1719,-6.1719,-6.1719,-6.1719,-6.1562,-6.0781,-5.9961,-5.914,-5.832,-5.7461,-5.668,-5.6601,-5.6601,-5.6601,-5.6406,-5.5664,-5.4101,-5.3984,-5.293,-5.1525,-5.1199,-5.1164,-5.1152,-5.1108,-5.1117,-5.1197,-5.1161,-5.1204,-5.1206,-5.1317,-5.1367,-5.1328,-5.1206,-5.1108,-5.1003,-5.0759,-5.0271,-4.9642,-4.9104,-4.8378,-4.7504,-4.6719,-4.6289,-4.6289,-4.6289,-4.6246,-4.6145,-4.6199,-4.6192,-4.622,-4.6348,-4.6484,-4.6328,-4.6601,-4.668,-4.6516,-4.6477,-4.6945,-4.7568,-4.8113,-4.8772,-4.9726,-5.0273,-5.0781,-5.1055,-5.1172,-5.1289,-5.1359,-5.1328,-5.1328,-5.1328,-5.1367,-5.1367,-5.1406,-5.1406,-5.1406,-5.1406,-5.1406,-5.1406,-5.1406,-5.1406,-5.1406,-5.1406,-5.1406,-5.1406,-5.1406,-5.1406,-5.1406,-5.1406,-5.1406,-5.1406,-5.1406,-5.1406,-5.1406,-5.1406,-5.1406,-5.1406,-5.1406,-5.1406,-5.1406,-5.1406,-5.1406,-5.1406,-5.1406,-5.1328,-5.1289,-5.1289,-5.1267,-5.124,-5.12,-5.1139,-5.1126,-5.116,-5.1168,-5.1186,-6.1719,-6.1719,-6.1719,-6.1719,-6.1523,-6.0742,-5.9922,-5.9101,-5.8203,-5.7422,-5.6601,-5.6601,-5.6601,-5.6601,-5.6601,-5.5586,-5.4453,-5.3867,-5.3008,-5.1453,-5.1252,-5.1208,-5.1183,-5.1135,-5.1219,-5.1302,-5.1258,-5.1206,-5.126,-5.1364,-5.1406,-5.1367,-5.126,-5.1158,-5.1108,-5.0933,-5.0448,-4.9769,-4.9632,-4.8968,-4.7695,-4.6797,-4.6445,-4.6289,-4.6289,-4.6244,-4.6093,-4.6097,-4.6116,-4.6126,-4.6811,-4.6774,-4.6381,-4.7633,-4.7733,-4.7384,-4.7198,-4.747,-4.8343,-4.8964,-4.9494,-5.0202,-5.0733,-5.1125,-5.1221,-5.1206,-5.1172,-5.1135,-5.1152,-5.1206,-5.1256,-5.126,-5.1313,-5.1367,-5.1406,-5.1406,-5.1406,-5.1406,-5.1406,-5.1406,-5.1406,-5.1406,-5.1406,-5.1406,-5.1406,-5.1406,-5.1406,-5.1406,-5.1406,-5.1406,-5.1406,-5.1406,-5.1406,-5.1406,-5.1406,-5.1406,-5.1406,-5.1406,-5.1406,-5.1406,-5.1406,-5.1406,-5.1406,-5.1367,-5.1289,-5.1254,-5.1201,-5.1167,-5.1144,-5.1084,-5.1025,-5.1047,-5.1099,-5.1094,-5.1053,-6.1719,-6.1719,-6.1719,-6.1406,-6.0898,-6.0078,-5.9219,-5.8398,-5.7539,-5.6953,-5.668,-5.6601,-5.6601,-5.6601,-5.6601,-5.5625,-5.4297,-5.3945,-5.3008,-5.1601,-5.1328,-5.1289,-5.1317,-5.1265,-5.1359,-5.1367,-5.1367,-5.1322,-5.1328,-5.1367,-5.1406,-5.1367,-5.127,-5.1191,-5.1136,-5.1069,-5.084,-5.0512,-5.0126,-4.92,-4.793,-4.7226,-4.6797,-4.6328,-4.6328,-4.6211,-4.6106,-4.6075,-4.6293,-4.6484,-4.7147,-4.746,-4.7486,-4.8174,-4.8535,-4.872,-4.8586,-4.8821,-4.925,-4.9703,-5.0077,-5.052,-5.1001,-5.121,-5.1147,-5.1122,-5.1084,-5.1094,-5.1121,-5.1164,-5.1201,-5.127,-5.1322,-5.1367,-5.1406,-5.1406,-5.1406,-5.1406,-5.1406,-5.1406,-5.1406,-5.1406,-5.1406,-5.1406,-5.1406,-5.1406,-5.1406,-5.1406,-5.1406,-5.1406,-5.1406,-5.1406,-5.1406,-5.1406,-5.1406,-5.1406,-5.1406,-5.1406,-5.1406,-5.1406,-5.1406,-5.1406,-5.1406,-5.1328,-5.125,-5.121,-5.114,-5.1055,-5.0984,-5.0927,-5.0925,-5.0932,-5.0939,-5.0874,-5.0852,-6.1601,-6.1367,-6.1367,-6.0976,-6.0312,-5.9336,-5.8515,-5.7851,-5.6992,-5.664,-5.6601,-5.6601,-5.6601,-5.6523,-5.625,-5.5351,-5.4023,-5.3789,-5.2773,-5.1836,-5.1406,-5.1367,-5.1367,-5.1367,-5.1367,-5.1406,-5.1406,-5.1367,-5.1367,-5.1406,-5.1406,-5.1406,-5.1328,-5.1256,-5.1191,-5.1151,-5.1059,-5.1029,-5.0457,-4.957,-4.8555,-4.8086,-4.7461,-4.6914,-4.6601,-4.6456,-4.6275,-4.6294,-4.6649,-4.723,-4.7868,-4.8257,-4.8283,-4.8997,-4.9323,-4.9509,-4.9521,-4.9799,-4.997,-5.0231,-5.0529,-5.084,-5.1069,-5.1096,-5.1063,-5.102,-5.0978,-5.094,-5.104,-5.1117,-5.1185,-5.1265,-5.1324,-5.1367,-5.1406,-5.1406,-5.1406,-5.1406,-5.1406,-5.1406,-5.1406,-5.1406,-5.1406,-5.1406,-5.1406,-5.1406,-5.1406,-5.1406,-5.1406,-5.1406,-5.1406,-5.1406,-5.1406,-5.1406,-5.1406,-5.1406,-5.1406,-5.1406,-5.1406,-5.1406,-5.1406,-5.1406,-5.1406,-5.1328,-5.125,-5.1164,-5.1131,-5.0972,-5.0851,-5.0819,-5.0786,-5.0738,-5.0721,-5.0702,-5.0702,-6.1211,-6.0469,-6.0508,-6.039,-6.0195,-5.8633,-5.7969,-5.7695,-5.6953,-5.6601,-5.6601,-5.6601,-5.6601,-5.6445,-5.582,-5.5,-5.3984,-5.3164,-5.2305,-5.1719,-5.1406,-5.1406,-5.1406,-5.1406,-5.1406,-5.1406,-5.1406,-5.1406,-5.1406,-5.1406,-5.1406,-5.1406,-5.1367,-5.1315,-5.1261,-5.1245,-5.1199,-5.1146,-5.066,-5.0273,-4.9648,-4.9141,-4.8398,-4.7695,-4.7406,-4.727,-4.7125,-4.704,-4.7326,-4.8039,-4.8786,-4.906,-4.8963,-4.9858,-5.0203,-4.9898,-5.0171,-5.04,-5.0494,-5.0625,-5.0815,-5.0886,-5.0932,-5.0959,-5.0911,-5.0808,-5.0758,-5.0799,-5.092,-5.1036,-5.1087,-5.1164,-5.1318,-5.1367,-5.1406,-5.1406,-5.1406,-5.1406,-5.1406,-5.1406,-5.1406,-5.1406,-5.1406,-5.1406,-5.1406,-5.1406,-5.1406,-5.1406,-5.1406,-5.1406,-5.1406,-5.1406,-5.1406,-5.1406,-5.1406,-5.1406,-5.1406,-5.1406,-5.1406,-5.1406,-5.1406,-5.1406,-5.1406,-5.1328,-5.1247,-5.1179,-5.1069,-5.0959,-5.0827,-5.072,-5.0673,-5.0712,-5.0702,-5.0702,-5.0702,-6.0703,-6.0312,-5.9336,-5.8867,-5.8789,-5.8164,-5.7578,-5.7109,-5.6758,-5.6601,-5.6601,-5.6601,-5.6601,-5.6367,-5.5664,-5.4844,-5.3984,-5.3086,-5.2226,-5.1641,-5.1406,-5.1406,-5.1406,-5.1406,-5.1406,-5.1406,-5.1406,-5.1406,-5.1406,-5.1406,-5.1328,-5.1328,-5.1366,-5.1366,-5.1323,-5.1328,-5.1328,-5.1289,-5.1016,-5.0742,-5.0156,-4.9922,-4.9297,-4.8476,-4.8281,-4.8122,-4.802,-4.7875,-4.8269,-4.8814,-4.9417,-4.9521,-4.962,-5.0586,-5.0619,-5.0191,-5.0558,-5.0635,-5.0702,-5.0795,-5.0882,-5.0898,-5.0827,-5.0782,-5.0799,-5.0721,-5.0712,-5.0747,-5.0905,-5.1047,-5.1089,-5.1235,-5.1367,-5.1367,-5.1406,-5.1406,-5.1406,-5.1406,-5.1406,-5.1406,-5.1406,-5.1406,-5.1406,-5.1406,-5.1406,-5.1406,-5.1406,-5.1406,-5.1406,-5.1406,-5.1406,-5.1406,-5.1406,-5.1406,-5.1406,-5.1406,-5.1406,-5.1406,-5.1406,-5.1406,-5.1406,-5.1406,-5.1367,-5.1328,-5.1263,-5.1161,-5.1045,-5.0945,-5.0811,-5.074,-5.0712,-5.0712,-5.0702,-5.0702,-5.0702,-6.0117,-5.9531,-5.8398,-5.789,-5.7851,-5.7617,-5.7187,-5.668,-5.6601,-5.6601,-5.6601,-5.6601,-5.6601,-5.6367,-5.5664,-5.4805,-5.3945,-5.3086,-5.2226,-5.168,-5.1406,-5.1406,-5.1406,-5.1406,-5.1406,-5.1406,-5.1406,-5.1406,-5.1406,-5.1406,-5.1367,-5.1323,-5.1324,-5.1366,-5.1324,-5.1406,-5.1406,-5.1406,-5.1328,-5.1211,-5.0625,-5.0547,-5.0156,-4.9375,-4.9101,-4.8996,-4.8881,-4.8754,-4.9054,-4.956,-5.0014,-5.0223,-5.0538,-5.0799,-5.0825,-5.0767,-5.0712,-5.0712,-5.0721,-5.0764,-5.0835,-5.0825,-5.0756,-5.0702,-5.0702,-5.0702,-5.0702,-5.0702,-5.0889,-5.1047,-5.1084,-5.123,-5.1323,-5.1367,-5.1406,-5.1406,-5.1406,-5.1406,-5.1406,-5.1406,-5.1406,-5.1406,-5.1406,-5.1406,-5.1406,-5.1406,-5.1406,-5.1406,-5.1406,-5.1406,-5.1406,-5.1406,-5.1406,-5.1406,-5.1406,-5.1406,-5.1406,-5.1406,-5.1406,-5.1406,-5.1406,-5.1406,-5.1406,-5.1367,-5.131,-5.1177,-5.1069,-5.094,-5.0835,-5.0712,-5.0721,-5.0702,-5.0702,-5.0702,-5.0702,-5.9414,-5.8008,-5.789,-5.7851,-5.7695,-5.6992,-5.664,-5.6601,-5.6601,-5.6601,-5.6601,-5.6601,-5.6601,-5.6406,-5.5664,-5.4805,-5.3945,-5.3086,-5.2226,-5.1562,-5.1406,-5.1406,-5.1406,-5.1406,-5.1406,-5.1406,-5.1406,-5.1406,-5.1406,-5.1406,-5.1367,-5.1365,-5.1324,-5.1363,-5.1219,-5.1324,-5.1406,-5.1406,-5.1406,-5.1328,-5.125,-5.1172,-5.0742,-5.0312,-4.9934,-4.9794,-4.9731,-4.9552,-4.9815,-5.0297,-5.0546,-5.0653,-5.0692,-5.0819,-5.0819,-5.0702,-5.0731,-5.0693,-5.0683,-5.0731,-5.0712,-5.074,-5.0731,-5.0712,-5.0702,-5.0702,-5.0702,-5.0693,-5.0844,-5.0946,-5.104,-5.1158,-5.1265,-5.1328,-5.1367,-5.1406,-5.1406,-5.1406,-5.1406,-5.1406,-5.1406,-5.1406,-5.1406,-5.1406,-5.1406,-5.1406,-5.1406,-5.1406,-5.1406,-5.1406,-5.1406,-5.1406,-5.1406,-5.1406,-5.1406,-5.1406,-5.1406,-5.1406,-5.1406,-5.1406,-5.1406,-5.1406,-5.1406,-5.1406,-5.1321,-5.1252,-5.1109,-5.0972,-5.0867,-5.074,-5.0693,-5.0702,-5.0702,-5.0702,-5.0702,-5.8398,-5.7851,-5.7265,-5.7031,-5.6992,-5.6758,-5.6601,-5.6601,-5.6601,-5.6601,-5.6601,-5.6601,-5.6601,-5.6328,-5.5703,-5.4883,-5.3945,-5.3086,-5.2226,-5.1484,-5.1406,-5.1406,-5.1406,-5.1406,-5.1406,-5.1406,-5.1406,-5.1406,-5.1406,-5.1406,-5.1328,-5.1275,-5.1318,-5.1316,-5.1322,-5.1406,-5.1406,-5.1406,-5.1406,-5.1367,-5.1406,-5.1367,-5.125,-5.0937,-5.0703,-5.0602,-5.0568,-5.0302,-5.0413,-5.0635,-5.0764,-5.0758,-5.0712,-5.0811,-5.0819,-5.0785,-5.0776,-5.0782,-5.073,-5.0712,-5.0712,-5.0712,-5.0702,-5.0702,-5.0702,-5.0702,-5.0702,-5.0712,-5.0786,-5.0903,-5.0959,-5.1129,-5.1213,-5.1267,-5.1289,-5.1367,-5.1406,-5.1406,-5.1406,-5.1406,-5.1406,-5.1406,-5.1406,-5.1367,-5.1328,-5.1367,-5.1367,-5.1367,-5.1406,-5.1406,-5.1406,-5.1406,-5.1406,-5.1406,-5.1406,-5.1367,-5.1367,-5.1406,-5.1406,-5.1406,-5.1406,-5.1406,-5.1406,-5.1406,-5.1328,-5.1274,-5.1144,-5.1014,-5.0883,-5.0785,-5.0712,-5.0702,-5.0702,-5.0702,-5.0702,-5.7695,-5.7383,-5.6836,-5.6601,-5.6601,-5.6601,-5.6601,-5.6601,-5.6601,-5.6601,-5.6601,-5.6601,-5.6601,-5.6406,-5.5976,-5.4961,-5.4023,-5.3437,-5.2344,-5.1562,-5.1406,-5.1406,-5.1406,-5.1406,-5.1406,-5.1406,-5.1406,-5.1406,-5.1406,-5.1406,-5.1367,-5.1318,-5.1289,-5.1322,-5.1367,-5.1406,-5.1406,-5.1406,-5.1406,-5.1406,-5.1406,-5.1406,-5.1406,-5.1289,-5.1204,-5.1066,-5.1047,-5.0911,-5.0758,-5.0712,-5.0712,-5.0712,-5.073,-5.0738,-5.0786,-5.0825,-5.089,-5.0875,-5.0767,-5.0756,-5.0738,-5.0673,-5.0712,-5.0702,-5.0702,-5.0702,-5.0702,-5.0721,-5.0799,-5.0898,-5.0946,-5.1125,-5.118,-5.124,-5.1328,-5.1367,-5.1406,-5.1406,-5.1406,-5.1406,-5.1367,-5.1406,-5.1367,-5.1328,-5.1289,-5.1289,-5.1289,-5.136,-5.1366,-5.1367,-5.1367,-5.1367,-5.1367,-5.1328,-5.1328,-5.1328,-5.1328,-5.1406,-5.1406,-5.1406,-5.1406,-5.1406,-5.1406,-5.1406,-5.1367,-5.1315,-5.1158,-5.1009,-5.0859,-5.0756,-5.0693,-5.0702,-5.0702,-5.0702,-5.0702,-5.7383,-5.664,-5.6601,-5.6601,-5.6601,-5.6601,-5.6601,-5.6601,-5.6601,-5.6601,-5.6601,-5.6601,-5.6601,-5.6601,-5.6562,-5.5547,-5.4258,-5.3906,-5.2812,-5.1797,-5.1406,-5.1406,-5.1406,-5.1406,-5.1406,-5.1406,-5.1406,-5.1406,-5.1406,-5.1406,-5.1406,-5.1406,-5.1367,-5.1367,-5.1406,-5.1406,-5.1406,-5.1406,-5.1406,-5.1406,-5.1406,-5.1406,-5.1406,-5.1367,-5.1261,-5.1161,-5.1069,-5.0946,-5.0835,-5.0785,-5.0721,-5.0712,-5.0721,-5.0731,-5.0808,-5.0903,-5.1036,-5.0889,-5.0811,-5.0883,-5.0841,-5.0776,-5.0721,-5.0712,-5.0702,-5.0702,-5.0702,-5.0702,-5.0749,-5.0898,-5.1002,-5.1103,-5.1183,-5.1247,-5.1364,-5.1406,-5.1406,-5.1406,-5.1406,-5.1406,-5.1367,-5.1367,-5.1328,-5.1289,-5.1199,-5.123,-5.1224,-5.1235,-5.126,-5.1328,-5.1328,-5.1289,-5.1289,-5.1289,-5.1267,-5.1261,-5.1289,-5.1328,-5.1367,-5.1406,-5.1406,-5.1406,-5.1406,-5.1406,-5.1406,-5.131,-5.1096,-5.0972,-5.0883,-5.0773,-5.0683,-5.0702,-5.0702,-5.0702,-5.0702,-5.6836,-5.6601,-5.6601,-5.6601,-5.6601,-5.6601,-5.6601,-5.6601,-5.6601,-5.6601,-5.6601,-5.6601,-5.6601,-5.6601,-5.6601,-5.5469,-5.457,-5.375,-5.2812,-5.1992,-5.1367,-5.1406,-5.1406,-5.1406,-5.1406,-5.1406,-5.1406,-5.1406,-5.1406,-5.1406,-5.1406,-5.1406,-5.1406,-5.1406,-5.1406,-5.1406,-5.1406,-5.1406,-5.1406,-5.1406,-5.1406,-5.1406,-5.1406,-5.1367,-5.1289,-5.1194,-5.1144,-5.1002,-5.0882,-5.0844,-5.0758,-5.0712,-5.0712,-5.0883,-5.1031,-5.1092,-5.104,-5.0945,-5.0979,-5.0932,-5.0898,-5.0811,-5.0738,-5.0721,-5.0702,-5.0702,-5.0702,-5.0702,-5.0712,-5.0841,-5.0939,-5.1025,-5.1131,-5.1222,-5.1328,-5.1406,-5.1406,-5.1406,-5.1406,-5.1367,-5.1328,-5.1254,-5.123,-5.1186,-5.1105,-5.1096,-5.1131,-5.1139,-5.1183,-5.1238,-5.1258,-5.1238,-5.1183,-5.1174,-5.1174,-5.1167,-5.1201,-5.125,-5.1328,-5.1367,-5.1406,-5.1406,-5.1406,-5.1367,-5.1328,-5.1164,-5.0984,-5.0882,-5.0859,-5.0756,-5.0702,-5.0702,-5.0702,-5.0702,-5.0702,-5.6601,-5.6601,-5.6601,-5.6601,-5.6601,-5.6601,-5.6601,-5.6601,-5.6601,-5.6601,-5.6601,-5.6601,-5.6601,-5.6523,-5.6172,-5.5312,-5.4062,-5.3476,-5.2656,-5.1758,-5.1364,-5.1367,-5.1367,-5.1365,-5.1367,-5.1367,-5.1406,-5.1406,-5.1406,-5.1406,-5.1406,-5.1406,-5.1406,-5.1406,-5.1406,-5.1406,-5.1406,-5.1406,-5.1406,-5.1406,-5.1406,-5.1406,-5.1406,-5.1367,-5.1289,-5.1267,-5.1196,-5.103,-5.0992,-5.0882,-5.0764,-5.074,-5.0769,-5.1014,-5.1074,-5.1113,-5.1147,-5.1103,-5.1089,-5.104,-5.099,-5.0911,-5.0811,-5.0747,-5.0702,-5.0702,-5.0702,-5.0712,-5.0721,-5.0749,-5.0851,-5.0966,-5.1063,-5.1172,-5.1289,-5.1367,-5.1406,-5.1406,-5.1367,-5.1328,-5.1249,-5.1186,-5.1122,-5.1053,-5.0996,-5.0978,-5.0927,-5.0911,-5.0984,-5.1113,-5.1121,-5.116,-5.1092,-5.1064,-5.1069,-5.1092,-5.114,-5.1185,-5.125,-5.1289,-5.1367,-5.1367,-5.1367,-5.1289,-5.1211,-5.1064,-5.0925,-5.0896,-5.0836,-5.0764,-5.0702,-5.0702,-5.0702,-5.0702,-5.0702,-5.6601,-5.6601,-5.6601,-5.6601,-5.6601,-5.6601,-5.6601,-5.6601,-5.6601,-5.6601,-5.6601,-5.6601,-5.6601,-5.6484,-5.5859,-5.5,-5.3984,-5.3242,-5.2422,-5.1406,-5.1273,-5.1274,-5.1323,-5.1273,-5.1319,-5.1367,-5.1406,-5.1406,-5.1406,-5.1406,-5.1406,-5.1406,-5.1406,-5.1406,-5.1406,-5.1406,-5.1406,-5.1406,-5.1406,-5.1406,-5.1406,-5.1406,-5.1406,-5.1406,-5.1367,-5.1324,-5.1252,-5.1129,-5.1042,-5.0918,-5.0811,-5.0808,-5.0927,-5.105,-5.104,-5.1083,-5.121,-5.1216,-5.1183,-5.1133,-5.105,-5.0978,-5.0889,-5.0795,-5.0758,-5.0673,-5.0702,-5.0702,-5.0712,-5.0712,-5.0833,-5.0985,-5.1094,-5.119,-5.1289,-5.1367,-5.1406,-5.1367,-5.1289,-5.124,-5.1117,-5.1058,-5.0959,-5.0911,-5.0867,-5.0867,-5.0819,-5.0747,-5.0786,-5.0959,-5.0978,-5.1025,-5.102,-5.099,-5.0978,-5.0975,-5.106,-5.1125,-5.1188,-5.125,-5.1289,-5.1328,-5.1289,-5.1188,-5.1083,-5.102,-5.0889,-5.0875,-5.0795,-5.0729,-5.0702,-5.0702,-5.0702,-5.0702,-5.0702,-5.6601,-5.6601,-5.6601,-5.6601,-5.6601,-5.6601,-5.6601,-5.6601,-5.6601,-5.6601,-5.6601,-5.6601,-5.6562,-5.6367,-5.5586,-5.4687,-5.3867,-5.293,-5.2187,-5.1601,-5.1263,-5.1267,-5.1324,-5.1263,-5.1312,-5.1367,-5.1406,-5.1406,-5.1406,-5.1406,-5.1406,-5.1406,-5.1406,-5.1406,-5.1406,-5.1406,-5.1406,-5.1406,-5.1406,-5.1406,-5.1406,-5.1406,-5.1406,-5.1406,-5.1367,-5.1367,-5.1289,-5.1247,-5.1168,-5.1053,-5.0925,-5.0945,-5.1042,-5.1113,-5.1197,-5.1245,-5.1219,-5.123,-5.1243,-5.1174,-5.1122,-5.1047,-5.0966,-5.0827,-5.0729,-5.0702,-5.0702,-5.0702,-5.0683,-5.0721,-5.0808,-5.0985,-5.1113,-5.1203,-5.1289,-5.1328,-5.1406,-5.1289,-5.1211,-5.1121,-5.1031,-5.0939,-5.0851,-5.0799,-5.0776,-5.0749,-5.074,-5.0693,-5.0702,-5.0808,-5.0803,-5.0867,-5.0918,-5.0903,-5.0874,-5.0918,-5.0978,-5.1078,-5.1164,-5.124,-5.1261,-5.1191,-5.1144,-5.1025,-5.0907,-5.0852,-5.0811,-5.0747,-5.0702,-5.0702,-5.0702,-5.0702,-5.0702,-5.0702,-5.0702,-5.6601,-5.6601,-5.6601,-5.6601,-5.6601,-5.6601,-5.6601,-5.6601,-5.6601,-5.6601,-5.6601,-5.6562,-5.6406,-5.5976,-5.5117,-5.4297,-5.3437,-5.25,-5.1914,-5.1445,-5.1261,-5.1306,-5.1261,-5.1252,-5.131,-5.1367,-5.1367,-5.1406,-5.1406,-5.1406,-5.1406,-5.1406,-5.1406,-5.1406,-5.1406,-5.1406,-5.1406,-5.1406,-5.1406,-5.1406,-5.1406,-5.1406,-5.1406,-5.1406,-5.1406,-5.1406,-5.1367,-5.1271,-5.1191,-5.1144,-5.1074,-5.1047,-5.1131,-5.12,-5.1227,-5.1227,-5.1213,-5.1174,-5.1249,-5.1227,-5.1131,-5.1063,-5.1036,-5.0939,-5.074,-5.0702,-5.0702,-5.0702,-5.0702,-5.0702,-5.0791,-5.0939,-5.1047,-5.1156,-5.1289,-5.1367,-5.1367,-5.1289,-5.1188,-5.1131,-5.099,-5.0859,-5.0816,-5.0758,-5.0702,-5.0702,-5.0712,-5.0702,-5.0702,-5.0702,-5.0702,-5.0693,-5.0799,-5.0786,-5.0782,-5.0803,-5.0874,-5.102,-5.1164,-5.1129,-5.1125,-5.1079,-5.1004,-5.0918,-5.0859,-5.0791,-5.073,-5.0673,-5.0702,-5.0702,-5.0702,-5.0702,-5.0702,-5.0702,-5.0702,-5.6601,-5.6601,-5.6601,-5.6601,-5.6601,-5.6601,-5.6601,-5.6601,-5.6601,-5.6601,-5.6562,-5.6445,-5.5937,-5.5234,-5.4375,-5.3516,-5.2734,-5.2031,-5.1523,-5.1367,-5.1211,-5.126,-5.1301,-5.1238,-5.1306,-5.1367,-5.1406,-5.1406,-5.1406,-5.1406,-5.1406,-5.1406,-5.1406,-5.1406,-5.1406,-5.1406,-5.1406,-5.1406,-5.1406,-5.1406,-5.1406,-5.1406,-5.1406,-5.1406,-5.1406,-5.1406,-5.1367,-5.1318,-5.1256,-5.1196,-5.1183,-5.1154,-5.1203,-5.1288,-5.1247,-5.1243,-5.1203,-5.1177,-5.1196,-5.1164,-5.1096,-5.1084,-5.1079,-5.0992,-5.0747,-5.0702,-5.0702,-5.0702,-5.0702,-5.0712,-5.0799,-5.0903,-5.102,-5.1133,-5.125,-5.1406,-5.1328,-5.1289,-5.1177,-5.1113,-5.0966,-5.0859,-5.0756,-5.0693,-5.0702,-5.0702,-5.0702,-5.0702,-5.0702,-5.0702,-5.0702,-5.0702,-5.073,-5.0721,-5.0673,-5.0764,-5.0859,-5.0939,-5.1053,-5.1031,-5.0996,-5.0939,-5.0898,-5.0859,-5.0791,-5.074,-5.0702,-5.0712,-5.0702,-5.0702,-5.0702,-5.0702,-5.0702,-5.0702,-5.0702,-5.6601,-5.6601,-5.6601,-5.6601,-5.6601,-5.6601,-5.6601,-5.6601,-5.6601,-5.6601,-5.6445,-5.582,-5.539,-5.5234,-5.4375,-5.3476,-5.2461,-5.1719,-5.1484,-5.1367,-5.1211,-5.1267,-5.1319,-5.1301,-5.1312,-5.1328,-5.1406,-5.1406,-5.1406,-5.1406,-5.1406,-5.1406,-5.1406,-5.1406,-5.1406,-5.1406,-5.1406,-5.1406,-5.1406,-5.1406,-5.1406,-5.1406,-5.1406,-5.1406,-5.1406,-5.1406,-5.1367,-5.1406,-5.1316,-5.1258,-5.1206,-5.1199,-5.1254,-5.1315,-5.1316,-5.1256,-5.1183,-5.1171,-5.1171,-5.1096,-5.1047,-5.1002,-5.0959,-5.0889,-5.0738,-5.0702,-5.0702,-5.0702,-5.0702,-5.0702,-5.0773,-5.0979,-5.1094,-5.1179,-5.1289,-5.1367,-5.1367,-5.1289,-5.1188,-5.1092,-5.099,-5.0852,-5.0776,-5.0702,-5.0702,-5.0702,-5.0702,-5.0702,-5.0702,-5.0702,-5.0702,-5.0702,-5.0702,-5.0702,-5.0712,-5.0782,-5.0875,-5.0911,-5.0945,-5.0945,-5.0889,-5.0816,-5.0785,-5.0764,-5.0738,-5.0693,-5.0712,-5.0702,-5.0702,-5.0702,-5.0702,-5.0702,-5.0683,-5.073,-5.0738]},{"header":{"parameterUnit":"m.s-1","parameterCategory":1,"la1":31.0,"la2":29.5877,"lo1":-88.7671,"lo2":-86.6584,"dy":0.0162,"dx":0.0185,"nx":115,"ny":88,"refTime":"2026-05-05T00:00:00:Z","depth":0,"parameterNumber":3,"parameterNumberName":"V-component_of_WINDS"},"data":[0.0,0.0,0.0,0.0,0.0,0.0,0.0,0.0,0.0,0.0,0.0,0.0,0.0,0.0,0.0,0.0,0.0,0.0,0.0,0.0,0.0,0.0,0.0,0.0,0.0,0.0,0.0,0.0,0.0,0.0,0.0,0.0,0.0,0.0,0.0,0.0,0.0,0.0,0.0,0.0,0.0,0.0,0.0,0.0,0.0,0.0,0.0,0.0,0.0,0.0,0.0,0.0,0.0,0.0,0.0,0.0,0.0,0.0,0.0,0.0,0.0,0.0,0.0,0.0,0.0,0.0,0.0,0.0,0.0,0.0,0.0,0.0,0.0,0.0,0.0,0.0,0.0,0.0,0.0,0.0,0.0,0.0,0.0,0.0,0.0,0.0,0.0,0.0,0.0,0.0,0.0,0.0,0.0,0.0,0.0,0.0,0.0,0.0,0.0,0.0,0.0,0.0,0.0,0.0,0.0,0.0,0.0,0.0,0.0,0.0,0.0,0.0,0.0,0.0,0.0,0.0,0.0,0.0,0.0,0.0,0.0,0.0,0.0,0.0,0.0,0.0,0.0,0.0,0.0,0.0,0.0,0.0,0.0,0.0,0.0,0.0,0.0,0.0,0.0,0.0,0.0,0.0,0.0,0.0,0.0,0.0,0.0,0.0,0.0,0.0,0.0,0.0,0.0,0.0,0.0,0.0,0.0,0.0,0.0,0.0,0.0,0.0,0.0,0.0,0.0,0.0,0.0,0.0,0.0,0.0,0.0,0.0,0.0,0.0,0.0,0.0,0.0,0.0,0.0,0.0,0.0,0.0,0.0,0.0,0.0,0.0,0.0,0.0,0.0,0.0,0.0,0.0,0.0,0.0,0.0,0.0,0.0,0.0,0.0,0.0,0.0,0.0,0.0,0.0,0.0,0.0,0.0,0.0,0.0,0.0,0.0,0.0,0.0,0.0,0.0,0.0,0.0,0.0,0.0,0.0,0.0,0.0,0.0,0.0,0.0,0.0,0.0,0.0,0.0,0.0,0.0,0.0,0.0,0.0,0.0,0.0,0.0,0.0,0.0,0.0,0.0,0.0,0.0,0.0,0.0,0.0,0.0,0.0,0.0,0.0,0.0,0.0,0.0,0.0,0.0,0.0,0.0,0.0,0.0,0.0,0.0,0.0,0.0,0.0,0.0,0.0,0.0,0.0,0.0,0.0,0.0,0.0,0.0,0.0,0.0,0.0,0.0,0.0,0.0,0.0,0.0,0.0,0.0,0.0,0.0,0.0,0.0,0.0,0.0,0.0,0.0,0.0,0.0,0.0,0.0,0.0,0.0,0.0,0.0,0.0,0.0,0.0,0.0,0.0,0.0,0.0,0.0,0.0,0.0,0.0,0.0,0.0,0.0,0.0,0.0,0.0,0.0,0.0,0.0,0.0,0.0,0.0,0.0,0.0,0.0,0.0,0.0,0.0,0.0,0.0,0.0,0.0,0.0,0.0,0.0,0.0,0.0,0.0,0.0,0.0,0.0,0.0,0.0,0.0,0.0,0.0,0.0,0.0,0.0,0.0,0.0,0.0,0.0,0.0,0.0,0.0,0.0,0.0,0.0,0.0,0.0,0.0,0.0,0.0,0.0,0.0,0.0,0.0,0.0,0.0,0.0,0.0,0.0,0.0,0.0,0.0,0.0,0.0,0.0,0.0,0.0,0.0,0.0,0.0,0.0,0.0,0.0,0.0,0.0,0.0,0.0,0.0,0.0,0.0,0.0,0.0,0.0,0.0,0.0,0.0,0.0,0.0,0.0,0.0,0.0,0.0,0.0,0.0,0.0,0.0,0.0,0.0,0.0,0.0,0.0,0.0,0.0,0.0,0.0,0.0,0.0,0.0,0.0,0.0,0.0,0.0,0.0,0.0,0.0,0.0,0.0,0.0,0.0,0.0,0.0,0.0,0.0,0.0,0.0,0.0,0.0,0.0,0.0,0.0,0.0,0.0,0.0,0.0,0.0,0.0,0.0,0.0,0.0,0.0,0.0,0.0,0.0,0.0,0.0,0.0,0.0,0.0,0.0,0.0,0.0,0.0,0.0,0.0,0.0,0.0,0.0,0.0,0.0,0.0,0.0,0.0,0.0,0.0,0.0,0.0,0.0,0.0,0.0,0.0,0.0,0.0,0.0,0.0,0.0,0.0,0.0,0.0,0.0,0.0,0.0,0.0,0.0,0.0,0.0,0.0,0.0,0.0,0.0,0.0,0.0,0.0,0.0,0.0,0.0,0.0,0.0,0.0,0.0,0.0,0.0,0.0,0.0,0.0,0.0,0.0,0.0,0.0,0.0,0.0,0.0,0.0,0.0,0.0,0.0,0.0,0.0,0.0,0.0,0.0,0.0,0.0,0.0,0.0,0.0,0.0,0.0,0.0,0.0,0.0,0.0,0.0,0.0,0.0,0.0,0.0,0.0,0.0,0.0,0.0,0.0,0.0,0.0,0.0,0.0,0.0,0.0,0.0,0.0,0.0,0.0,0.0,0.0,0.0,0.0,0.0,0.0,0.0,0.0,0.0,0.0,0.0,0.0,0.0,0.0,0.0,0.0,0.0,0.0,0.0,0.0,0.0,0.0,0.0,0.0,0.0,0.0,0.0,0.0,0.0,0.0,0.0,0.0,0.0,0.0,0.0,0.0,0.0,0.0,0.0,0.0,0.0,0.0,0.0,0.0,0.0,0.0,0.0,0.0,0.0,0.0,0.0,0.0,0.0,0.0,0.0,0.0,0.0,0.0,0.0,0.0,0.0,0.0,0.0,0.0,0.0,0.0,0.0,0.0,0.0,0.0,0.0,0.0,0.0,0.0,0.0,0.0,0.0,0.0,0.0,0.0,0.0,0.0,0.0,0.0,0.0,0.0,0.0,0.0,0.0,0.0,0.0,0.0,0.0,0.0,0.0,0.0,0.0,0.0,0.0,0.0,0.0,0.0,0.0,0.0,0.0,0.0,0.0,0.0,0.0,0.0,0.0,0.0,0.0,0.0,0.0,0.0,0.0,0.0,0.0,0.0,0.0,0.0,0.0,0.0,0.0,0.0,0.0,0.0,0.0,0.0,0.0,0.0,0.0,0.0,0.0,0.0,0.0,0.0,0.0,0.0,0.0,0.0,0.0,0.0,0.0,0.0,0.0,0.0,0.0,0.0,0.0,0.0,0.0,0.0,0.0,0.0,0.0,0.0,0.0,0.0,0.0,0.0,0.0,0.0,0.0,0.0,0.0,0.0,0.0,0.0,0.0,0.0,0.0,0.0,0.0,0.0,0.0,0.0,0.0,0.0,0.0,0.0,0.0,0.0,0.0,0.0,0.0,0.0,0.0,0.0,0.0,0.0,0.0,0.0,0.0,0.0,0.0,0.0,0.0,0.0,0.0,0.0,0.0,0.0,0.0,0.0,0.0,0.0,0.0,0.0,0.0,0.0,0.0,0.0,0.0,0.0,0.0,0.0,0.0,0.0,0.0,0.0,0.0,0.0,0.0,0.0,0.0,0.0,0.0,0.0,0.0,0.0,0.0,0.0,0.0,0.0,0.0,0.0,0.0,0.0,0.0,0.0,0.0,0.0,0.0,0.0,0.0,0.0,0.0,0.0,0.0,0.0,0.0,0.0,0.0,0.0,0.0,0.0,0.0,0.0,0.0,0.0,0.0,0.0,0.0,0.0,0.0,0.0,0.0,0.0,0.0,0.0,0.0,0.0,0.0,0.0,0.0,0.0,0.0,0.0,0.0,0.0,0.0,0.0,0.0,0.0,0.0,0.0,0.0,0.0,0.0,0.0,0.0,0.0,0.0,0.0,0.0,0.0,0.0,0.0,0.0,0.0,0.0,0.0,0.0,0.0,0.0,0.0,0.0,0.0,0.0,0.0,0.0,0.0,0.0,0.0,0.0,0.0,0.0,0.0,0.0,0.0,0.0,0.0,0.0,0.0,0.0,0.0,0.0,0.0,0.0,0.0,0.0,0.0,0.0,0.0,0.0,0.0,0.0,0.0,0.0,0.0,0.0,0.0,0.0,0.0,0.0,0.0,0.0,0.0,0.0,0.0,0.0,0.0,0.0,0.0,0.0,0.0,0.0,0.0,0.0,0.0,0.0,0.0,0.0,0.0,0.0,0.0,0.0,0.0,0.0,0.0,0.0,0.0,0.0,0.0,0.0,0.0,0.0,0.0,0.0,0.0,0.0,0.0,0.0,0.0,0.0,0.0,0.0,0.0,0.0,0.0,0.0,0.0,0.0,0.0,0.0,0.0,0.0,0.0,0.0,0.4836,0.0,0.0,0.0,0.0,0.0,0.0,0.0,0.0,0.0,0.0,0.0,0.0,0.0,0.0,0.0,0.0,0.0,0.0,0.0,0.0,0.0,0.0,0.0,0.0,0.0,0.0,0.0,0.0,0.0,0.0,0.0,0.0,0.0,0.0,0.0,0.0,0.0,0.0,0.0,0.0,0.0,0.0,0.0,0.0,0.0,0.0,0.0,0.0,0.0,0.0,0.0,0.0,0.0,0.0,0.0,0.0,0.0,0.0,0.0,0.0,0.0,0.0,0.0,0.0,0.0,0.0,0.0,0.0,0.0,0.0,0.0,0.0,0.0,0.0,0.0,0.0,0.0,0.0,0.0,0.0,0.0,0.0,0.0,0.0,0.0,0.0,0.0,0.0,0.0,0.0,0.0,0.0,0.0,0.0,0.0,0.0,0.0,0.0,0.0,0.0,0.0,0.0,0.0,0.0,0.0,0.0,0.0,0.0,0.0,0.0,0.0269,0.0807,0.2318,0.335,0.393,0.0,0.0,0.0,0.0,0.0,0.0,0.0,0.0,0.0,0.0,0.0,0.0,0.0,0.0,0.0,0.0,0.0,0.0,0.0,0.0,0.0,0.0,0.0,0.0,0.0,0.0,0.0,0.0,0.0,0.0,0.0,0.0,0.0,0.0,0.0,0.0,0.0,0.0,0.0,0.0,0.0,0.0,0.0,0.0,0.0,0.0,0.0,0.0,0.0,0.0,0.0,0.0,0.0,0.0,0.0,0.0,0.0,0.0,0.0,0.0,0.0,0.0,0.0,0.0,0.0,0.0,0.0,0.0,0.0,0.0,0.0,0.0,0.0,0.0,0.0,0.0,0.0,0.0,0.0,0.0,0.0,0.0,0.0,0.0,0.0,0.0,0.0,0.0,0.0,0.0,0.0,0.0,0.0,0.0,0.0,0.0,0.0,0.0,0.0,0.0,0.0,0.0,0.0,0.0,0.0,0.0,0.0,0.0,0.0,0.0,0.0,0.0,0.2106,0.3486,0.3934,0.0,0.0,0.0,0.0,0.0,0.0,0.0,0.0,0.0,0.0,0.0,0.0,0.0,0.0,0.0,0.0,0.0,0.0,0.0,0.0,0.0,0.0,0.0,0.0,0.0,0.0,0.0,0.0,0.0,0.0,0.0,0.0,0.0,0.0,0.0,0.0,0.0,0.0,0.0,0.0,0.0,0.0,0.0,0.0,0.0,0.0,0.0,0.0,0.0,0.0,0.0,0.0,0.0,0.0,0.0,0.0,0.0,0.0,0.0,0.0,0.0,0.0,0.0,0.0,0.0,0.0,0.0,0.0,0.0,0.0,0.0,0.0,0.0,0.0,0.0,0.0,0.0,0.0,0.0,0.0,0.0,0.0,0.0,0.0,0.0,0.0,0.0,0.0,0.0,0.0,0.0,0.0,0.0,0.0,0.0,0.0,0.0,0.0,0.0,0.0,0.0,0.0,0.0,0.0,0.0,0.0,0.0,0.0,0.0,0.0,0.0,0.0,0.2427,0.0,0.6229,0.0,0.0,0.0,0.0,0.0,0.0,0.0,0.0,0.0,0.0,0.0,0.0,0.0,0.0,0.0,0.0,0.0,0.0,0.0,0.0,0.0,0.0,0.0,0.0,0.0,0.0,0.0,0.0,0.0,0.0,0.0,0.0,0.0,0.0,0.0,0.0,0.0,0.0,0.0,0.0,0.0,0.0,0.0,0.0,0.0,0.0,0.0,0.0,0.0,0.0,0.0,0.0,0.0,0.0,0.0,0.0,0.0,0.0,0.0,0.0,0.0,0.0,0.0,0.0,0.0,0.0,0.0,0.0,0.0,0.0,0.0,0.0,0.0,0.0,0.0,0.0,0.0,0.0,0.0,0.0,0.0,0.0,0.0,0.0,0.0,0.0,0.0,0.0,0.0,0.0,0.0,0.0,0.0,0.0,0.0,0.0,0.0,0.0,0.0,0.0,0.0,0.0,0.0,0.0,0.0,0.0,0.0,0.0,0.0,0.0,0.0,0.0,0.2104,0.4359,0.0,0.0,0.0,0.0,0.0,0.0,0.0,0.0,0.0,0.0,0.0,0.0,0.0,0.0,0.0,0.0,0.0,0.0,0.0,0.0,0.0,0.0,0.0,0.0,0.0,0.0,0.0,0.0,0.0,0.0,0.0,0.0,0.0,0.0,0.0,0.0,0.0,0.0,0.0,0.0,0.0,0.0,0.0,0.0,0.0,0.0,0.0,0.0,0.0,0.0,0.0,0.0,0.0,0.0,0.0,0.0,0.0,0.0,0.0,0.0,0.0,0.0,0.0,0.0,0.0,0.0,0.0,0.0,0.0,0.0,0.0,0.0,0.0,0.0,0.0,0.0,0.0,0.0,0.0,0.0,0.0,0.0,0.0,0.0,0.0,0.0,0.0,0.0,0.0,0.0,0.0,0.0,0.0,0.0,0.0,0.0,0.0,0.0,0.0,0.0,0.0,0.0,0.0,0.0,0.0,0.0,0.0,0.0,0.0,0.0,0.0,0.0333,0.1053,0.2525,0.4372,0.6565,0.0,0.0,0.0,0.0,0.0,0.0,0.0,0.0,0.0,0.0,0.0,0.0,0.0,0.0,0.0,0.0,0.0,0.0,0.0,0.0,0.0,0.0,0.0,0.0,0.0,0.0,0.0,0.0,0.0,0.0,0.0,0.0,0.0,0.0,0.0,0.0,0.0,0.0,0.0,0.0,0.0,0.0,0.0,0.0,0.0,0.0,0.0,0.0,0.0,0.0,0.0,0.0,0.0,0.0,0.0,0.0,0.0,0.0,0.0,0.0,0.0,0.0,0.0,0.0,0.0,0.0,0.0,0.0,0.0,0.0,0.0,0.0,0.0,0.0,0.0,0.0,0.0,0.0,0.0,0.0,0.0,0.0,0.0,0.0,0.0,0.0,0.0,0.0,0.0,0.0,0.0,0.0,0.0,0.0,0.0,0.0,0.0,0.0,0.0,0.0,0.0,0.0,0.0,0.0,0.0,0.0,0.0,0.0,0.0,0.0,0.1177,0.3464,0.4134,0.5059,0.0,0.0,0.0,0.0,0.0,0.0,0.0,0.0,0.0,0.0,0.0,0.0,0.0,0.0,0.0,0.0,0.0,0.0,0.0,0.0,0.0,0.0,0.0,0.0,0.0,0.0,0.0,0.0,0.0,0.0,0.0,0.0,0.0,0.0,0.0,0.0,0.0,0.0,0.0,0.0,0.0,0.0,0.0,0.0,0.0,0.0,0.0,0.0,0.0,0.0,0.0,0.0,0.0,0.0,0.0,0.0,0.0,0.0,0.0,0.0,0.0,0.0,0.0,0.0,0.0,0.0,0.0,0.0,0.0,0.0,0.0,0.0,0.0,0.0,0.0,0.0,0.0,0.0,0.0,0.0,0.0,0.0,0.0,0.0,0.0,0.0,0.0,0.0,0.0,0.0,0.0,0.0,0.0,0.0,0.0,0.0,0.0,0.0,0.0,0.0,0.0,0.0,0.0,0.0,0.0,0.0,0.0,0.0,0.0,0.0,0.0,0.1374,0.4092,0.3665,0.4437,0.0,0.0,0.0,0.0,0.0,0.0,0.0,0.0,0.0,0.0,0.0,0.0,0.0,0.0,0.0,0.0,0.0,0.0,0.0,0.0,0.0,0.0,0.0,0.0,0.0,0.0,0.0,0.0,0.0,0.0,0.0,0.0,0.0,0.0,0.0,0.0,0.0,0.0,0.0,0.0,0.0,0.0,0.0,0.0,0.0,0.0,0.0,0.0,0.0,0.0,0.0,0.0,0.0,0.0,0.0,0.0,0.0,0.0,0.0,0.0,0.0,0.0,0.0,0.0,0.0,0.0,0.0,0.0,0.0,0.0,0.0,0.0,0.0,0.0,0.0,0.0,0.0,0.0,0.0,0.0,0.0,0.0,0.0,0.0,0.0,0.0,0.0,0.0,0.0,0.0,0.0,0.0,0.0,0.0,0.0,0.0,0.0,0.0,0.0,0.0,0.0,0.0,0.0,0.0,0.0,0.0,0.0,0.0,0.0,0.0,0.0,0.1116,0.0,0.3228,0.3926,0.0,0.0,0.0,0.0,0.0,0.0,0.0,0.0,0.0,0.0,0.0,0.0,0.0,0.0,0.0,0.0,0.0,0.0,0.0,0.0,0.0,0.0,0.0,0.0,0.0,0.0,0.0,0.0,0.0,0.0,0.0,0.0,0.0,0.0,0.0,0.0,0.0,0.0,0.0,0.0,0.0,0.0,0.0,0.0,0.0,0.0,0.0,0.0,0.0,0.0,0.0,0.0,0.0,0.0,0.0,0.0,0.0,0.0,0.0,0.0,0.0,0.0,0.0,0.0,0.0,0.0,0.0,0.0,0.0,0.0,0.0,0.0,0.0,0.0,0.0,0.0,0.0,0.0,0.0,0.0,0.0,0.0,0.0,0.0,0.0,0.0,0.0,0.0,0.0,0.0,0.0,0.0,0.0,0.0,0.0,0.0,0.0,0.0,0.0,0.0,0.0,0.0,0.0,0.0,0.0,0.0,0.0,0.0,0.0,0.0,0.0,0.0554,0.1625,0.288,0.3736,0.0,0.0,0.0,0.0,0.0,0.0,0.0,0.0,0.0,0.0,0.0,0.0,0.0,0.0,0.0,0.0,0.0,0.0,0.0,0.0,0.0,0.0,0.0,0.0,0.0,0.0,0.0,0.0,0.0,0.0,0.0,0.0,0.0,0.0,0.0,0.0,0.0,0.0,0.0,0.0,0.0,0.0,0.0,0.0,0.0,0.0,0.0,0.0,0.0,0.0,0.0,0.0,0.0,0.0,0.0,0.0,0.0,0.0,0.0,0.0,0.0,0.0,0.0,0.0,0.0,0.0,0.0,0.0,0.0,0.0,0.0,0.0,0.0,0.0,0.0,0.0,0.0,0.0,0.0,0.0,0.0,0.0,0.0,0.0,0.0,0.0,0.0,0.0,0.0,0.0,0.0,0.0,0.0,0.0,0.0,0.0,0.0,0.0,0.0,0.0,0.0,0.0,0.0,0.0,0.0,0.0,0.0,0.0,0.0,0.0,0.0,0.0643,0.1976,0.2744,0.357,0.0,0.0,0.0,0.0,0.0,0.0,0.0,0.0,0.0,0.0,0.0,0.0,0.0,0.0,0.0,0.0,0.0,0.0,0.0,0.0,0.0,0.0,0.0,0.0,0.0,0.0,0.0,0.0,0.0,0.0,0.0,0.0,0.0,0.0,0.0,0.0,0.0,0.0,0.0,0.0,0.0,0.0,0.0,0.0,0.0,0.0,0.0,0.0,0.0,0.0,0.0,0.0,0.0,0.0,0.0,0.0,0.0,0.0,0.0,0.0,0.0,0.0,0.0,0.0,0.0,0.0,0.0,0.0,0.0,0.0,0.0,0.0,0.0,0.0,0.0,0.0,0.0,0.0,0.0,0.0,0.0,0.0,0.0,0.0,0.0,0.0,0.0,0.0,0.0,0.0,0.0,0.0,0.0,0.0,0.0,0.0,0.0,0.0,0.0,0.0,0.0,0.0,0.0,0.0,0.0,0.0,0.0,0.0,0.0,0.0,0.0,0.0675,0.2105,0.2647,0.3445,0.4569,0.0,0.0,0.0,0.0,0.0,0.0,0.0,0.0,0.0,0.0,0.0,0.0,0.0,0.0,0.0,0.0,0.0,0.0,0.0,0.0,0.0,0.0,0.0,0.0,0.0,0.0,0.0,0.0,0.0,0.0,0.0,0.0,0.0,0.0,0.0,0.0,0.0,0.0,0.0,0.0,0.0,0.0,0.0,0.0,0.0,0.0,0.0,0.0,0.0,0.0,0.0,0.0,0.0,0.0,0.0,0.0,0.0,0.0,0.0,0.0,0.0,0.0,0.0,0.0,0.0,0.0,0.0,0.0,0.0,0.0,0.0,0.0,0.0,0.0,0.0,0.0,0.0,0.0,0.0,0.0,0.0,0.0,0.0,0.0,0.0,0.0,0.0,0.0,0.0,0.0,0.0,0.0,0.0,0.0,0.0,0.0,0.0,0.0,0.0,0.0,0.0,0.0,0.0,0.0,0.0,0.0,0.0,0.0,0.0,0.0,0.0689,0.1991,0.2633,0.3419,0.0,0.0,0.0,0.0,0.0,0.0,0.0,0.0,0.0,0.0,0.0,0.0,0.0,0.0,0.0,0.0,0.0,0.0,0.0,0.0,0.0,0.0,0.0,0.0,0.0,0.0,0.0,0.0,0.0,0.0,0.0,0.0,0.0,0.0,0.0,0.0,0.0,0.0,0.0,0.0,0.0,0.0,0.0,0.0,0.0,0.0,0.0,0.0,0.0,0.0,0.0,0.0,0.0,0.0,0.0,0.0,0.0,0.0,0.0,0.0,0.0,0.0,0.0,0.0,0.0,0.0,0.0,0.0,0.0,0.0,0.0,0.0,0.0,0.0,0.0,0.0,0.0,0.0,0.0,0.0,0.0,0.0,0.0,0.0,0.0,0.0,0.0,0.0,0.0,0.0,0.0,0.0,0.0,0.0,0.0,0.0,0.0,0.0,0.0,0.0,0.0,0.0,0.0,0.0,0.0,0.0,0.0,0.0,0.0,0.0,0.0,0.0742,0.2314,0.2928,0.3771,0.0,0.0,0.0,0.0,0.0,0.0,0.0,0.0,0.0,0.0,0.0,0.0,0.0,0.0,0.0,0.0,0.0,0.0,0.0,0.0,0.0,0.0,0.0,0.0,0.0,0.0,0.0,0.0,0.0,0.0,0.0,0.0,0.0,0.0,0.0,0.0,0.0,0.0,0.0,0.0,0.0,0.0,0.0,0.0,0.0,0.0,0.0,0.0,0.0,0.0,0.0,0.0,0.0,0.0,0.0,0.0,0.0,0.0,0.0,0.0,0.0,0.0,0.0,0.0,0.0,0.0,0.0,0.0,0.0,0.0,0.0,0.0,0.0,0.0,0.0,0.0,0.0,0.0,0.0,0.0,0.0,0.0,0.0,0.0,0.0,0.0,0.0,0.0,0.0,0.0,0.0,0.0,0.0,0.0,0.0,0.0,0.0,0.0,0.0,0.0,0.0,0.0,0.0,0.0,0.0,0.0,0.0,0.0,0.0,0.0,0.0,0.1101,0.345,0.3586,0.4435,0.0,0.0,0.0,0.0,0.0,0.0,0.0,0.0,0.0,0.0,0.0,0.0,0.0,0.0,0.0,0.0,0.0,0.0,0.0,0.0,0.0,0.0,0.0,0.0,0.0,0.0,0.0,0.0,0.0,0.0,0.0,0.0,0.0,0.0,0.0,0.0,0.0,0.0,0.0,0.0,0.0,0.0,0.0,0.0,0.0,0.0,0.0,0.0,0.0,0.0,0.0,0.0,0.0,0.0,0.0,0.0,0.0,0.0,0.0,0.0,0.0,0.0,0.0,0.0,0.0,0.0,0.0,0.0,0.0,0.0,0.0,0.0,0.0,0.0,0.0,0.0,0.0,0.0,0.0,0.0,0.0,0.0,0.0,0.0,0.0,0.0,0.0,0.0,0.0,0.0,0.0,0.0,0.0,0.0,0.0,0.0,0.0,0.0,0.0,0.0,0.0,0.0,0.0,0.0,0.0,0.0,0.0,0.0,0.0,0.0,0.0,0.159,0.4686,0.4298,0.5087,0.0,0.0,0.0,0.0,0.0,0.0,0.0,0.0,0.0,0.0,0.0,0.0,0.0,0.0,0.0,0.0,0.0,0.0,0.0,0.0,0.0,0.0,0.0,0.0,0.0,0.0,0.0,0.0,0.0,0.0,0.0,0.0,0.0,0.0,0.0,0.0,0.0,0.0,0.0,0.0,0.0,0.0,0.0,0.0,0.0,0.0,0.0,0.0,0.0,0.0,0.0,0.0,0.0,0.0,0.0,0.0,0.0,0.0,0.0,0.0,0.0,0.0,0.0,0.0,0.0,0.0,0.0,0.0,0.0,0.0,0.0,0.0,0.0,0.0,0.0,0.0,0.0,0.0,0.0,0.0,0.0,0.0,0.0,0.0,0.0,0.0,0.0,0.0,0.0,0.0,0.0,0.0,0.0,0.0,0.0,0.0,0.0,0.0,0.0,0.0,0.0,0.0,0.0,0.0,0.0,0.0,0.0,0.0,0.0,0.0,0.0,0.1591,0.4817,0.419,0.5076,0.0,0.0,0.0,0.0,0.0,0.0,0.0,0.0,0.0,0.0,0.0,0.0,0.0,0.0,0.0,0.0,0.0,0.0,0.0,0.0,0.0,0.0,0.0,0.0,0.0,0.0,0.0,0.0,0.0,0.0,0.0,0.0,0.0,0.0,0.0,0.0,0.0,0.0,0.0,0.0,0.0,0.0,0.0,0.0,0.0,0.0,0.0,0.0,0.0,0.0,0.0,0.0,0.0,0.0,0.0,0.0,0.0,0.0,0.0,0.0,0.0,0.0,0.0,0.0,0.0,0.0,0.0,0.0,0.0,0.0,0.0,0.0,0.0,0.0,0.0,0.0,0.0,0.0,0.0,0.0,0.0,0.0,0.0,0.0,0.0,0.0,0.0,0.0,0.0,0.0,0.0,0.0,0.0,0.0,0.0,0.0,0.0,0.0,0.0,0.0,0.0,0.0,0.0,0.0,0.0,0.0,0.0,0.0,0.0,0.0,0.0779,0.2343,0.476,0.5085,0.6019,0.0,0.0,0.0,0.0,0.0,0.0,0.0,0.0,0.0,0.0,0.0,0.0,0.0,0.0,0.0,0.0,0.0,0.0,0.0,0.0,0.0,0.0,0.0,0.0,0.0,0.0,0.0,0.0,0.0,0.0,0.0,0.0,0.0,0.0,0.0,0.0,0.0,0.0,0.0,0.0,0.0,0.0,0.0,0.0,0.0,0.0,0.0,0.0,0.0,0.0,0.0,0.0,0.0,0.0,0.0,0.0,0.0,0.0,0.0,0.0,0.0,0.0,0.0,0.0,0.0,0.0,0.0,0.0,0.0,0.0,0.0,0.0,0.0,0.0,0.0,0.0,0.0,0.0,0.0,0.0,0.0,0.0,0.0,0.0,0.0,0.0,0.0,0.0,0.0,0.0,0.0,0.0,0.0,0.0,0.0,0.0,0.0,0.0,0.0,0.0,0.0,0.0,0.0,0.0,0.0,0.0,0.0,0.0,0.0,0.0,0.1665,0.3254,0.4834,0.6064,0.7104,0.7922,0.0,0.0,0.0,0.0,0.0,0.0,0.0,0.0,0.0,0.0,0.0,0.0,0.0,0.0,0.0,0.0,0.0,0.0,0.0,0.0,0.0,0.0,0.0,0.0,0.0,0.0,0.0,0.0,0.0,0.0,0.0,0.0,0.0,0.0,0.0,0.0,0.0,0.0,0.0946,0.0385,0.0,0.0,0.0,0.0,0.0,0.0,0.0,0.0,0.0,0.0,0.0,0.0,0.0,0.0,0.0,0.0,0.0,0.0,0.0,0.0,0.0,0.0,0.0,0.0,0.0,0.0,0.0,0.0,0.0,0.0,0.0,0.0,0.0,0.0,0.0,0.0,0.0,0.0,0.0,0.0,0.0,0.0,0.0,0.0,0.0,0.0,0.0,0.0,0.0,0.0,0.0,0.0,0.0,0.0,0.0,0.0,0.0,0.0,0.0,0.0,0.0,0.0,0.0,0.0,0.0,0.0,0.0,0.0,0.0,0.1617,0.3254,0.4831,0.606,0.7104,0.7915,0.0,0.0,0.0,0.0,0.0,0.0,0.0,0.0,0.0,0.0,0.0,0.0,0.0,0.0,0.0,0.0,0.0,0.0,0.0,0.0,0.0,0.0,0.0,0.0,0.0,0.0,0.0,0.0,0.0,0.0,0.0,0.0,0.0,0.0,0.0,0.0,0.0,0.0,0.0,0.0079,0.0,0.0,0.0,0.0,0.0,0.0,0.0,0.0,0.0,0.0,0.0,0.0,0.0,0.0,0.0,0.0,0.0,0.0,0.0,0.0,0.0,0.0,0.0,0.0,0.0,0.0,0.0,0.0,0.0,0.0,0.0,0.0,0.0,0.0,0.0,0.0,0.0,0.0,0.0,0.0,0.0,0.0,0.0,0.0,0.0,0.0,0.0,0.0,0.0,0.0,0.0,0.0,0.0,0.0,0.0,0.0,0.0,0.0,0.0,0.0,0.0,0.0,0.0,0.0,0.0,0.0,0.0,0.0,0.0,0.248,0.413,0.4899,0.6661,0.7736,0.0,0.0,0.0,0.0,0.0,0.0,0.0,0.0,0.0,0.0,0.0,0.0,0.0,0.0,0.0,0.0,0.0,0.0,0.0,0.0,0.0,0.0,0.0,0.0,0.0,0.0,0.0,0.0,0.0,0.0,0.0,0.0,0.0,0.0,0.0,0.0,0.0,0.0,0.0,0.0,0.0,0.0,0.0,0.0,0.0,0.0,0.0,0.0,0.0,0.0,0.0,0.0,0.0,0.0,0.0,0.0,0.0,0.0,0.0,0.0,0.0,0.0,0.0,0.0,0.0,0.0,0.0,0.0,0.0,0.0,0.0,0.0,0.0,0.0,0.0,0.0,0.0,0.0,0.0,0.0,0.0,0.0,0.0,0.0,0.0,0.0,0.0,0.0,0.0,0.0,0.0,0.0,0.0,0.0,0.0,0.0,0.0,0.0,0.0,0.0,0.0,0.0,0.0,0.0,0.0,0.0,0.0,0.0,0.0,0.0,0.3189,0.492,0.4971,0.7265,0.8336,0.0,0.0,0.0,0.0,0.0,0.0,0.0,0.0,0.0,0.0,0.0,0.0,0.0,0.0,0.0,0.0,0.0,0.0,0.0,0.0,0.0,0.0,0.0,0.0,0.0,0.0,0.0,0.0,0.0,0.0,0.0,0.0,0.0,0.0,0.0,0.0,0.0,0.0,0.0,0.0,0.0,0.0,0.0,0.0,0.0,0.0,0.0,0.0,0.0,0.0,0.0,0.0,0.0,0.0,0.0,0.0,0.0,0.0,0.0,0.0,0.0,0.0,0.0,0.0,0.0,0.0,0.0,0.0,0.0,0.0,0.0,0.0,0.0,0.0,0.0,0.0,0.0,0.0,0.0,0.0,0.0,0.0,0.0,0.0,0.0,0.0,0.0,0.0,0.0,0.0,0.0,0.0,0.0,0.0,0.0,0.0,0.0,0.0,0.0,0.0,0.0,0.0,0.0,0.0,0.0,0.0,0.0,0.0,0.0,0.0,0.3251,0.492,0.4974,0.7486,0.8494,0.0,0.0,0.0,0.0,0.0,0.0,0.0,0.0,0.0,0.0,0.0,0.0,0.0,0.0,0.0,0.0,0.0,0.0,0.0,0.0,0.0,0.0,0.0,0.0,0.0,0.0,0.0,0.0,0.0,0.0,0.0,0.0,0.0,0.0,0.0,0.0,0.0,0.0,0.0,0.0,0.0,0.0,0.0,0.0,0.0,0.0,0.0,0.0,0.0,0.0,0.0,0.0,0.0,0.0,0.0,0.0,0.0,0.0,0.0,0.0,0.0,0.0,0.0,0.0,0.0,0.0,0.0,0.0,0.0,0.0,0.0,0.0,0.0,0.0,0.0,0.0,0.0,0.0,0.0,0.0,0.0,0.0,0.0,0.0,0.0,0.0,0.0,0.0,0.0,0.0,0.0,0.0,0.0,0.0,0.0,0.0,0.0,0.0,0.0,0.0,0.0,0.0,0.0,0.0,0.0,0.0,0.0,0.0,0.0,0.0,0.3235,0.4835,0.4791,0.7095,0.8062,0.0,0.0,0.0,0.0,0.0,0.0,0.0,0.0,0.0,0.0,0.0,0.0,0.0,0.0,0.0,0.0,0.0,0.0,0.0,0.0,0.0,0.0,0.0,0.0,0.0,0.0,0.0,0.0,0.0,0.0,0.0,0.0,0.0,0.0,0.0,0.0,0.0,0.0,0.0,0.0,0.0,0.0,0.0,0.0,0.0,0.0,0.0,0.0,0.0,0.0,0.0,0.0,0.0,0.0,0.0,0.0,0.0,0.0,0.0,0.0,0.0,0.0,0.0,0.0,0.0,0.0,0.0,0.0,0.0,0.0,0.0,0.0,0.0,0.0,0.0,0.0,0.0,0.0,0.0,0.0,0.0,0.0,0.0,0.0,0.0,0.0,0.0,0.0,0.0,0.0,0.0,0.0,0.0,0.0,0.0,0.0,0.0,0.0,0.0,0.0,0.0,0.0,0.0,0.0,0.0,0.0,0.0,0.0,0.0181,0.0693,0.341,0.5,0.5335,0.7169,0.0,0.0,0.0,0.0,0.0,0.0,0.0,0.0,0.0,0.0,0.0,0.0,0.0,0.0,0.0,0.0,0.0,0.0,0.0,0.0,0.0,0.0,0.0,0.0,0.0,0.0,0.0,0.3239,0.0,0.0,0.0,0.0,0.0,0.0,0.0,0.0,0.0,0.0,0.0,0.0,0.0,0.0,0.0,0.0,0.0,0.0,0.0,0.0,0.0,0.0,0.0,0.0,0.0,0.0,0.0,0.0,0.0,0.0,0.0,0.0,0.0,0.0,0.0,0.0,0.0,0.0,0.0,0.0,0.0,0.0,0.0,0.0,0.0,0.0,0.0,0.0,0.0,0.0,0.0,0.0,0.0,0.0,0.0,0.0,0.0,0.0,0.0,0.0,0.0,0.0,0.0,0.0,0.0,0.0,0.0,0.0,0.0,0.0,0.0,0.0,0.0,0.0,0.0,0.0,0.0,0.0,0.0,0.0,0.0,0.0722,0.2325,0.4029,0.5551,0.6896,0.8035,0.818,0.0,0.0,0.0,0.0,0.0,0.0,0.0,0.0,0.0,0.0,0.0,0.0,0.0,0.0,0.0,0.0,0.0,0.0,0.0,0.0,0.0,0.0,0.0,0.0,0.0,0.0,0.0,0.0,0.0,0.0,0.0,0.0,0.0,0.0,0.0,0.0,0.0,0.0,0.0,0.0,0.0,0.0,0.0,0.0,0.0,0.0,0.0,0.0,0.0,0.0,0.0,0.0,0.0,0.0,0.0,0.0,0.0,0.0,0.0,0.0,0.0,0.0,0.0,0.0,0.0,0.0,0.0,0.0,0.0,0.0,0.0,0.0,0.0,0.0,0.0,0.0,0.0,0.0,0.0,0.0,0.0,0.0,0.0,0.0,0.0,0.0,0.0,0.0,0.0,0.0,0.0,0.0,0.0,0.0,0.0,0.0,0.0,0.0,0.0,0.0,0.0,0.0,0.0,0.0,0.0,0.0,0.0,0.0,0.0839,0.2479,0.3971,0.547,0.6921,0.7993,0.8079,0.0,0.0,0.0,0.0,0.0,0.0,0.0,0.0,0.0,0.0,0.0,0.0,0.0,0.0,0.0,0.0,0.0,0.0,0.0,0.0,0.0,0.0,0.0,0.0,0.0,0.0,0.0,0.0,0.1223,0.0878,0.0768,0.0,0.0,0.0,0.0,0.0,0.0,0.0,0.0,0.0,0.0,0.0,0.0,0.0,0.0,0.0,0.0,0.0,0.0,0.0,0.0,0.0,0.0,0.0,0.0,0.0,0.0,0.0,0.0,0.0,0.0,0.0,0.0,0.0,0.0,0.0,0.0,0.0,0.0,0.0,0.0,0.0,0.0,0.0,0.0,0.0,0.0,0.0,0.0,0.0,0.0,0.0,0.0,0.0,0.0,0.0,0.0,0.0,0.0,0.0,0.0,0.0,0.0,0.0,0.0,0.0,0.0,0.0,0.0,0.0,0.0,0.0,0.0,0.0,0.0,0.0,0.0,0.0,0.106,0.3091,0.4139,0.5617,0.7495,0.8167,0.8031,0.0,0.0,0.0,0.0,0.0,0.0,0.0,0.0,0.0,0.0,0.0,0.0,0.0,0.0,0.0,0.0,0.0,0.0,0.0,0.0,0.0,0.0,0.0,0.0,0.0,0.0,0.0,0.0,0.0755,0.0476,0.0,0.0,0.0,0.0,0.0,0.0,0.0,0.0,0.0,0.0,0.0,0.0,0.0,0.0,0.0,0.0,0.0,0.0,0.0,0.0,0.0,0.0,0.0,0.0,0.0,0.0,0.0,0.0,0.0,0.0,0.0,0.0,0.0,0.0,0.0,0.0,0.0,0.0,0.0,0.0,0.0,0.0,0.0,0.0,0.0,0.0,0.0,0.0,0.0,0.0,0.0,0.0,0.3889,0.0,0.0,0.0,0.0,0.0,0.0,0.0,0.0,0.0,0.0,0.0,0.0,0.0,0.0,0.0,0.0,0.0,0.0,0.0,0.0,0.0,0.0,0.0,0.0,0.0,0.1481,0.4516,0.4695,0.6107,0.8981,0.8716,0.8126,0.7366,0.0,0.0,0.0,0.0,0.0,0.0,0.0,0.0,0.0,0.0,0.0,0.0,0.0,0.0,0.0,0.0,0.0,0.0,0.0,0.0,0.0,0.0,0.0,0.0,0.0,0.0,0.1151,0.0448,0.0,0.0,0.0,0.0,0.0,0.0,0.0,0.0,0.0,0.0,0.0,0.0,0.0,0.0,0.0,0.0,0.0,0.0,0.0,0.0,0.0,0.0,0.0,0.0,0.0,0.0,0.0,0.0,0.0,0.0,0.0,0.0,0.0,0.0,0.0,0.0,0.0,0.0,0.0,0.0,0.0,0.0,0.0,0.0,0.0,0.0,0.0,0.0,0.0,0.0177,0.051,0.0,0.0,0.0,0.0,0.0,0.0,0.0,0.0,0.0,0.0,0.0,0.1874,0.1579,0.0,0.0,0.0,0.0,0.0,0.0,0.0,0.0,0.0,0.0,0.0,0.0,0.0,0.0,0.0,0.1536,0.4564,0.4582,0.6005,0.8897,0.8669,0.7991,0.6959,0.0,0.0,0.0,0.0,0.0,0.0,0.0,0.0,0.0,0.0,0.0,0.0,0.0,0.0,0.0,0.0,0.0,0.0,0.0,0.0,0.0,0.0,0.0,0.0,0.0,0.1169,0.0,0.0,0.0,0.0,0.0,0.0,0.0,0.0,0.0,0.0,0.0,0.0,0.0,0.0,0.0,0.0,0.0,0.0,0.0,0.0,0.0,0.0,0.0,0.0,0.0,0.0,0.0,0.0,0.0,0.0,0.0,0.0,0.0,0.0,0.0,0.0,0.0,0.0,0.0,0.0,0.0,0.0,0.0,0.0,0.0,0.0,0.0,0.0,0.0,0.0,0.0,0.0,0.0,0.0599,0.0,0.0,0.0,0.0,0.0,0.0,0.0,0.0,0.3875,0.3534,0.1533,0.2054,0.1754,0.0,0.1614,0.1576,0.0,0.0,0.0,0.0,0.0,0.0,0.0,0.0,0.0,0.0,0.0529,0.2024,0.4488,0.4991,0.6376,0.8742,0.8513,0.7868,0.6885,0.6193,0.5651,0.0,0.0,0.0,0.0,0.0,0.0,0.0,0.0,0.0,0.0,0.0,0.0,0.0,0.0,0.0,0.0,0.0,0.0,0.0,0.0,0.0,0.0,0.0,0.0502,0.0,0.0,0.0,0.0,0.0,0.0,0.0,0.0,0.0,0.0,0.0,0.0,0.0,0.0,0.0,0.0,0.0,0.0,0.0,0.0,0.0,0.0,0.0,0.0,0.0,0.0,0.0,0.0,0.0,0.0,0.0,0.0,0.0,0.0,0.0,0.0,0.0,0.0,0.0,0.0,0.0,0.0,0.0,0.0,0.0,0.0,0.0,0.0,0.0,0.0,0.0,0.0,0.0,0.0,0.0,0.0,0.0,0.0,0.0,0.0,0.0,0.0,0.5785,0.5961,0.4306,0.5675,0.4998,0.2295,0.2036,0.2053,0.2144,0.2049,0.0,0.0,0.0,0.0,0.0,0.0,0.0,0.0,0.136,0.2859,0.4463,0.5709,0.7126,0.8629,0.8262,0.7698,0.7125,0.6837,0.6349,0.563,0.5176,0.0,0.0,0.0,0.0,0.0,0.0,0.0,0.0,0.0,0.0,0.0,0.0,0.0,0.0,0.0,0.0,0.0,0.0,0.0,0.0,0.0347,0.0,0.0,0.0,0.0,0.0,0.0,0.0,0.0,0.0,0.0,0.0,0.0,0.0,0.0,0.0,0.0,0.0,0.0,0.0,0.0,0.0,0.0,0.0,0.0,0.0,0.0,0.0,0.0,0.0,0.0,0.0,0.0,0.0,0.0,0.0,0.0,0.0,0.0,0.0,0.0,0.0,0.0,0.0,0.0,0.0,0.0,0.0,0.0,0.0,0.0,0.0,0.0,0.0,0.0,0.0,0.0,0.0,0.0,0.0,0.0,0.0,0.1991,0.1229,0.3943,0.446,0.3015,0.3497,0.3229,0.2415,0.2145,0.2069,0.2169,0.2056,0.1836,0.1556,0.0,0.0,0.0,0.0,0.0,0.0,0.0424,0.1807,0.4224,0.4637,0.5969,0.8346,0.7963,0.759,0.7312,0.6919,0.6458,0.5928,0.5583,0.0,0.0,0.0,0.0,0.0,0.0,0.0,0.0,0.0,0.0,0.0,0.0,0.0,0.0,0.0,0.0,0.0,0.0,0.0,0.0317,0.009,0.0,0.0,0.0,0.0,0.0,0.0,0.0,0.0,0.0,0.0,0.0,0.0,0.0,0.0,0.0,0.0,0.0,0.0,0.0,0.0,0.0,0.0,0.0,0.0,0.0,0.0,0.0,0.0,0.0,0.0,0.0,0.0,0.0,0.0,0.0,0.0,0.0,0.0,0.0,0.0,0.0,0.0,0.0,0.0,0.0,0.0,0.0,0.0,0.0,0.0,0.0,0.0,0.0,0.0,0.0,0.0,0.0,0.0,0.0,0.0,0.0,0.1131,0.1112,0.35,0.4225,0.3505,0.3444,0.3123,0.2487,0.1614,0.1515,0.2191,0.2633,0.2618,0.2187,0.0,0.0,0.0784,0.0268,0.0,0.0,0.1121,0.251,0.4137,0.5264,0.6552,0.7992,0.7821,0.7584,0.7373,0.7109,0.6729,0.6227,0.5983,0.559,0.0,0.0,0.0,0.0,0.0,0.0,0.0,0.0,0.0,0.0,0.0,0.3301,0.2749,0.0,0.0,0.0,0.0898,0.0389,0.0031,0.0,0.0,0.0,0.0,0.0,0.0,0.0,0.0,0.0,0.0,0.0,0.0,0.0,0.0,0.0,0.0,0.0,0.0,0.0,0.0,0.0,0.0,0.0,0.0,0.0,0.0,0.0,0.0,0.0,0.0,0.0,0.0,0.0,0.0,0.0,0.0,0.0,0.0,0.0,0.0,0.0,0.0,0.0,0.0,0.0,0.0,0.0,0.0,0.0,0.0,0.0,0.0,0.0,0.0,0.0,0.0,0.0,0.0,0.0,0.0,0.0,0.0,0.0892,0.2531,0.4148,0.4971,0.51,0.4971,0.4116,0.2645,0.0851,0.0778,0.2229,0.3302,0.3361,0.2326,0.0768,0.0607,0.1716,0.0579,0.005,0.0,0.2675,0.4127,0.4388,0.6917,0.8099,0.7821,0.7773,0.7631,0.7366,0.7326,0.7098,0.6545,0.6368,0.5915,0.5177,0.0,0.0,0.0,0.0,0.0,0.0,0.0,0.0,0.0,0.0,0.0,0.0,0.0,0.0,0.0,0.0321,0.0,0.0,0.0,0.0,0.0,0.0,0.0,0.0,0.0,0.0,0.0,0.0,0.0,0.0,0.0,0.0,0.0,0.0,0.0,0.0,0.0,0.0,0.0,0.0,0.0,0.0,0.0,0.0,0.0,0.0,0.0,0.0,0.0,0.0,0.0,0.0,0.0,0.0,0.0,0.0,0.0,0.0,0.0,0.0,0.0,0.0,0.0,0.0,0.0,0.0,0.0,0.0,0.0,0.0,0.0,0.0,0.0,0.0,0.0,0.0,0.0,0.0,0.0,0.0,0.0917,0.2569,0.4062,0.5464,0.6743,0.5399,0.4619,0.4177,0.1351,0.0786,0.2115,0.14,0.191,0.352,0.1244,0.0151,0.0475,0.015,0.0514,0.1501,0.2167,0.3504,0.5543,0.7115,0.7882,0.7807,0.7435,0.722,0.719,0.6973,0.6742,0.6525,0.6227,0.5901,0.5501,0.4979,0.0,0.0,0.0,0.0,0.0,0.0,0.0,0.0,0.0,0.2076,0.1373,0.0,0.1119,0.0,0.0099,0.0,0.0,0.0,0.0,0.0,0.0,0.0,0.0,0.0,0.0,0.0,0.0,0.0,0.0,0.0,0.0,0.0,0.0,0.0,0.0,0.0,0.0,0.0,0.0,0.0,0.0,0.0,0.0,0.0,0.0,0.0,0.0,0.0,0.0,0.0,0.0,0.0,0.0,0.0,0.0,0.0,0.0,0.0,0.0,0.0,0.0,0.0,0.0,0.0,0.0,0.0,0.0,0.0,0.0,0.0,0.0,0.0,0.0,0.0,0.0,0.0,0.0,0.0,0.074,0.2033,0.3625,0.5079,0.6326,0.7286,0.5542,0.4403,0.3712,0.122,0.0422,0.1177,0.1051,0.1422,0.2285,0.1416,0.0639,0.0,0.0,0.0674,0.2018,0.3184,0.4782,0.6782,0.7488,0.7746,0.7611,0.7373,0.7105,0.6953,0.6783,0.66,0.6429,0.6152,0.5858,0.5603,0.5242,0.4921,0.0,0.0,0.0,0.0,0.0,0.0,0.0,0.0,0.0,0.0,0.0,0.0542,0.0,0.0,0.0,0.0,0.0,0.0,0.0,0.0,0.0,0.0,0.0,0.0,0.0,0.0,0.0,0.0,0.0,0.0,0.0,0.0,0.0,0.0,0.0,0.0,0.0,0.0,0.0,0.0,0.0,0.0,0.0,0.0,0.0,0.0,0.0,0.0,0.0,0.0,0.0,0.0,0.0,0.0,0.0,0.0,0.0,0.0,0.0,0.0,0.0,0.0,0.0,0.0,0.0,0.0,0.0,0.0,0.0,0.0,0.0,0.0,0.0,0.0,0.0,0.0125,0.0432,0.1848,0.3441,0.5204,0.651,0.7179,0.7303,0.5554,0.3885,0.2459,0.0781,0.0,0.0,0.1329,0.125,0.0112,0.1284,0.1272,0.0,0.0,0.0725,0.2268,0.4889,0.6844,0.7939,0.7875,0.7658,0.7414,0.7371,0.7139,0.6695,0.6654,0.6519,0.6286,0.6098,0.5865,0.563,0.5487,0.5262,0.0,0.4809,0.0,0.0,0.0,0.0,0.0,0.0,0.0,0.0,0.0304,0.0,0.0,0.0,0.0,0.0,0.0,0.0,0.0,0.0,0.0,0.0,0.0,0.0,0.0,0.0,0.0,0.0,0.0,0.0,0.0,0.0,0.0,0.0,0.0,0.0,0.0,0.0,0.0,0.0,0.0,0.0,0.0,0.0,0.0,0.0,0.0,0.0,0.0,0.0,0.0,0.0,0.0,0.0,0.0,0.0,0.0,0.0,0.0,0.0,0.0,0.0,0.0,0.0,0.0,0.0,0.0,0.0,0.0,0.0,0.0,0.0,0.0,0.0,0.0,0.0751,0.2033,0.2339,0.4029,0.6686,0.6877,0.7003,0.7057,0.5342,0.3838,0.2478,0.0827,0.0,0.0,0.0288,0.0283,0.0,0.0275,0.0271,0.0,0.0,0.0,0.0,0.6258,0.7766,0.7982,0.7773,0.7611,0.7543,0.7082,0.0,0.6566,0.6443,0.63,0.6084,0.6006,0.0,0.0,0.0,0.0,0.0,0.0,0.0,0.0,0.0,0.0,0.0,0.179,0.0977,0.0243,0.0075,0.0,0.0,0.0,0.0,0.0,0.0,0.0,0.0,0.0,0.0,0.0,0.0,0.0,0.0,0.0,0.0,0.0,0.0,0.0,0.0,0.0,0.0,0.0,0.0,0.0,0.0,0.0,0.0,0.0,0.0,0.0,0.0,0.0,0.0,0.0,0.0,0.0,0.0,0.0,0.0,0.0,0.0,0.0,0.0,0.0,0.0,0.0,0.0,0.0,0.0,0.0,0.0,0.0,0.0,0.0,0.0,0.0,0.0,0.0,0.0,0.0,0.0,0.0,0.0,0.0882,0.2524,0.3323,0.4936,0.7075,0.7023,0.6594,0.5845,0.4134,0.2647,0.1278,0.0407,0.0,0.0,0.0,0.0,0.0,0.0,0.0,0.0,0.1306,0.2664,0.4017,0.6625,0.7988,0.7975,0.7753,0.7563,0.7482,0.0,0.0,0.0,0.0,0.0,0.0,0.0,0.0,0.0,0.0,0.0,0.4634,0.4607,0.4405,0.3866,0.3469,0.2907,0.2067,0.1101,0.0393,0.0038,0.0,0.0,0.0,0.0,0.0,0.0,0.0,0.0,0.0,0.0,0.0,0.0,0.0,0.0,0.0,0.0,0.0,0.0,0.0,0.0,0.0,0.0,0.0,0.0,0.0,0.0,0.0,0.0,0.0,0.0,0.0,0.0,0.0,0.0,0.0,0.0,0.0,0.0,0.0,0.0,0.0,0.0,0.0,0.0,0.0,0.0,0.0,0.0,0.0,0.0,0.0,0.0,0.0,0.0,0.0,0.0,0.0,0.0,0.0,0.0,0.0,0.0,0.0,0.0,0.0322,0.1329,0.3018,0.461,0.6142,0.7466,0.7253,0.6205,0.4615,0.2965,0.1427,0.0,0.0,0.0,0.0,0.0,0.0,0.0,0.0,0.0111,0.049,0.2776,0.4129,0.4472,0.6775,0.7988,0.7982,0.7753,0.7536,0.7414,0.721,0.6919,0.6573,0.6552,0.6383,0.6087,0.601,0.5949,0.5922,0.5732,0.5206,0.4342,0.4063,0.3626,0.2784,0.257,0.2079,0.1148,0.0427,0.0,0.0,0.0,0.0,0.0,0.0,0.0,0.0,0.0,0.0,0.0,0.0,0.0,0.0,0.0,0.0,0.0,0.0,0.0,0.0,0.0,0.0,0.0,0.0,0.0,0.0,0.0,0.0,0.0,0.0,0.0,0.0,0.0,0.0,0.0,0.0,0.0,0.0,0.0,0.0,0.0,0.0,0.0,0.0,0.0,0.0,0.0,0.0,0.0,0.0,0.0,0.0,0.0,0.0,0.0,0.0,0.0,0.0,0.0,0.0,0.0,0.0,0.0,0.0,0.0,0.0,0.1527,0.3066,0.4613,0.632,0.7796,0.0,0.7682,0.6173,0.4491,0.2917,0.146,0.0,0.0,0.0,0.0,0.0,0.0,0.0,0.0,0.0607,0.176,0.3238,0.458,0.5727,0.7235,0.7988,0.7982,0.7753,0.759,0.755,0.717,0.6871,0.6681,0.6668,0.6586,0.6424,0.6519,0.6512,0.639,0.5455,0.4742,0.4424,0.3585,0.3034,0.2844,0.2165,0.1297,0.0301,0.0088,0.0,0.0,0.0,0.0,0.0,0.0,0.0,0.0,0.0,0.0,0.0,0.0,0.0,0.0,0.0,0.0,0.0,0.0,0.0,0.0,0.0,0.0,0.0,0.0,0.0,0.0,0.0,0.0,0.0,0.0,0.0,0.0,0.0,0.0,0.0,0.0,0.0,0.0,0.0,0.0,0.0,0.0,0.0,0.0,0.0,0.0,0.0,0.0,0.0,0.0,0.0,0.0,0.0,0.0,0.0,0.0,0.0,0.0,0.0,0.0,0.0,0.0,0.0,0.0,0.0,0.0,0.0826,0.2498,0.4977,0.5712,0.6825,0.8038,0.7444,0.5762,0.336,0.2515,0.1454,0.0,0.0,0.0,0.0,0.0,0.0,0.0,0.0715,0.1727,0.3075,0.4402,0.5772,0.7086,0.769,0.7988,0.7982,0.7753,0.7597,0.759,0.7238,0.693,0.6831,0.6824,0.6756,0.66,0.6661,0.6668,0.6559,0.5443,0.4517,0.3859,0.2829,0.195,0.1346,0.0946,0.0525,0.0,0.0,0.0,0.0,0.0,0.0,0.0,0.0,0.0,0.0,0.0,0.0,0.0,0.0,0.0,0.0,0.0,0.0,0.0,0.0,0.0,0.0,0.0,0.0,0.0,0.0,0.0,0.0,0.0,0.0,0.0,0.0,0.0,0.0,0.0,0.0,0.0,0.0,0.0,0.0,0.0,0.0,0.0,0.0,0.0,0.0,0.0,0.0,0.0,0.0,0.0,0.0,0.0,0.0,0.0,0.0,0.0,0.0,0.0,0.0,0.0,0.0,0.0,0.0,0.0,0.0,0.0,0.0,0.038,0.1993,0.4183,0.4732,0.5497,0.6457,0.621,0.4667,0.2353,0.19,0.1119,0.0,0.0,0.0,0.0,0.0,0.0,0.0,0.1353,0.2655,0.3974,0.532,0.6531,0.7484,0.7839,0.7988,0.7982,0.7753,0.7597,0.7577,0.7253,0.7045,0.6943,0.693,0.6876,0.681,0.6797,0.6671,0.6376,0.5268,0.4121,0.3019,0.1872,0.0902,0.0,0.0,0.0,0.0,0.0,0.0,0.0,0.0,0.0,0.0,0.0,0.0,0.0,0.0,0.0,0.0,0.0,0.0,0.0,0.0,0.0,0.0,0.0,0.0,0.0,0.0,0.0,0.0,0.0,0.0,0.0,0.0,0.0,0.0,0.0,0.0,0.0,0.0,0.0,0.0,0.0,0.0,0.0,0.0,0.0,0.0,0.0,0.0,0.0,0.0,0.0,0.0,0.0,0.0,0.0,0.0,0.0,0.0,0.0,0.0,0.0,0.0,0.0,0.0,0.0,0.0,0.0,0.0,0.0,0.0,0.0,0.1502,0.2406,0.2893,0.4242,0.4895,0.476,0.3521,0.2655,0.2073,0.0896,0.0112,0.0,0.0,0.0,0.0,0.0,0.0,0.0,0.1353,0.2709,0.4014,0.5371,0.6077,0.6232,0.7385,0.7988,0.7968,0.7753,0.7597,0.7597,0.7253,0.7092,0.7065,0.7078,0.7071,0.7058,0.7045,0.6605,0.5588,0.4391,0.3194,0.2044,0.0847,0.0089,0.0,0.0,0.0,0.0,0.0,0.0,0.0,0.0,0.0,0.0,0.0,0.0,0.0,0.0,0.0,0.0,0.0,0.0,0.0,0.0,0.0,0.0,0.0,0.0,0.0,0.0,0.0,0.0,0.0,0.0,0.0,0.0,0.0,0.0,0.0,0.0,0.0,0.0,0.0,0.0,0.0,0.0,0.0,0.0,0.0,0.0,0.0,0.0,0.0,0.0,0.0,0.0,0.0,0.0,0.0,0.0,0.0,0.0,0.0,0.0,0.0,0.0,0.0,0.0,0.0,0.0,0.0,0.0,0.0,0.0,0.0,0.075,0.1541,0.2524,0.3198,0.3449,0.3467,0.3638,0.277,0.101,0.1231,0.0896,0.0,0.0,0.0,0.0,0.0,0.0448,0.1337,0.2592,0.3925,0.5286,0.5783,0.6032,0.5982,0.5772,0.5622,0.5797,0.6924,0.7214,0.6567,0.684,0.7098,0.7098,0.7098,0.7098,0.7098,0.7098,0.6605,0.5447,0.4239,0.3037,0.188,0.0673,0.0,0.0,0.0,0.0,0.0,0.0,0.0,0.0,0.0,0.0,0.0,0.0,0.0,0.0,0.0,0.0,0.0,0.0,0.0,0.0,0.0,0.0,0.0,0.0,0.0,0.0,0.0,0.0,0.0,0.0,0.0,0.0,0.0,0.0,0.0,0.0,0.0,0.0,0.0,0.0,0.0,0.0,0.0,0.0,0.0,0.0,0.0,0.0,0.0,0.0,0.0,0.0,0.0,0.0,0.0,0.0,0.0,0.0,0.0,0.0,0.0,0.0,0.0,0.0,0.0,0.0,0.0,0.0,0.0,0.0,0.0,0.0,0.0,0.0679,0.1725,0.1787,0.1817,0.1944,0.2934,0.2193,0.0281,0.1064,0.1064,0.0,0.0,0.0,0.0,0.0448,0.1176,0.2279,0.3829,0.5193,0.6175,0.6393,0.6176,0.5477,0.4768,0.4017,0.3404,0.5305,0.6105,0.5298,0.6099,0.6643,0.665,0.6922,0.7098,0.7098,0.6827,0.6113,0.4954,0.3749,0.2546,0.1433,0.0494,0.0,0.0,0.0,0.0,0.0,0.0,0.0,0.0,0.0,0.0,0.0,0.0,0.0,0.0,0.0,0.0,0.0,0.0,0.0,0.0,0.0,0.0,0.0,0.0,0.0,0.0,0.0,0.0,0.0,0.0,0.0,0.0,0.0,0.0,0.0,0.0,0.0,0.0,0.0,0.0,0.0,0.0,0.0,0.0,0.0,0.0,0.0,0.0,0.0,0.0,0.0,0.0,0.0,0.0,0.0,0.0,0.0,0.0,0.0,0.0,0.0,0.0,0.0,0.0,0.0,0.0,0.0,0.0,0.0,0.0,0.0,0.0,0.0,0.0062,0.0185,0.0308,0.0364,0.0295,0.0471,0.0231,0.0,0.0056,0.0,0.0,0.0,0.0,0.0,0.1399,0.2124,0.2398,0.4851,0.62,0.6537,0.7268,0.6581,0.4568,0.5022,0.4021,0.1057,0.2715,0.3919,0.3891,0.4926,0.5461,0.5641,0.6517,0.7054,0.7098,0.6113,0.4954,0.3749,0.2546,0.1345,0.0269,0.0,0.0,0.0,0.0,0.0,0.0,0.0,0.0,0.0,0.0,0.0,0.0,0.0,0.0,0.0,0.0,0.0,0.0,0.0,0.0,0.0,0.0,0.0,0.0,0.0,0.0,0.0,0.0,0.0,0.0,0.0,0.0,0.0,0.0,0.0,0.0,0.0,0.0,0.0,0.0,0.0,0.0,0.0,0.0,0.0,0.0,0.0,0.0,0.0,0.0,0.0,0.0,0.0,0.0,0.0,0.0,0.0,0.0,0.0,0.0,0.0,0.0,0.0,0.0,0.0,0.0,0.0,0.0,0.0,0.0,0.0,0.0,0.0062,0.1113,0.0986,0.0185,0.111,0.1031,0.0236,0.1059,0.1041,0.0,0.0,0.0,0.0,0.0,0.0504,0.1399,0.1956,0.3238,0.4886,0.5875,0.6727,0.7427,0.7008,0.5772,0.4168,0.3717,0.2266,0.0353,0.0902,0.1377,0.1477,0.326,0.4604,0.5364,0.5802,0.603,0.6024,0.5625,0.451,0.2593,0.13,0.0494,0.0,0.0,0.0,0.0,0.0,0.0,0.0,0.0,0.0,0.0,0.0,0.0,0.0,0.0,0.0,0.0,0.0,0.0,0.0,0.0,0.0,0.0,0.0,0.0,0.0,0.0,0.0,0.0,0.0,0.0,0.0,0.0,0.0,0.0,0.0,0.0,0.0,0.0,0.0,0.0,0.0,0.0,0.0,0.0,0.0,0.0,0.0,0.0,0.0,0.0,0.0,0.0,0.0,0.0,0.0,0.0,0.0,0.0,0.0,0.0,0.0,0.0,0.0,0.0,0.0,0.0,0.0,0.0,0.0,0.0,0.0,0.0,0.0,0.0,0.1787,0.1971,0.0986,0.197,0.1878,0.0884,0.1411,0.1099,0.0,0.0,0.0,0.0,0.0,0.0,0.2124,0.2738,0.4244,0.6518,0.6851,0.7475,0.8118,0.6856,0.5527,0.4518,0.3316,0.2014,0.0806,0.0656,0.0398,0.029,0.1611,0.3003,0.4206,0.4954,0.5181,0.4865,0.4821,0.3708,0.1434,0.0452,0.0,0.0,0.0,0.0,0.0,0.0,0.0,0.0,0.0,0.0,0.0,0.0,0.0,0.0,0.0,0.0,0.0,0.0,0.0,0.0,0.0,0.0,0.0,0.0,0.0,0.0,0.0,0.0,0.0,0.0,0.0,0.0,0.0,0.0,0.0,0.0,0.0,0.0,0.0,0.0,0.0,0.0,0.0,0.0,0.0,0.0,0.0,0.0,0.0,0.0,0.0,0.0,0.0,0.0,0.0,0.0,0.0,0.0,0.0,0.0,0.0,0.0,0.0,0.0,0.0,0.0,0.0,0.0,0.0,0.0,0.0,0.0,0.0,0.0,0.0,0.1725,0.2462,0.2339,0.2462,0.2421,0.2178,0.1,0.0289,0.0,0.0,0.0,0.0,0.0,0.0,0.2403,0.3687,0.5139,0.6714,0.7874,0.8321,0.8479,0.702,0.6082,0.5627,0.4568,0.3366,0.2163,0.1912,0.1297,0.0295,0.0293,0.0809,0.1891,0.4076,0.4741,0.3749,0.3705,0.2504,0.0,0.0,0.0,0.0,0.0,0.0,0.0,0.0,0.0,0.0,0.0,0.0,0.0,0.0,0.0,0.0,0.0,0.0,0.0,0.0,0.0,0.0,0.0,0.0,0.0,0.0,0.0,0.0,0.0,0.0,0.0,0.0,0.0,0.0,0.0,0.0,0.0,0.0,0.0,0.0,0.0,0.0,0.0,0.0,0.0,0.0,0.0,0.0,0.0,0.0,0.0,0.0,0.0,0.0,0.0,0.0,0.0,0.0,0.0,0.0,0.0,0.0,0.0,0.0,0.0,0.0,0.0,0.0,0.0,0.0,0.0,0.0,0.0,0.0,0.0,0.0,0.0,0.1725,0.2524,0.2524,0.2522,0.2482,0.236,0.1939,0.0983,0.0,0.0,0.0,0.0,0.0,0.1344,0.3463,0.4303,0.5699,0.7822,0.8361,0.8492,0.8465,0.7731,0.698,0.6027,0.5577,0.4722,0.3416,0.2465,0.1796,0.1325,0.049,0.0193,0.0656,0.2851,0.3535,0.2419,0.317,0.2518,0.0,0.0,0.0,0.0,0.0,0.0,0.0,0.0,0.0,0.0,0.0,0.0,0.0,0.0,0.0,0.0,0.0,0.0,0.0,0.0,0.0,0.0,0.0,0.0,0.0,0.0,0.0,0.0,0.0,0.0,0.0,0.0,0.0,0.0,0.0,0.0,0.0,0.0,0.0,0.0,0.0,0.0,0.0,0.0,0.0,0.0,0.0,0.0,0.0,0.0,0.0,0.0,0.0,0.0,0.0,0.0,0.0,0.0,0.0,0.0,0.0,0.0,0.0,0.0,0.0,0.0,0.0,0.0,0.0,0.0,0.0,0.0,0.0,0.0,0.0,0.0,0.0,0.1725,0.2462,0.2524,0.2524,0.2482,0.2358,0.1764,0.0924,0.0,0.0,0.0392,0.0784,0.0,0.2405,0.5194,0.5417,0.6533,0.8501,0.8689,0.8533,0.8413,0.7731,0.7039,0.6692,0.6232,0.5372,0.4117,0.3165,0.225,0.1339,0.0446,0.0,0.0,0.1946,0.2383,0.1472,0.1876,0.1429,0.0,0.0,0.0,0.0,0.0,0.0,0.0,0.0,0.0,0.0,0.0,0.0,0.0,0.0,0.0,0.0,0.0,0.0,0.0,0.0,0.0,0.0,0.0,0.0,0.0,0.0,0.0,0.0,0.0,0.0,0.0,0.0,0.0,0.0,0.0,0.0,0.0,0.0,0.0,0.0,0.0,0.0,0.0,0.0,0.0,0.0,0.0,0.0,0.0,0.0,0.0,0.0,0.0,0.0,0.0,0.0,0.0,0.0,0.0,0.0,0.0,0.0,0.0,0.0,0.0,0.0,0.0,0.0,0.0,0.0,0.0,0.0,0.0,0.0,0.0,0.0,0.0,0.1479,0.2094,0.2339,0.2524,0.23,0.1953,0.1292,0.0636,0.0,0.0,0.0,0.1844,0.2012,0.3687,0.6311,0.6478,0.7426,0.8754,0.8553,0.8575,0.821,0.7073,0.6895,0.7553,0.6731,0.5622,0.4318,0.3964,0.2814,0.0504,0.0,0.0,0.0,0.1078,0.1262,0.0287,0.0,0.0,0.0,0.0,0.0,0.0,0.0,0.0,0.0,0.0,0.0,0.0,0.0,0.0,0.0,0.0,0.0,0.0,0.0,0.0,0.0,0.0,0.0,0.0,0.0,0.0,0.0,0.0,0.0,0.0,0.0,0.0,0.0,0.0,0.0,0.0,0.0,0.0,0.0,0.0,0.0,0.0,0.0,0.0,0.0,0.0,0.0,0.0,0.0,0.0,0.0,0.0,0.0,0.0,0.0,0.0,0.0,0.0,0.0,0.0,0.0,0.0,0.0,0.0,0.0,0.0,0.0,0.0,0.0,0.0,0.0,0.0,0.0,0.0,0.0,0.0,0.0,0.0,0.0,0.0,0.0679,0.0986,0.1908,0.1696,0.1122,0.2817,0.1904,0.0,0.0,0.084,0.2068,0.2515,0.3739,0.6533,0.6816,0.7537,0.8768,0.7859,0.7666,0.8105,0.6935,0.6805,0.7809,0.7739,0.6731,0.5422,0.4418,0.3215,0.1662,0.0504,0.0,0.0,0.0301,0.0837,0.1243,0.0,0.0,0.0,0.0,0.0,0.0,0.0,0.0,0.0,0.0,0.0,0.0,0.0,0.0,0.0,0.0,0.0,0.0,0.0,0.0,0.0,0.0,0.0,0.0,0.0,0.0,0.0,0.0,0.0,0.0,0.0,0.0,0.0,0.0,0.0,0.0,0.0,0.0,0.0,0.0,0.0,0.0,0.0,0.0,0.0,0.0,0.0,0.0,0.0,0.0,0.0,0.0,0.0,0.0,0.0,0.0,0.0,0.0,0.0,0.0,0.0,0.0,0.0,0.0,0.0,0.0,0.0,0.0,0.0,0.0,0.0,0.0,0.0,0.0,0.0,0.0,0.0,0.0,0.0,0.0,0.0,0.0,0.098,0.0843,0.0472,0.1737,0.1821,0.0,0.0,0.1734,0.3129,0.3798,0.5468,0.7315,0.7648,0.8152,0.865,0.7962,0.7906,0.8474,0.7694,0.7352,0.8002,0.7979,0.7129,0.5272,0.4418,0.2914,0.1511,0.0,0.0,0.0,0.0,0.0,0.1326,0.0,0.0,0.0,0.0,0.0,0.0,0.0,0.0,0.0,0.0,0.0,0.0,0.0,0.0,0.0,0.0,0.0,0.0,0.0,0.0,0.0,0.0,0.0,0.0,0.0,0.0,0.0,0.0,0.0,0.0,0.0,0.0,0.0,0.0,0.0,0.0,0.0,0.0,0.0,0.0,0.0,0.0,0.0,0.0,0.0,0.0,0.0,0.0,0.0,0.0,0.0,0.0,0.0,0.0,0.0,0.0,0.0,0.0,0.0,0.0,0.0,0.0,0.0,0.0,0.0,0.0,0.0,0.0,0.0,0.0,0.0,0.0,0.0,0.0,0.0,0.0,0.0,0.0,0.0,0.0,0.0,0.0,0.0547,0.0776,0.0759,0.1085,0.1233,0.2463,0.2012,0.3017,0.4582,0.6144,0.7093,0.8042,0.8491,0.8657,0.8484,0.8423,0.8626,0.8467,0.8223,0.8248,0.8197,0.8106,0.6681,0.4718,0.3967,0.2764,0.0,0.0,0.0,0.0,0.0,0.0554,0.1709,0.0605,0.0,0.0,0.0,0.0,0.0,0.0,0.0,0.0,0.0,0.0,0.0,0.0,0.0,0.0,0.0,0.0,0.0,0.0,0.0,0.0,0.0,0.0,0.0,0.0,0.0,0.0,0.0,0.0,0.0,0.0,0.0,0.0,0.0,0.0,0.0,0.0,0.0,0.0,0.0,0.0,0.0,0.0,0.0,0.0,0.0,0.0,0.0,0.0,0.0,0.0,0.0,0.0,0.0,0.0,0.0,0.0,0.0,0.0,0.0,0.0,0.0,0.0,0.0,0.0,0.0,0.0,0.0,0.0,0.0,0.0,0.0,0.0,0.0,0.0,0.0,0.0,0.0,0.0,0.0,0.0,0.0,0.1151,0.255,0.3509,0.2203,0.2684,0.3463,0.3073,0.3798,0.5639,0.6478,0.6927,0.7371,0.8097,0.8263,0.726,0.7421,0.77,0.8393,0.7611,0.7357,0.8064,0.8076,0.6587,0.4518,0.3814,0.2613,0.0,0.0,0.0,0.0,0.0,0.0,0.0,0.0,0.0,0.0,0.0,0.0,0.0,0.0,0.0,0.0,0.0,0.0,0.0,0.0,0.0,0.0,0.0,0.0,0.0,0.0,0.0,0.0,0.0,0.0,0.0,0.0,0.0,0.0,0.0,0.0,0.0,0.0,0.0,0.0,0.0,0.0,0.0,0.0,0.0,0.0,0.0,0.0,0.0,0.0,0.0,0.0,0.0,0.0,0.0,0.0,0.0,0.0,0.0,0.0,0.0,0.0,0.0,0.0,0.0,0.0,0.0,0.0,0.0,0.0,0.0,0.0,0.0,0.0,0.0,0.0,0.0,0.0,0.0,0.0,0.0,0.0,0.0,0.0,0.0,0.0,0.0,0.0,0.0,0.0902,0.2513,0.3694,0.3082,0.3854,0.5917,0.519,0.5306,0.6644,0.67,0.67,0.6871,0.6705,0.6311,0.5866,0.6311,0.7011,0.7816,0.7523,0.7827,0.8008,0.7547,0.6128,0.4321,0.3316,0.2213,0.0,0.0,0.0,0.0,0.0,0.0,0.0,0.0,0.0,0.0,0.0,0.0,0.0,0.0,0.0,0.0,0.0,0.0,0.0,0.0,0.0,0.0,0.0,0.0,0.0,0.0,0.0,0.0,0.0,0.0,0.0,0.0,0.0,0.0,0.0,0.0,0.0,0.0,0.0,0.0,0.0,0.0,0.0,0.0,0.0,0.0,0.0,0.0,0.0,0.0,0.0,0.0,0.0,0.0,0.0,0.0,0.0,0.0,0.0,0.0,0.0,0.0,0.0,0.0,0.0,0.0,0.0,0.0,0.0,0.0,0.0,0.0,0.0,0.0,0.0,0.0,0.0,0.0,0.0,0.0,0.0,0.0,0.0,0.0,0.0,0.0,0.0,0.0,0.0,0.0,0.1622,0.3428,0.3245,0.4522,0.6644,0.6922,0.6422,0.6478,0.6589,0.6644,0.5977,0.5194,0.4749,0.4582,0.5973,0.6745,0.7061,0.7956,0.8508,0.8354,0.7164,0.5662,0.4078,0.2814,0.146,0.0,0.0,0.0,0.0,0.0,0.0,0.0,0.0,0.0,0.0,0.0,0.0,0.0,0.0,0.0,0.0,0.0,0.0,0.0,0.0,0.0,0.0,0.0,0.0,0.0,0.0,0.0,0.0,0.0,0.0,0.0,0.0,0.0,0.0,0.0,0.0,0.0,0.0,0.0,0.0,0.0,0.0,0.0,0.0,0.0,0.0,0.0,0.0,0.0,0.0,0.0,0.0,0.0,0.0,0.0,0.0,0.0,0.0,0.0,0.0,0.0,0.0,0.0,0.0,0.0,0.0,0.0,0.0,0.0,0.0,0.0,0.0,0.0,0.0,0.0,0.0,0.0,0.0,0.0,0.0,0.0,0.0,0.0,0.0,0.0,0.0,0.0,0.0,0.0,0.0,0.0983,0.2807,0.324,0.4804,0.5528,0.7093,0.6871,0.575,0.575,0.575,0.5027,0.4582,0.3522,0.3352,0.5246,0.6533,0.6895,0.7962,0.8548,0.8032,0.6842,0.5333,0.3843,0.2467,0.126,0.0,0.0,0.0,0.0,0.0,0.0,0.0,0.0,0.0,0.0,0.0,0.0,0.0,0.0807,0.0807,0.0253,0.0921,0.0876,0.0,0.0,0.0,0.0,0.0,0.0,0.0,0.0,0.0,0.0,0.0,0.0,0.0,0.0,0.0,0.0,0.0,0.0,0.0,0.0,0.0,0.0,0.0,0.0,0.0,0.0,0.0,0.0,0.0,0.0,0.0,0.0,0.0,0.0,0.0,0.0,0.0,0.0,0.0,0.0,0.0,0.0,0.0,0.0,0.0,0.0,0.0,0.0,0.0,0.0,0.0,0.0,0.0,0.0,0.0,0.0,0.0,0.0,0.0,0.0,0.0,0.0,0.0,0.0,0.0,0.0,0.0,0.0,0.0,0.0,0.0,0.0,0.0,0.2193,0.2961,0.3857,0.4359,0.6144,0.5699,0.4749,0.4467,0.4188,0.3296,0.2405,0.0,0.2014,0.4077,0.5528,0.6135,0.7706,0.8027,0.747,0.6123,0.4616,0.3007,0.0,0.0,0.0,0.0,0.0,0.0857,0.0202,0.0,0.0,0.0,0.0,0.0,0.0,0.0,0.0,0.0757,0.0862,0.0153,0.0672,0.0522,0.0,0.0,0.0,0.0,0.0,0.0,0.0,0.0,0.0,0.0,0.0,0.0,0.0,0.0,0.0,0.0,0.0,0.0,0.0,0.0,0.0,0.0,0.0,0.0,0.0,0.0,0.0,0.0,0.0,0.0,0.0,0.0,0.0,0.0,0.0,0.0,0.0,0.0,0.0,0.0,0.0,0.0,0.0,0.0,0.0,0.0,0.0,0.0,0.1287,0.0,0.0,0.0,0.0,0.1734,0.0,0.0,0.0,0.0,0.0,0.0,0.0,0.0,0.0,0.0,0.0,0.0,0.0,0.0,0.0,0.0,0.0,0.0,0.0,0.1968,0.2291,0.2961,0.3745,0.4303,0.4191,0.3075,0.3017,0.218,0.2124,0.1064,0.0,0.0,0.2908,0.4303,0.5023,0.7077,0.7177,0.6591,0.5161,0.3648,0.1815,0.0,0.0,0.0,0.0,0.0605,0.1561,0.1058,0.131,0.1665,0.1315,0.0,0.0,0.0,0.0,0.0812,0.0811,0.0871,0.0986,0.105,0.1277,0.0,0.0,0.0,0.0,0.0,0.0,0.0896,0.0,0.0,0.0,0.0,0.0,0.0,0.0,0.0,0.0,0.0,0.0,0.0,0.0,0.0,0.0,0.0,0.0,0.0,0.0,0.0,0.0,0.0,0.0,0.0,0.0,0.0,0.0,0.0,0.0,0.0,0.0,0.0,0.0,0.0,0.0,0.0,0.0,0.0,0.0,0.151,0.2237,0.3019,0.3913,0.408,0.3634,0.3522,0.3243,0.0,0.0,0.0,0.0,0.0,0.0,0.0,0.0,0.0,0.0,0.0,0.0,0.0,0.0,0.0,0.0,0.0,0.0,0.0,0.1797,0.1958,0.2068,0.2626,0.3968,0.2684,0.1623,0.179,0.2124,0.1734,0.056,0.0,0.0,0.1734,0.3073,0.4303,0.6028,0.6754,0.6221,0.4998,0.3049,0.0,0.0,0.0,0.0,0.0,0.0757,0.1912,0.1811,0.2266,0.3377,0.2453,0.24,0.3091,0.2444,0.2763,0.3313,0.3715,0.3736,0.3593,0.3102,0.2756,0.1808,0.0941,0.0892,0.1733,0.2908,0.3466,0.3968,0.3745,0.2908,0.1846,0.1734,0.1232,0.0,0.0,0.0,0.0,0.0,0.0,0.0,0.0,0.0,0.0,0.0,0.0,0.0,0.0,0.0,0.0,0.0,0.0,0.0,0.0,0.0,0.0,0.0,0.0,0.0,0.0,0.0,0.0,0.0,0.0,0.0,0.0,0.1902,0.2235,0.2905,0.3857,0.4582,0.5194,0.4972,0.4414,0.447,0.4916,0.0,0.0,0.0,0.0,0.0,0.0,0.0,0.0,0.0,0.0,0.0,0.0,0.0,0.0,0.0,0.0,0.0,0.0,0.0,0.0,0.0,0.0,0.1064,0.1566,0.0896,0.0,0.0,0.0784,0.0,0.0,0.0,0.0,0.1399,0.2459,0.3408,0.4749,0.4672,0.392,0.2627,0.1342,0.0,0.0,0.0,0.0,0.0,0.0,0.2467,0.2314,0.3237,0.4271,0.3349,0.2747,0.3529,0.321,0.3075,0.5443,0.5589,0.5239,0.4471,0.3748,0.3447,0.3256,0.2338,0.2012,0.324,0.4136,0.4582,0.447,0.3631,0.2961,0.2235,0.1399,0.0784,0.0,0.0,0.0,0.0,0.0,0.0,0.0,0.0,0.0,0.0,0.0,0.0,0.0,0.0,0.0,0.0,0.0,0.0,0.0,0.0,0.0,0.0,0.0,0.0,0.0,0.0,0.0,0.0,0.0,0.0,0.0,0.0,0.2852,0.3352,0.4467,0.5584,0.6084,0.6422,0.6366,0.6311,0.6811,0.6977,0.0,0.0,0.0,0.0,0.0,0.0,0.0,0.0,0.0,0.0,0.0,0.0,0.0,0.0,0.0,0.0,0.0,0.0,0.0,0.0,0.0,0.0,0.0,0.0,0.0,0.0,0.0,0.0,0.0,0.0,0.0,0.0,0.0,0.1846,0.2459,0.3185,0.3402,0.2563,0.1101,0.0,0.0,0.0,0.0,0.0,0.0,0.1622,0.349,0.3745,0.4595,0.5747,0.4135,0.3692,0.5128,0.4233,0.4532,0.6408,0.718,0.6888,0.5859,0.4892,0.4199,0.4225,0.43,0.3965,0.4804,0.525,0.5639,0.5973,0.4634,0.3687,0.2571,0.1566,0.0672,0.0,0.0,0.0,0.0,0.0,0.0,0.0,0.0,0.0,0.0,0.0,0.0,0.0,0.0,0.0,0.0,0.0,0.0,0.0,0.0,0.0,0.0,0.0,0.0,0.0,0.0,0.0,0.0,0.0,0.0,0.0,0.0,0.3578,0.4024,0.5695,0.726,0.7482,0.7703,0.8263,0.8602,0.894,0.8712,0.0,0.0,0.0,0.0,0.0,0.0,0.0,0.0,0.0,0.0,0.0,0.0,0.0,0.0,0.0,0.0,0.0,0.0,0.0,0.0,0.0,0.0,0.0,0.0,0.0,0.0,0.0,0.0,0.0,0.0,0.0,0.0,0.0,0.1176,0.1678,0.2125,0.2291,0.1619,0.0608,0.0,0.0,0.0,0.0,0.0,0.1241,0.2632,0.4123,0.4996,0.6231,0.7824,0.5558,0.5211,0.6664,0.546,0.5886,0.7569,0.8339,0.8152,0.7546,0.6609,0.6352,0.6417,0.6366,0.6144,0.6533,0.782,0.838,0.7875,0.6139,0.5083,0.4077,0.2961,0.1008,0.0,0.0,0.0,0.0,0.0,0.0,0.0,0.0,0.0,0.0,0.0,0.0,0.0,0.0,0.0,0.0,0.0,0.0,0.0,0.0,0.0,0.0,0.0,0.0,0.0,0.0,0.0,0.0,0.0,0.0,0.0,0.2069,0.3354,0.4749,0.6144,0.7426,0.8374,0.8878,0.8885,0.894,0.894,0.894,0.0,0.0,0.0,0.0,0.0,0.0,0.0,0.0,0.0,0.0,0.0,0.0,0.0,0.0,0.0,0.0,0.0,0.0,0.0,0.0,0.0,0.0,0.0,0.0,0.0,0.0,0.0,0.0,0.0,0.0,0.0,0.0,0.0336,0.0336,0.0728,0.0,0.0,0.0,0.0,0.0,0.0,0.0,0.0,0.0,0.0,0.2785,0.4201,0.5613,0.7106,0.7677,0.6506,0.718,0.8081,0.6604,0.6945,0.8455,0.8858,0.8871,0.8712,0.7648,0.6755,0.6927,0.7426,0.7986,0.7875,0.8602,0.8885,0.8208,0.6871,0.5365,0.4526,0.2349,0.0,0.0,0.0,0.0,0.0,0.0,0.0,0.0,0.0,0.0,0.0,0.0,0.0,0.0,0.0,0.0,0.0,0.0,0.0,0.0,0.0,0.0,0.0,0.0,0.0,0.0,0.0,0.0,0.0,0.0,0.0,0.0,0.1622,0.3017,0.4578,0.6255,0.7537,0.8491,0.8885,0.8885,0.894,0.894,0.894,0.0,0.0,0.0,0.0,0.0,0.0,0.0,0.0,0.0,0.0,0.0,0.0,0.0,0.0,0.0,0.0,0.0,0.0,0.0,0.0,0.0,0.0,0.0,0.0,0.0,0.0,0.0,0.0,0.0,0.0,0.0,0.0728,0.0616,0.0336,0.0672,0.0,0.0,0.0,0.0,0.0,0.0,0.0,0.0,0.0,0.0,0.3211,0.4653,0.6148,0.766,0.796,0.7586,0.7506,0.7778,0.7875,0.7709,0.8325,0.8885,0.8885,0.8602,0.8097,0.7371,0.7709,0.8152,0.8712,0.894,0.894,0.894,0.8712,0.67,0.4972,0.4582,0.2461,0.0728,0.0,0.0,0.0,0.0,0.0,0.0,0.0,0.0,0.0,0.0,0.0,0.0,0.0,0.0,0.0,0.0,0.0,0.0,0.0,0.0,0.0,0.0,0.0,0.0,0.0,0.0,0.0,0.0,0.0,0.0,0.0,0.1344,0.2738,0.43,0.5973,0.7371,0.8657,0.883,0.894,0.894,0.894,0.894,0.0,0.0,0.0,0.0,0.0,0.0,0.0,0.0,0.0,0.0,0.0,0.0,0.0,0.0,0.0,0.0,0.0,0.0,0.0,0.0,0.0,0.0,0.0,0.0,0.0,0.0,0.0,0.0,0.0,0.0,0.0,0.0448,0.0616,0.0672,0.1789,0.0672,0.0,0.0,0.0,0.0,0.0,0.0,0.0,0.0,0.2562,0.4083,0.4789,0.6964,0.8336,0.853,0.7723,0.7796,0.854,0.7482,0.7482,0.8712,0.8774,0.8768,0.8823,0.8774,0.8657,0.8491,0.8774,0.8885,0.894,0.894,0.894,0.8768,0.7315,0.5917,0.4634,0.3073,0.1566,0.0,0.0,0.0,0.0,0.0,0.0,0.0,0.0,0.0,0.0,0.0,0.0,0.0,0.0,0.0,0.0,0.0,0.0,0.0,0.0,0.0,0.0,0.0,0.0,0.0,0.0,0.0,0.0,0.0,0.0,0.0,0.084,0.1958,0.3798,0.5695,0.7149,0.8491,0.8768,0.894,0.894,0.894,0.894,0.0,0.0,0.0,0.0,0.0,0.0,0.0,0.0,0.0,0.0,0.0,0.0,0.0,0.0,0.0,0.0,0.0,0.0,0.0,0.0,0.0,0.0,0.0,0.0,0.0,0.0,0.0,0.0,0.0,0.0,0.0,0.1175,0.1008,0.112,0.0784,0.0,0.0,0.0,0.0,0.0,0.0,0.0,0.0,0.0,0.2824,0.426,0.4647,0.7237,0.8549,0.8871,0.8097,0.838,0.8657,0.7537,0.7482,0.8214,0.8269,0.7986,0.8546,0.8885,0.8885,0.8885,0.894,0.894,0.894,0.894,0.894,0.8657,0.7703,0.6589,0.5806,0.3519,0.1956,0.151,0.0,0.0,0.0,0.0,0.0,0.0,0.0,0.0,0.0,0.0,0.0,0.0,0.0,0.0,0.0,0.0,0.0,0.0,0.0,0.0,0.0,0.0,0.0,0.0,0.0,0.0,0.0,0.0,0.0,0.0,0.0,0.1231,0.3296,0.5306,0.7038,0.8214,0.8657,0.894,0.894,0.894,0.894,0.0,0.0,0.0,0.0,0.0,0.0,0.0,0.0,0.0,0.0,0.0,0.0,0.0,0.0,0.0,0.0,0.0,0.0,0.0,0.0,0.0,0.0,0.0,0.0,0.0,0.0,0.0,0.0,0.0,0.0,0.0,0.1008,0.0,0.0784,0.0,0.0,0.0,0.0,0.0,0.0,0.0,0.0,0.0,0.0,0.218,0.3851,0.4972,0.6533,0.838,0.8657,0.8885,0.8885,0.8546,0.8263,0.7703,0.7709,0.6982,0.7093,0.8325,0.8152,0.8263,0.8878,0.8885,0.894,0.894,0.894,0.894,0.8602,0.7875,0.6927,0.5917,0.3575,0.2682,0.2237,0.0,0.0,0.0,0.0,0.0,0.0,0.0,0.0,0.0,0.0,0.0,0.0,0.0,0.084,0.0392,0.0,0.0,0.0,0.0,0.0,0.0,0.0,0.0,0.0,0.0,0.0,0.0,0.0,0.0,0.0,0.0,0.1176,0.3073,0.4968,0.6922,0.8152,0.8768,0.894,0.894,0.894,0.894,0.0,0.0,0.0,0.0,0.0,0.0,0.0,0.0,0.0,0.0,0.0,0.0,0.0,0.0,0.0,0.0,0.0,0.0,0.0,0.0,0.0,0.0,0.0,0.0,0.0,0.0,0.0,0.0,0.0,0.0,0.0,0.0,0.0,0.0,0.0,0.0,0.0,0.0,0.0,0.0,0.0,0.0,0.0,0.0,0.1678,0.3017,0.43,0.5917,0.7371,0.8214,0.883,0.8885,0.883,0.8774,0.782,0.6589,0.5083,0.67,0.7537,0.7038,0.7598,0.8269,0.883,0.8885,0.894,0.894,0.894,0.894,0.8436,0.6927,0.5417,0.4359,0.3299,0.2069,0.056,0.0,0.0,0.0,0.0,0.0,0.0,0.0,0.0,0.0,0.2291,0.2461,0.2573,0.2349,0.1734,0.0,0.0,0.0,0.0,0.0,0.151,0.1678,0.0,0.0,0.0,0.0,0.0,0.0,0.0,0.0,0.0,0.1344,0.3965,0.5695,0.7038,0.8042,0.8823,0.894,0.894,0.894,0.894,0.0,0.0,0.0,0.0,0.0,0.0,0.0,0.0,0.0,0.0,0.0,0.0,0.0,0.0,0.0,0.0,0.0,0.0,0.0,0.0,0.0,0.0,0.0,0.0,0.0,0.0,0.0,0.0,0.0,0.0,0.0,0.0,0.0,0.0,0.0,0.0,0.0,0.0,0.0,0.0,0.0,0.0,0.0,0.0,0.0,0.2403,0.3296,0.5417,0.6755,0.7315,0.838,0.8885,0.8885,0.7038,0.5139,0.4021,0.4634,0.6255,0.5977,0.6366,0.6927,0.7537,0.8263,0.883,0.894,0.894,0.894,0.894,0.8885,0.7598,0.6311,0.5194,0.4024,0.2628,0.0,0.0,0.0,0.0,0.0,0.0,0.0,0.1902,0.2461,0.3243,0.3854,0.3965,0.4024,0.3913,0.3299,0.2293,0.179,0.2293,0.2626,0.2794,0.2794,0.2905,0.2235,0.0,0.0,0.0,0.0,0.0,0.0,0.0,0.0,0.2961,0.5584,0.6755,0.7204,0.8152,0.894,0.894,0.894,0.894,0.894,0.0,0.0,0.0,0.0,0.0,0.0,0.0,0.0,0.0,0.0,0.0,0.0,0.0,0.0,0.0,0.0,0.0,0.0,0.0,0.0,0.056,0.0,0.0,0.0448,0.0,0.0,0.0,0.0,0.0,0.0,0.0,0.0,0.0,0.0,0.0,0.0,0.0,0.0,0.0,0.0,0.0,0.0,0.0,0.0,0.0,0.151,0.2347,0.4745,0.5866,0.6755,0.8097,0.8491,0.7814,0.5306,0.4693,0.3742,0.324,0.4359,0.4526,0.4634,0.5528,0.6533,0.7537,0.8208,0.8712,0.894,0.894,0.8885,0.883,0.8436,0.726,0.6089,0.4804,0.3466,0.0,0.0,0.0,0.0,0.0,0.0,0.2014,0.3243,0.4136,0.4916,0.5472,0.5639,0.6084,0.6533,0.5584,0.4247,0.3631,0.3634,0.4021,0.4355,0.43,0.4021,0.3352,0.2571,0.0,0.0,0.0,0.0,0.0,0.0,0.0,0.4355,0.6422,0.6644,0.7088,0.8097,0.894,0.894,0.894,0.894,0.894,0.0,0.0,0.0,0.0,0.0,0.0,0.0,0.0,0.0,0.0,0.0,0.0,0.0,0.0,0.0,0.0,0.0,0.0,0.0,0.0,0.1287,0.1231,0.0728,0.1287,0.0952,0.0,0.0,0.0,0.0,0.0,0.0,0.0,0.0,0.0,0.0,0.0,0.0,0.0,0.0,0.0,0.0,0.0,0.0,0.0,0.0,0.0616,0.1958,0.3519,0.5027,0.6478,0.7537,0.782,0.6084,0.4522,0.4634,0.4132,0.2852,0.274,0.3299,0.3463,0.4522,0.5639,0.67,0.7648,0.838,0.8878,0.894,0.894,0.8885,0.8657,0.7654,0.5922,0.447,0.3187,0.0,0.0,0.0,0.0,0.0,0.2237,0.3687,0.486,0.5806,0.6533,0.6866,0.7149,0.7482,0.8208,0.7703,0.6144,0.5639,0.5194,0.525,0.5528,0.5639,0.5301,0.4411,0.3575,0.2515,0.0,0.0,0.0,0.0,0.2515,0.4132,0.525,0.67,0.7093,0.7648,0.8318,0.894,0.894,0.894,0.894,0.894,0.0,0.0,0.0,0.0,0.0,0.0,0.0,0.0,0.0,0.0,0.0,0.0,0.0,0.0,0.0,0.0,0.0,0.0,0.0,0.0,0.1622,0.151,0.0616,0.1622,0.1288,0.0,0.0,0.0,0.0,0.0,0.0,0.0,0.0,0.0,0.0,0.0,0.0,0.0,0.0,0.0,0.0,0.0,0.0,0.0,0.0,0.0,0.0,0.2069,0.3522,0.4916,0.6422,0.6255,0.5027,0.4247,0.3075,0.2125,0.2684,0.2461,0.2181,0.2794,0.4136,0.4972,0.6089,0.7426,0.8318,0.8712,0.894,0.894,0.8823,0.8602,0.782,0.5922,0.4247,0.2964,0.0,0.0,0.0,0.0,0.0,0.3631,0.5139,0.6311,0.726,0.7875,0.8269,0.8436,0.8491,0.8768,0.8712,0.782,0.7593,0.7149,0.6478,0.6589,0.6811,0.6478,0.5639,0.4188,0.2961,0.2237,0.1678,0.2459,0.3296,0.4801,0.6251,0.6977,0.7537,0.8208,0.8712,0.894,0.894,0.894,0.894,0.894,0.894,0.0,0.0,0.0,0.0,0.0,0.0,0.0,0.0,0.0,0.0,0.0,0.0,0.0,0.0,0.0,0.0,0.0,0.0,0.0,0.0,0.1678,0.1512,0.1678,0.1958,0.1344,0.0,0.0,0.0,0.0,0.0,0.0,0.0,0.0,0.0,0.0,0.0,0.0,0.0,0.0,0.0,0.0,0.0,0.0,0.0,0.0,0.0,0.0,0.1343,0.2459,0.3296,0.4244,0.4972,0.4024,0.3019,0.2517,0.2517,0.2796,0.2794,0.2014,0.2517,0.4024,0.4804,0.5083,0.6311,0.8491,0.894,0.894,0.894,0.894,0.8712,0.7931,0.6311,0.4972,0.3689,0.0,0.0,0.0,0.0,0.2515,0.4024,0.5528,0.6922,0.7765,0.838,0.8712,0.8712,0.8885,0.894,0.894,0.894,0.894,0.8768,0.7875,0.7703,0.7986,0.7593,0.6811,0.525,0.3578,0.3519,0.3575,0.4637,0.5755,0.6478,0.7204,0.7931,0.8546,0.8878,0.894,0.894,0.894,0.894,0.894,0.894,0.894,0.0,0.0,0.0,0.0,0.0,0.0,0.0,0.0,0.0,0.0,0.0,0.0,0.0,0.0,0.0,0.0,0.0,0.0,0.0,0.0,0.0,0.1734,0.1679,0.2293,0.1512,0.0,0.0,0.0,0.0,0.0,0.0,0.0,0.0,0.0,0.0,0.0,0.0,0.0,0.0,0.0,0.0,0.0,0.0,0.0,0.0,0.0,0.0,0.1008,0.1846,0.2347,0.2626,0.3129,0.2964,0.2015,0.2069,0.2181,0.2964,0.2738,0.2347,0.2961,0.3965,0.4582,0.4637,0.5866,0.8208,0.894,0.894,0.894,0.894,0.8657,0.7875,0.6589,0.525,0.0,0.0,0.0,0.0,0.0,0.2738,0.4247,0.575,0.7204,0.8152,0.8768,0.894,0.894,0.894,0.894,0.894,0.894,0.894,0.894,0.8546,0.8602,0.8878,0.8097,0.7204,0.6311,0.4916,0.5139,0.5472,0.6311,0.6927,0.7204,0.7931,0.8491,0.8712,0.8885,0.894,0.894,0.894,0.894,0.894,0.894,0.894,0.0,0.0,0.0,0.0,0.0,0.0,0.0,0.0,0.0,0.0,0.0,0.0,0.0,0.0,0.0,0.0,0.0,0.0,0.0,0.0,0.0,0.151,0.0952,0.1679,0.1288,0.0,0.0,0.0,0.0,0.0,0.0,0.0,0.0,0.0,0.0,0.0,0.0,0.0,0.0,0.0,0.0,0.0,0.0,0.0,0.0,0.0,0.0,0.0,0.112,0.179,0.2124,0.2291,0.1902,0.1176,0.112,0.1846,0.2626,0.285,0.285,0.3965,0.4972,0.5417,0.5806,0.67,0.8263,0.894,0.894,0.894,0.894,0.894,0.8042,0.5977,0.447,0.3354,0.0,0.0,0.0,0.0,0.2515,0.4021,0.5528,0.6977,0.8269,0.8712,0.894,0.894,0.894,0.894,0.894,0.894,0.894,0.894,0.894,0.894,0.8885,0.7986,0.7093,0.6533,0.6255,0.6255,0.67,0.7765,0.8214,0.8097,0.8263,0.8768,0.8885,0.894,0.894,0.894,0.894,0.894,0.8823,0.8546,0.8263]}]]